Wetterdaten: Samstag, 03.09.2016
Datum Zeit Temp. A. Temp. A. max Feuchte A. Luftdruck Regen Wind Richtung Richtung Sonnenschein ET UV Solar Taupunkt Windben
03.09.2016 00:00 14,4 C 14,5 C 91 % 1019,4 hPa 0,0 mm 0,0 km/h (0 Bft) S 180 0 min 0,000 mm 0,0 UV-I 0 W/m 12,9 C 0,0 km/h (0 Bft)
03.09.2016 00:01 14,4 C 14,4 C 92 % 1019,5 hPa 0,0 mm 0,0 km/h (0 Bft) S 180 0 min 0,000 mm 0,0 UV-I 0 W/m 13,1 C 0,0 km/h (0 Bft)
03.09.2016 00:02 14,4 C 14,4 C 91 % 1019,5 hPa 0,0 mm 0,0 km/h (0 Bft) S 180 0 min 0,000 mm 0,0 UV-I 0 W/m 12,9 C 0,0 km/h (0 Bft)
03.09.2016 00:03 14,3 C 14,4 C 92 % 1019,5 hPa 0,0 mm 0,1 km/h (0 Bft) S 180 0 min 0,000 mm 0,0 UV-I 0 W/m 13,0 C 1,6 km/h (1 Bft)
03.09.2016 00:04 14,3 C 14,3 C 91 % 1019,5 hPa 0,0 mm 0,0 km/h (0 Bft) S 180 0 min 0,000 mm 0,0 UV-I 0 W/m 12,8 C 0,0 km/h (0 Bft)
03.09.2016 00:05 14,3 C 14,3 C 92 % 1019,5 hPa 0,0 mm 0,3 km/h (0 Bft) S 180 0 min 0,000 mm 0,0 UV-I 0 W/m 13,0 C 1,6 km/h (1 Bft)
03.09.2016 00:06 14,3 C 14,4 C 92 % 1019,5 hPa 0,0 mm 0,0 km/h (0 Bft) S 180 0 min 0,000 mm 0,0 UV-I 0 W/m 13,0 C 0,0 km/h (0 Bft)
03.09.2016 00:07 14,4 C 14,4 C 93 % 1019,5 hPa 0,0 mm 0,0 km/h (0 Bft) S 180 0 min 0,000 mm 0,0 UV-I 0 W/m 13,3 C 0,0 km/h (0 Bft)
03.09.2016 00:08 14,3 C 14,4 C 93 % 1019,5 hPa 0,0 mm 0,0 km/h (0 Bft) S 180 0 min 0,000 mm 0,0 UV-I 0 W/m 13,2 C 0,0 km/h (0 Bft)
03.09.2016 00:09 14,3 C 14,4 C 92 % 1019,5 hPa 0,0 mm 0,0 km/h (0 Bft) S 180 0 min 0,000 mm 0,0 UV-I 0 W/m 13,0 C 0,0 km/h (0 Bft)
03.09.2016 00:10 14,3 C 14,3 C 92 % 1019,5 hPa 0,0 mm 0,0 km/h (0 Bft) S 180 0 min 0,000 mm 0,0 UV-I 0 W/m 13,0 C 0,0 km/h (0 Bft)
03.09.2016 00:11 14,3 C 14,3 C 92 % 1019,5 hPa 0,0 mm 0,0 km/h (0 Bft) S 180 0 min 0,000 mm 0,0 UV-I 0 W/m 13,0 C 0,0 km/h (0 Bft)
03.09.2016 00:12 14,3 C 14,3 C 92 % 1019,5 hPa 0,0 mm 0,0 km/h (0 Bft) S 180 0 min 0,000 mm 0,0 UV-I 0 W/m 13,0 C 0,0 km/h (0 Bft)
03.09.2016 00:13 14,3 C 14,3 C 92 % 1019,5 hPa 0,0 mm 0,0 km/h (0 Bft) S 180 0 min 0,000 mm 0,0 UV-I 0 W/m 13,0 C 0,0 km/h (0 Bft)
03.09.2016 00:14 14,2 C 14,3 C 91 % 1019,5 hPa 0,0 mm 0,0 km/h (0 Bft) S 180 0 min 0,000 mm 0,0 UV-I 0 W/m 12,8 C 0,0 km/h (0 Bft)
03.09.2016 00:15 14,2 C 14,2 C 92 % 1019,5 hPa 0,0 mm 0,0 km/h (0 Bft) S 180 0 min 0,000 mm 0,0 UV-I 0 W/m 12,9 C 0,0 km/h (0 Bft)
03.09.2016 00:16 14,2 C 14,2 C 92 % 1019,5 hPa 0,0 mm 0,0 km/h (0 Bft) S 180 0 min 0,000 mm 0,0 UV-I 0 W/m 12,9 C 0,0 km/h (0 Bft)
03.09.2016 00:17 14,2 C 14,2 C 92 % 1019,5 hPa 0,0 mm 0,0 km/h (0 Bft) S 180 0 min 0,000 mm 0,0 UV-I 0 W/m 12,9 C 0,0 km/h (0 Bft)
03.09.2016 00:18 14,2 C 14,2 C 92 % 1019,5 hPa 0,0 mm 0,0 km/h (0 Bft) S 180 0 min 0,000 mm 0,0 UV-I 0 W/m 12,9 C 0,0 km/h (0 Bft)
03.09.2016 00:19 14,2 C 14,2 C 92 % 1019,5 hPa 0,0 mm 0,0 km/h (0 Bft) S 180 0 min 0,000 mm 0,0 UV-I 0 W/m 12,9 C 0,0 km/h (0 Bft)
03.09.2016 00:20 14,2 C 14,2 C 92 % 1019,5 hPa 0,0 mm 0,0 km/h (0 Bft) S 180 0 min 0,000 mm 0,0 UV-I 0 W/m 12,9 C 0,0 km/h (0 Bft)
03.09.2016 00:21 14,2 C 14,2 C 92 % 1019,5 hPa 0,0 mm 0,0 km/h (0 Bft) S 180 0 min 0,000 mm 0,0 UV-I 0 W/m 12,9 C 0,0 km/h (0 Bft)
03.09.2016 00:22 14,1 C 14,2 C 92 % 1019,5 hPa 0,0 mm 0,0 km/h (0 Bft) S 180 0 min 0,000 mm 0,0 UV-I 0 W/m 12,8 C 0,0 km/h (0 Bft)
03.09.2016 00:23 14,1 C 14,1 C 92 % 1019,5 hPa 0,0 mm 0,0 km/h (0 Bft) S 180 0 min 0,000 mm 0,0 UV-I 0 W/m 12,8 C 0,0 km/h (0 Bft)
03.09.2016 00:24 14,1 C 14,1 C 92 % 1019,6 hPa 0,0 mm 0,0 km/h (0 Bft) S 180 0 min 0,000 mm 0,0 UV-I 0 W/m 12,8 C 0,0 km/h (0 Bft)
03.09.2016 00:25 14,1 C 14,1 C 93 % 1019,6 hPa 0,0 mm 0,0 km/h (0 Bft) S 180 0 min 0,000 mm 0,0 UV-I 0 W/m 13,0 C 0,0 km/h (0 Bft)
03.09.2016 00:26 14,1 C 14,1 C 93 % 1019,6 hPa 0,0 mm 0,0 km/h (0 Bft) S 180 0 min 0,000 mm 0,0 UV-I 0 W/m 13,0 C 0,0 km/h (0 Bft)
03.09.2016 00:27 14,1 C 14,1 C 93 % 1019,5 hPa 0,0 mm 0,0 km/h (0 Bft) S 180 0 min 0,000 mm 0,0 UV-I 0 W/m 13,0 C 0,0 km/h (0 Bft)
03.09.2016 00:28 14,1 C 14,1 C 93 % 1019,5 hPa 0,0 mm 0,0 km/h (0 Bft) S 180 0 min 0,000 mm 0,0 UV-I 0 W/m 13,0 C 0,0 km/h (0 Bft)
03.09.2016 00:29 14,1 C 14,1 C 93 % 1019,6 hPa 0,0 mm 0,0 km/h (0 Bft) S 180 0 min 0,000 mm 0,0 UV-I 0 W/m 13,0 C 0,0 km/h (0 Bft)
03.09.2016 00:30 14,0 C 14,1 C 93 % 1019,6 hPa 0,0 mm 1,2 km/h (1 Bft) W-SW 246 0 min 0,000 mm 0,0 UV-I 0 W/m 12,9 C 3,2 km/h (1 Bft)
03.09.2016 00:31 13,9 C 14,0 C 92 % 1019,6 hPa 0,0 mm 0,5 km/h (0 Bft) W-SW 246 0 min 0,000 mm 0,0 UV-I 0 W/m 12,6 C 1,6 km/h (1 Bft)
03.09.2016 00:32 13,9 C 13,9 C 92 % 1019,6 hPa 0,0 mm 0,0 km/h (0 Bft) W-SW 246 0 min 0,000 mm 0,0 UV-I 0 W/m 12,6 C 0,0 km/h (0 Bft)
03.09.2016 00:33 13,8 C 13,9 C 93 % 1019,6 hPa 0,0 mm 0,2 km/h (0 Bft) W-SW 246 0 min 0,000 mm 0,0 UV-I 0 W/m 12,7 C 1,6 km/h (1 Bft)
03.09.2016 00:34 13,8 C 13,9 C 92 % 1019,6 hPa 0,0 mm 0,0 km/h (0 Bft) W-SW 246 0 min 0,000 mm 0,0 UV-I 0 W/m 12,5 C 0,0 km/h (0 Bft)
03.09.2016 00:35 13,8 C 13,8 C 92 % 1019,6 hPa 0,0 mm 0,7 km/h (0 Bft) W-SW 246 0 min 0,000 mm 0,0 UV-I 0 W/m 12,5 C 1,6 km/h (1 Bft)
03.09.2016 00:36 13,8 C 13,8 C 92 % 1019,6 hPa 0,0 mm 1,5 km/h (1 Bft) W-SW 246 0 min 0,000 mm 0,0 UV-I 0 W/m 12,5 C 3,2 km/h (1 Bft)
03.09.2016 00:37 13,8 C 13,8 C 93 % 1019,6 hPa 0,0 mm 0,3 km/h (0 Bft) W-SW 246 0 min 0,000 mm 0,0 UV-I 0 W/m 12,7 C 1,6 km/h (1 Bft)
03.09.2016 00:38 13,8 C 13,8 C 93 % 1019,6 hPa 0,0 mm 0,3 km/h (0 Bft) W-SW 246 0 min 0,000 mm 0,0 UV-I 0 W/m 12,7 C 1,6 km/h (1 Bft)
03.09.2016 00:39 13,8 C 13,8 C 93 % 1019,6 hPa 0,0 mm 0,0 km/h (0 Bft) W-SW 246 0 min 0,000 mm 0,0 UV-I 0 W/m 12,7 C 0,0 km/h (0 Bft)
03.09.2016 00:40 13,8 C 13,8 C 93 % 1019,6 hPa 0,0 mm 0,3 km/h (0 Bft) W-SW 246 0 min 0,000 mm 0,0 UV-I 0 W/m 12,7 C 1,6 km/h (1 Bft)
03.09.2016 00:41 13,8 C 13,8 C 93 % 1019,6 hPa 0,0 mm 1,0 km/h (0 Bft) W-SW 245 0 min 0,000 mm 0,0 UV-I 0 W/m 12,7 C 3,2 km/h (1 Bft)
03.09.2016 00:42 13,8 C 13,8 C 93 % 1019,6 hPa 0,0 mm 0,9 km/h (0 Bft) W-SW 245 0 min 0,000 mm 0,0 UV-I 0 W/m 12,7 C 3,2 km/h (1 Bft)
03.09.2016 00:43 13,9 C 13,9 C 93 % 1019,5 hPa 0,0 mm 0,4 km/h (0 Bft) W-SW 245 0 min 0,000 mm 0,0 UV-I 0 W/m 12,8 C 1,6 km/h (1 Bft)
03.09.2016 00:44 13,9 C 13,9 C 94 % 1019,5 hPa 0,0 mm 0,1 km/h (0 Bft) W-SW 245 0 min 0,000 mm 0,0 UV-I 0 W/m 12,9 C 1,6 km/h (1 Bft)
03.09.2016 00:45 13,9 C 13,9 C 93 % 1019,5 hPa 0,0 mm 0,0 km/h (0 Bft) W-SW 245 0 min 0,000 mm 0,0 UV-I 0 W/m 12,8 C 0,0 km/h (0 Bft)
03.09.2016 00:46 14,0 C 14,0 C 93 % 1019,5 hPa 0,0 mm 0,1 km/h (0 Bft) W-SW 245 0 min 0,000 mm 0,0 UV-I 0 W/m 12,9 C 1,6 km/h (1 Bft)
03.09.2016 00:47 14,0 C 14,0 C 93 % 1019,5 hPa 0,0 mm 0,0 km/h (0 Bft) W-SW 245 0 min 0,000 mm 0,0 UV-I 0 W/m 12,9 C 0,0 km/h (0 Bft)
03.09.2016 00:48 13,9 C 14,0 C 93 % 1019,5 hPa 0,0 mm 0,0 km/h (0 Bft) W-SW 245 0 min 0,000 mm 0,0 UV-I 0 W/m 12,8 C 0,0 km/h (0 Bft)
03.09.2016 00:49 13,9 C 14,0 C 92 % 1019,5 hPa 0,0 mm 0,7 km/h (0 Bft) W 280 0 min 0,000 mm 0,0 UV-I 0 W/m 12,6 C 1,6 km/h (1 Bft)
03.09.2016 00:50 13,9 C 13,9 C 92 % 1019,5 hPa 0,0 mm 1,6 km/h (1 Bft) W-NW 293 0 min 0,000 mm 0,0 UV-I 0 W/m 12,6 C 3,2 km/h (1 Bft)
03.09.2016 00:51 13,8 C 13,9 C 92 % 1019,5 hPa 0,0 mm 1,0 km/h (0 Bft) W-NW 293 0 min 0,000 mm 0,0 UV-I 0 W/m 12,5 C 3,2 km/h (1 Bft)
03.09.2016 00:52 13,8 C 13,8 C 92 % 1019,6 hPa 0,0 mm 0,5 km/h (0 Bft) W-NW 293 0 min 0,000 mm 0,0 UV-I 0 W/m 12,5 C 1,6 km/h (1 Bft)
03.09.2016 00:53 13,8 C 13,8 C 92 % 1019,6 hPa 0,0 mm 1,2 km/h (1 Bft) S-SW 199 0 min 0,000 mm 0,0 UV-I 0 W/m 12,5 C 3,2 km/h (1 Bft)
03.09.2016 00:54 13,8 C 13,8 C 92 % 1019,6 hPa 0,0 mm 1,3 km/h (1 Bft) S-SW 199 0 min 0,000 mm 0,0 UV-I 0 W/m 12,5 C 3,2 km/h (1 Bft)
03.09.2016 00:55 13,8 C 13,8 C 93 % 1019,6 hPa 0,0 mm 1,1 km/h (1 Bft) S-SW 199 0 min 0,000 mm 0,0 UV-I 0 W/m 12,7 C 1,6 km/h (1 Bft)
03.09.2016 00:56 13,8 C 13,8 C 93 % 1019,6 hPa 0,0 mm 0,5 km/h (0 Bft) S-SW 199 0 min 0,000 mm 0,0 UV-I 0 W/m 12,7 C 1,6 km/h (1 Bft)
03.09.2016 00:57 13,8 C 13,8 C 93 % 1019,6 hPa 0,0 mm 0,3 km/h (0 Bft) S-SW 199 0 min 0,000 mm 0,0 UV-I 0 W/m 12,7 C 1,6 km/h (1 Bft)
03.09.2016 00:58 13,8 C 13,8 C 93 % 1019,6 hPa 0,0 mm 1,0 km/h (0 Bft) S-SW 199 0 min 0,000 mm 0,0 UV-I 0 W/m 12,7 C 1,6 km/h (1 Bft)
03.09.2016 00:59 13,8 C 13,8 C 93 % 1019,5 hPa 0,0 mm 0,9 km/h (0 Bft) S-SW 199 0 min 0,000 mm 0,0 UV-I 0 W/m 12,7 C 1,6 km/h (1 Bft)
03.09.2016 01:00 13,8 C 13,8 C 93 % 1019,5 hPa 0,0 mm 0,0 km/h (0 Bft) S-SW 199 0 min 0,000 mm 0,0 UV-I 0 W/m 12,7 C 0,0 km/h (0 Bft)
03.09.2016 01:01 13,8 C 13,8 C 93 % 1019,6 hPa 0,0 mm 0,4 km/h (0 Bft) S-SW 199 0 min 0,000 mm 0,0 UV-I 0 W/m 12,7 C 1,6 km/h (1 Bft)
03.09.2016 01:02 13,7 C 13,8 C 92 % 1019,6 hPa 0,0 mm 0,1 km/h (0 Bft) S-SW 199 0 min 0,000 mm 0,0 UV-I 0 W/m 12,4 C 1,6 km/h (1 Bft)
03.09.2016 01:03 13,7 C 13,8 C 93 % 1019,6 hPa 0,0 mm 0,4 km/h (0 Bft) S-SW 199 0 min 0,000 mm 0,0 UV-I 0 W/m 12,6 C 1,6 km/h (1 Bft)
03.09.2016 01:04 13,7 C 13,7 C 93 % 1019,6 hPa 0,0 mm 0,4 km/h (0 Bft) S-SW 199 0 min 0,000 mm 0,0 UV-I 0 W/m 12,6 C 1,6 km/h (1 Bft)
03.09.2016 01:05 13,7 C 13,7 C 93 % 1019,5 hPa 0,0 mm 1,3 km/h (1 Bft) W-SW 243 0 min 0,000 mm 0,0 UV-I 0 W/m 12,6 C 3,2 km/h (1 Bft)
03.09.2016 01:06 13,7 C 13,7 C 93 % 1019,5 hPa 0,0 mm 0,2 km/h (0 Bft) W-SW 243 0 min 0,000 mm 0,0 UV-I 0 W/m 12,6 C 1,6 km/h (1 Bft)
03.09.2016 01:07 13,8 C 13,8 C 94 % 1019,5 hPa 0,0 mm 0,0 km/h (0 Bft) W-SW 243 0 min 0,000 mm 0,0 UV-I 0 W/m 12,9 C 0,0 km/h (0 Bft)
03.09.2016 01:08 13,7 C 13,8 C 93 % 1019,4 hPa 0,0 mm 1,0 km/h (0 Bft) W-SW 243 0 min 0,000 mm 0,0 UV-I 0 W/m 12,6 C 1,6 km/h (1 Bft)
03.09.2016 01:09 13,7 C 13,7 C 93 % 1019,5 hPa 0,0 mm 0,0 km/h (0 Bft) W-SW 243 0 min 0,000 mm 0,0 UV-I 0 W/m 12,6 C 0,0 km/h (0 Bft)
03.09.2016 01:10 13,7 C 13,7 C 93 % 1019,4 hPa 0,0 mm 0,0 km/h (0 Bft) W-SW 243 0 min 0,000 mm 0,0 UV-I 0 W/m 12,6 C 0,0 km/h (0 Bft)
03.09.2016 01:11 13,7 C 13,7 C 93 % 1019,4 hPa 0,0 mm 0,3 km/h (0 Bft) W-SW 243 0 min 0,000 mm 0,0 UV-I 0 W/m 12,6 C 1,6 km/h (1 Bft)
03.09.2016 01:12 13,7 C 13,7 C 93 % 1019,4 hPa 0,0 mm 0,1 km/h (0 Bft) W-SW 243 0 min 0,000 mm 0,0 UV-I 0 W/m 12,6 C 1,6 km/h (1 Bft)
03.09.2016 01:13 13,7 C 13,7 C 93 % 1019,4 hPa 0,0 mm 0,0 km/h (0 Bft) W-SW 243 0 min 0,000 mm 0,0 UV-I 0 W/m 12,6 C 0,0 km/h (0 Bft)
03.09.2016 01:14 13,7 C 13,7 C 94 % 1019,4 hPa 0,0 mm 0,5 km/h (0 Bft) W-SW 243 0 min 0,000 mm 0,0 UV-I 0 W/m 12,8 C 1,6 km/h (1 Bft)
03.09.2016 01:15 13,7 C 13,7 C 94 % 1019,4 hPa 0,0 mm 0,7 km/h (0 Bft) W-SW 243 0 min 0,000 mm 0,0 UV-I 0 W/m 12,8 C 1,6 km/h (1 Bft)
03.09.2016 01:16 13,7 C 13,7 C 93 % 1019,5 hPa 0,0 mm 0,0 km/h (0 Bft) W-SW 243 0 min 0,000 mm 0,0 UV-I 0 W/m 12,6 C 0,0 km/h (0 Bft)
03.09.2016 01:17 13,6 C 13,7 C 94 % 1019,5 hPa 0,0 mm 0,0 km/h (0 Bft) W-SW 243 0 min 0,000 mm 0,0 UV-I 0 W/m 12,7 C 0,0 km/h (0 Bft)
03.09.2016 01:18 13,6 C 13,6 C 93 % 1019,4 hPa 0,0 mm 0,3 km/h (0 Bft) W-SW 243 0 min 0,000 mm 0,0 UV-I 0 W/m 12,5 C 1,6 km/h (1 Bft)
03.09.2016 01:19 13,5 C 13,6 C 93 % 1019,5 hPa 0,0 mm 0,0 km/h (0 Bft) W-SW 243 0 min 0,000 mm 0,0 UV-I 0 W/m 12,4 C 0,0 km/h (0 Bft)
03.09.2016 01:20 13,5 C 13,5 C 93 % 1019,5 hPa 0,0 mm 0,0 km/h (0 Bft) W-SW 243 0 min 0,000 mm 0,0 UV-I 0 W/m 12,4 C 0,0 km/h (0 Bft)
03.09.2016 01:21 13,4 C 13,5 C 93 % 1019,5 hPa 0,0 mm 0,0 km/h (0 Bft) W-SW 243 0 min 0,000 mm 0,0 UV-I 0 W/m 12,3 C 0,0 km/h (0 Bft)
03.09.2016 01:22 13,4 C 13,4 C 93 % 1019,5 hPa 0,0 mm 0,0 km/h (0 Bft) W-SW 243 0 min 0,000 mm 0,0 UV-I 0 W/m 12,3 C 0,0 km/h (0 Bft)
03.09.2016 01:23 13,4 C 13,4 C 94 % 1019,5 hPa 0,0 mm 0,0 km/h (0 Bft) W-SW 243 0 min 0,000 mm 0,0 UV-I 0 W/m 12,5 C 0,0 km/h (0 Bft)
03.09.2016 01:24 13,4 C 13,4 C 93 % 1019,5 hPa 0,0 mm 0,0 km/h (0 Bft) W-SW 243 0 min 0,000 mm 0,0 UV-I 0 W/m 12,3 C 0,0 km/h (0 Bft)
03.09.2016 01:25 13,3 C 13,4 C 93 % 1019,5 hPa 0,0 mm 0,0 km/h (0 Bft) W-SW 243 0 min 0,000 mm 0,0 UV-I 0 W/m 12,2 C 0,0 km/h (0 Bft)
03.09.2016 01:26 13,4 C 13,4 C 94 % 1019,4 hPa 0,0 mm 0,0 km/h (0 Bft) W-SW 243 0 min 0,000 mm 0,0 UV-I 0 W/m 12,5 C 0,0 km/h (0 Bft)
03.09.2016 01:27 13,4 C 13,4 C 94 % 1019,4 hPa 0,0 mm 0,0 km/h (0 Bft) W-SW 243 0 min 0,000 mm 0,0 UV-I 0 W/m 12,5 C 0,0 km/h (0 Bft)
03.09.2016 01:28 13,4 C 13,4 C 94 % 1019,4 hPa 0,0 mm 0,0 km/h (0 Bft) W-SW 243 0 min 0,000 mm 0,0 UV-I 0 W/m 12,5 C 0,0 km/h (0 Bft)
03.09.2016 01:29 13,4 C 13,4 C 94 % 1019,4 hPa 0,0 mm 0,0 km/h (0 Bft) S-SO 159 0 min 0,000 mm 0,0 UV-I 0 W/m 12,5 C 0,0 km/h (0 Bft)
03.09.2016 01:30 13,4 C 13,4 C 94 % 1019,4 hPa 0,0 mm 0,0 km/h (0 Bft) S-SO 159 0 min 0,000 mm 0,0 UV-I 0 W/m 12,5 C 0,0 km/h (0 Bft)
03.09.2016 01:31 13,4 C 13,4 C 94 % 1019,3 hPa 0,0 mm 0,0 km/h (0 Bft) S-SO 159 0 min 0,000 mm 0,0 UV-I 0 W/m 12,5 C 0,0 km/h (0 Bft)
03.09.2016 01:32 13,4 C 13,4 C 94 % 1019,3 hPa 0,0 mm 0,0 km/h (0 Bft) SO 130 0 min 0,000 mm 0,0 UV-I 0 W/m 12,5 C 0,0 km/h (0 Bft)
03.09.2016 01:33 13,3 C 13,4 C 94 % 1019,3 hPa 0,0 mm 0,0 km/h (0 Bft) SO 130 0 min 0,000 mm 0,0 UV-I 0 W/m 12,4 C 0,0 km/h (0 Bft)
03.09.2016 01:34 13,3 C 13,3 C 94 % 1019,3 hPa 0,0 mm 0,0 km/h (0 Bft) SO 130 0 min 0,000 mm 0,0 UV-I 0 W/m 12,4 C 0,0 km/h (0 Bft)
03.09.2016 01:35 13,3 C 13,3 C 94 % 1019,3 hPa 0,0 mm 0,0 km/h (0 Bft) SO 130 0 min 0,000 mm 0,0 UV-I 0 W/m 12,4 C 0,0 km/h (0 Bft)
03.09.2016 01:36 13,3 C 13,3 C 94 % 1019,3 hPa 0,0 mm 0,0 km/h (0 Bft) SO 130 0 min 0,000 mm 0,0 UV-I 0 W/m 12,4 C 0,0 km/h (0 Bft)
03.09.2016 01:37 13,3 C 13,3 C 94 % 1019,3 hPa 0,0 mm 0,0 km/h (0 Bft) SO 130 0 min 0,000 mm 0,0 UV-I 0 W/m 12,4 C 0,0 km/h (0 Bft)
03.09.2016 01:38 13,4 C 13,4 C 94 % 1019,2 hPa 0,0 mm 0,0 km/h (0 Bft) SO 130 0 min 0,000 mm 0,0 UV-I 0 W/m 12,5 C 0,0 km/h (0 Bft)
03.09.2016 01:39 13,3 C 13,4 C 94 % 1019,3 hPa 0,0 mm 0,0 km/h (0 Bft) SO 130 0 min 0,000 mm 0,0 UV-I 0 W/m 12,4 C 0,0 km/h (0 Bft)
03.09.2016 01:40 13,4 C 13,4 C 94 % 1019,3 hPa 0,0 mm 0,0 km/h (0 Bft) SO 130 0 min 0,000 mm 0,0 UV-I 0 W/m 12,5 C 0,0 km/h (0 Bft)
03.09.2016 01:41 13,3 C 13,4 C 94 % 1019,3 hPa 0,0 mm 0,0 km/h (0 Bft) SO 130 0 min 0,000 mm 0,0 UV-I 0 W/m 12,4 C 0,0 km/h (0 Bft)
03.09.2016 01:42 13,3 C 13,3 C 94 % 1019,3 hPa 0,0 mm 0,0 km/h (0 Bft) SO 130 0 min 0,000 mm 0,0 UV-I 0 W/m 12,4 C 0,0 km/h (0 Bft)
03.09.2016 01:43 13,3 C 13,3 C 94 % 1019,2 hPa 0,0 mm 0,0 km/h (0 Bft) SO 130 0 min 0,000 mm 0,0 UV-I 0 W/m 12,4 C 0,0 km/h (0 Bft)
03.09.2016 01:44 13,4 C 13,4 C 94 % 1019,2 hPa 0,0 mm 0,0 km/h (0 Bft) SO 130 0 min 0,000 mm 0,0 UV-I 0 W/m 12,5 C 0,0 km/h (0 Bft)
03.09.2016 01:45 13,3 C 13,4 C 93 % 1019,2 hPa 0,0 mm 0,0 km/h (0 Bft) SO 130 0 min 0,000 mm 0,0 UV-I 0 W/m 12,2 C 0,0 km/h (0 Bft)
03.09.2016 01:46 13,3 C 13,4 C 93 % 1019,2 hPa 0,0 mm 0,0 km/h (0 Bft) SO 130 0 min 0,000 mm 0,0 UV-I 0 W/m 12,2 C 0,0 km/h (0 Bft)
03.09.2016 01:47 13,3 C 13,3 C 93 % 1019,2 hPa 0,0 mm 0,0 km/h (0 Bft) SO 130 0 min 0,000 mm 0,0 UV-I 0 W/m 12,2 C 0,0 km/h (0 Bft)
03.09.2016 01:48 13,3 C 13,3 C 93 % 1019,2 hPa 0,0 mm 0,0 km/h (0 Bft) SO 130 0 min 0,000 mm 0,0 UV-I 0 W/m 12,2 C 0,0 km/h (0 Bft)
03.09.2016 01:49 13,3 C 13,3 C 93 % 1019,2 hPa 0,0 mm 0,0 km/h (0 Bft) SO 130 0 min 0,000 mm 0,0 UV-I 0 W/m 12,2 C 0,0 km/h (0 Bft)
03.09.2016 01:50 13,3 C 13,3 C 93 % 1019,2 hPa 0,0 mm 0,0 km/h (0 Bft) SO 130 0 min 0,000 mm 0,0 UV-I 0 W/m 12,2 C 0,0 km/h (0 Bft)
03.09.2016 01:51 13,2 C 13,3 C 93 % 1019,2 hPa 0,0 mm 0,0 km/h (0 Bft) SO 130 0 min 0,000 mm 0,0 UV-I 0 W/m 12,1 C 0,0 km/h (0 Bft)
03.09.2016 01:52 13,2 C 13,2 C 93 % 1019,2 hPa 0,0 mm 0,0 km/h (0 Bft) SO 130 0 min 0,000 mm 0,0 UV-I 0 W/m 12,1 C 0,0 km/h (0 Bft)
03.09.2016 01:53 13,2 C 13,2 C 94 % 1019,2 hPa 0,0 mm 0,0 km/h (0 Bft) SO 130 0 min 0,000 mm 0,0 UV-I 0 W/m 12,3 C 0,0 km/h (0 Bft)
03.09.2016 01:54 13,2 C 13,2 C 94 % 1019,2 hPa 0,0 mm 0,0 km/h (0 Bft) SO 130 0 min 0,000 mm 0,0 UV-I 0 W/m 12,3 C 0,0 km/h (0 Bft)
03.09.2016 01:55 13,2 C 13,2 C 93 % 1019,2 hPa 0,0 mm 0,0 km/h (0 Bft) SO 130 0 min 0,000 mm 0,0 UV-I 0 W/m 12,1 C 0,0 km/h (0 Bft)
03.09.2016 01:56 13,1 C 13,2 C 94 % 1019,1 hPa 0,0 mm 0,0 km/h (0 Bft) SO 130 0 min 0,000 mm 0,0 UV-I 0 W/m 12,2 C 0,0 km/h (0 Bft)
03.09.2016 01:57 13,1 C 13,2 C 94 % 1019,1 hPa 0,0 mm 0,0 km/h (0 Bft) SO 130 0 min 0,000 mm 0,0 UV-I 0 W/m 12,2 C 0,0 km/h (0 Bft)
03.09.2016 01:58 13,1 C 13,1 C 94 % 1019,1 hPa 0,0 mm 0,0 km/h (0 Bft) SO 130 0 min 0,000 mm 0,0 UV-I 0 W/m 12,2 C 0,0 km/h (0 Bft)
03.09.2016 01:59 13,1 C 13,1 C 94 % 1019,1 hPa 0,0 mm 0,0 km/h (0 Bft) SO 130 0 min 0,000 mm 0,0 UV-I 0 W/m 12,2 C 0,0 km/h (0 Bft)
03.09.2016 02:00 13,1 C 13,1 C 94 % 1019,2 hPa 0,0 mm 0,0 km/h (0 Bft) SO 130 0 min 0,000 mm 0,0 UV-I 0 W/m 12,2 C 0,0 km/h (0 Bft)
03.09.2016 02:01 13,1 C 13,1 C 94 % 1019,2 hPa 0,0 mm 0,0 km/h (0 Bft) SO 130 0 min 0,000 mm 0,0 UV-I 0 W/m 12,2 C 0,0 km/h (0 Bft)
03.09.2016 02:02 13,1 C 13,1 C 94 % 1019,1 hPa 0,0 mm 0,0 km/h (0 Bft) SO 130 0 min 0,000 mm 0,0 UV-I 0 W/m 12,2 C 0,0 km/h (0 Bft)
03.09.2016 02:03 13,2 C 13,2 C 95 % 1019,2 hPa 0,0 mm 0,0 km/h (0 Bft) SO 130 0 min 0,000 mm 0,0 UV-I 0 W/m 12,4 C 0,0 km/h (0 Bft)
03.09.2016 02:04 13,2 C 13,2 C 94 % 1019,2 hPa 0,0 mm 0,0 km/h (0 Bft) SO 130 0 min 0,000 mm 0,0 UV-I 0 W/m 12,3 C 0,0 km/h (0 Bft)
03.09.2016 02:05 13,2 C 13,2 C 94 % 1019,2 hPa 0,0 mm 0,0 km/h (0 Bft) SO 130 0 min 0,000 mm 0,0 UV-I 0 W/m 12,3 C 0,0 km/h (0 Bft)
03.09.2016 02:06 13,2 C 13,2 C 94 % 1019,2 hPa 0,0 mm 0,0 km/h (0 Bft) SO 130 0 min 0,000 mm 0,0 UV-I 0 W/m 12,3 C 0,0 km/h (0 Bft)
03.09.2016 02:07 13,2 C 13,2 C 94 % 1019,2 hPa 0,0 mm 0,0 km/h (0 Bft) SO 130 0 min 0,000 mm 0,0 UV-I 0 W/m 12,3 C 0,0 km/h (0 Bft)
03.09.2016 02:08 13,1 C 13,2 C 94 % 1019,2 hPa 0,0 mm 0,0 km/h (0 Bft) SO 130 0 min 0,000 mm 0,0 UV-I 0 W/m 12,2 C 0,0 km/h (0 Bft)
03.09.2016 02:09 13,2 C 13,2 C 94 % 1019,2 hPa 0,0 mm 0,0 km/h (0 Bft) SO 130 0 min 0,000 mm 0,0 UV-I 0 W/m 12,3 C 0,0 km/h (0 Bft)
03.09.2016 02:10 13,2 C 13,2 C 94 % 1019,2 hPa 0,0 mm 0,0 km/h (0 Bft) SO 130 0 min 0,000 mm 0,0 UV-I 0 W/m 12,3 C 0,0 km/h (0 Bft)
03.09.2016 02:11 13,2 C 13,2 C 94 % 1019,1 hPa 0,0 mm 0,0 km/h (0 Bft) SO 130 0 min 0,000 mm 0,0 UV-I 0 W/m 12,3 C 0,0 km/h (0 Bft)
03.09.2016 02:12 13,2 C 13,2 C 94 % 1019,1 hPa 0,0 mm 0,0 km/h (0 Bft) SO 130 0 min 0,000 mm 0,0 UV-I 0 W/m 12,3 C 0,0 km/h (0 Bft)
03.09.2016 02:13 13,2 C 13,2 C 94 % 1019,2 hPa 0,0 mm 0,0 km/h (0 Bft) SO 130 0 min 0,000 mm 0,0 UV-I 0 W/m 12,3 C 0,0 km/h (0 Bft)
03.09.2016 02:14 13,1 C 13,2 C 93 % 1019,2 hPa 0,0 mm 0,0 km/h (0 Bft) SO 130 0 min 0,000 mm 0,0 UV-I 0 W/m 12,0 C 0,0 km/h (0 Bft)
03.09.2016 02:15 13,1 C 13,2 C 93 % 1019,1 hPa 0,0 mm 0,0 km/h (0 Bft) SO 130 0 min 0,000 mm 0,0 UV-I 0 W/m 12,0 C 0,0 km/h (0 Bft)
03.09.2016 02:16 13,1 C 13,1 C 93 % 1019,2 hPa 0,0 mm 0,0 km/h (0 Bft) SO 130 0 min 0,000 mm 0,0 UV-I 0 W/m 12,0 C 0,0 km/h (0 Bft)
03.09.2016 02:17 13,0 C 13,1 C 93 % 1019,1 hPa 0,0 mm 0,0 km/h (0 Bft) SO 130 0 min 0,000 mm 0,0 UV-I 0 W/m 11,9 C 0,0 km/h (0 Bft)
03.09.2016 02:18 13,0 C 13,0 C 94 % 1019,1 hPa 0,0 mm 0,0 km/h (0 Bft) SO 130 0 min 0,000 mm 0,0 UV-I 0 W/m 12,1 C 0,0 km/h (0 Bft)
03.09.2016 02:19 12,9 C 13,0 C 94 % 1019,1 hPa 0,0 mm 0,0 km/h (0 Bft) SO 130 0 min 0,000 mm 0,0 UV-I 0 W/m 12,0 C 0,0 km/h (0 Bft)
03.09.2016 02:20 13,0 C 13,0 C 94 % 1019,1 hPa 0,0 mm 0,0 km/h (0 Bft) SO 130 0 min 0,000 mm 0,0 UV-I 0 W/m 12,1 C 0,0 km/h (0 Bft)
03.09.2016 02:21 12,9 C 13,0 C 94 % 1019,1 hPa 0,0 mm 0,0 km/h (0 Bft) SO 130 0 min 0,000 mm 0,0 UV-I 0 W/m 12,0 C 0,0 km/h (0 Bft)
03.09.2016 02:22 12,9 C 12,9 C 94 % 1019,1 hPa 0,0 mm 0,0 km/h (0 Bft) SO 130 0 min 0,000 mm 0,0 UV-I 0 W/m 12,0 C 0,0 km/h (0 Bft)
03.09.2016 02:23 12,9 C 12,9 C 94 % 1019,1 hPa 0,0 mm 0,0 km/h (0 Bft) SO 130 0 min 0,000 mm 0,0 UV-I 0 W/m 12,0 C 0,0 km/h (0 Bft)
03.09.2016 02:24 12,9 C 12,9 C 94 % 1019,1 hPa 0,0 mm 0,0 km/h (0 Bft) SO 130 0 min 0,000 mm 0,0 UV-I 0 W/m 12,0 C 0,0 km/h (0 Bft)
03.09.2016 02:25 12,9 C 12,9 C 94 % 1019,1 hPa 0,0 mm 0,0 km/h (0 Bft) SO 130 0 min 0,000 mm 0,0 UV-I 0 W/m 12,0 C 0,0 km/h (0 Bft)
03.09.2016 02:26 12,9 C 12,9 C 94 % 1019,1 hPa 0,0 mm 0,0 km/h (0 Bft) SO 130 0 min 0,000 mm 0,0 UV-I 0 W/m 12,0 C 0,0 km/h (0 Bft)
03.09.2016 02:27 12,9 C 12,9 C 94 % 1019,0 hPa 0,0 mm 0,0 km/h (0 Bft) SO 130 0 min 0,000 mm 0,0 UV-I 0 W/m 12,0 C 0,0 km/h (0 Bft)
03.09.2016 02:28 12,9 C 12,9 C 94 % 1019,1 hPa 0,0 mm 0,0 km/h (0 Bft) SO 130 0 min 0,000 mm 0,0 UV-I 0 W/m 12,0 C 0,0 km/h (0 Bft)
03.09.2016 02:29 12,9 C 12,9 C 94 % 1019,1 hPa 0,0 mm 0,0 km/h (0 Bft) SO 130 0 min 0,000 mm 0,0 UV-I 0 W/m 12,0 C 0,0 km/h (0 Bft)
03.09.2016 02:30 12,9 C 12,9 C 94 % 1019,1 hPa 0,0 mm 0,0 km/h (0 Bft) SO 130 0 min 0,000 mm 0,0 UV-I 0 W/m 12,0 C 0,0 km/h (0 Bft)
03.09.2016 02:31 12,8 C 12,9 C 94 % 1019,1 hPa 0,0 mm 0,0 km/h (0 Bft) SO 130 0 min 0,000 mm 0,0 UV-I 0 W/m 11,9 C 0,0 km/h (0 Bft)
03.09.2016 02:32 12,8 C 12,8 C 94 % 1019,1 hPa 0,0 mm 0,0 km/h (0 Bft) SO 130 0 min 0,000 mm 0,0 UV-I 0 W/m 11,9 C 0,0 km/h (0 Bft)
03.09.2016 02:33 12,8 C 12,8 C 94 % 1019,1 hPa 0,0 mm 0,0 km/h (0 Bft) SO 130 0 min 0,000 mm 0,0 UV-I 0 W/m 11,9 C 0,0 km/h (0 Bft)
03.09.2016 02:34 12,8 C 12,8 C 94 % 1019,1 hPa 0,0 mm 0,0 km/h (0 Bft) SO 130 0 min 0,000 mm 0,0 UV-I 0 W/m 11,9 C 0,0 km/h (0 Bft)
03.09.2016 02:35 12,8 C 12,8 C 94 % 1019,1 hPa 0,0 mm 0,0 km/h (0 Bft) SO 130 0 min 0,000 mm 0,0 UV-I 0 W/m 11,9 C 0,0 km/h (0 Bft)
03.09.2016 02:36 12,7 C 12,8 C 94 % 1019,1 hPa 0,0 mm 0,0 km/h (0 Bft) SO 130 0 min 0,000 mm 0,0 UV-I 0 W/m 11,8 C 0,0 km/h (0 Bft)
03.09.2016 02:37 12,7 C 12,7 C 94 % 1019,1 hPa 0,0 mm 0,0 km/h (0 Bft) SO 130 0 min 0,000 mm 0,0 UV-I 0 W/m 11,8 C 0,0 km/h (0 Bft)
03.09.2016 02:38 12,7 C 12,7 C 94 % 1019,1 hPa 0,0 mm 0,0 km/h (0 Bft) SO 130 0 min 0,000 mm 0,0 UV-I 0 W/m 11,8 C 0,0 km/h (0 Bft)
03.09.2016 02:39 12,6 C 12,7 C 94 % 1019,1 hPa 0,0 mm 0,0 km/h (0 Bft) SO 130 0 min 0,000 mm 0,0 UV-I 0 W/m 11,7 C 0,0 km/h (0 Bft)
03.09.2016 02:40 12,6 C 12,6 C 94 % 1019,1 hPa 0,0 mm 0,0 km/h (0 Bft) SO 130 0 min 0,000 mm 0,0 UV-I 0 W/m 11,7 C 0,0 km/h (0 Bft)
03.09.2016 02:41 12,6 C 12,6 C 94 % 1019,1 hPa 0,0 mm 0,0 km/h (0 Bft) SO 130 0 min 0,000 mm 0,0 UV-I 0 W/m 11,7 C 0,0 km/h (0 Bft)
03.09.2016 02:42 12,6 C 12,6 C 94 % 1019,1 hPa 0,0 mm 0,0 km/h (0 Bft) SO 130 0 min 0,000 mm 0,0 UV-I 0 W/m 11,7 C 0,0 km/h (0 Bft)
03.09.2016 02:43 12,6 C 12,6 C 94 % 1019,1 hPa 0,0 mm 0,0 km/h (0 Bft) SO 130 0 min 0,000 mm 0,0 UV-I 0 W/m 11,7 C 0,0 km/h (0 Bft)
03.09.2016 02:44 12,6 C 12,6 C 94 % 1019,1 hPa 0,0 mm 0,0 km/h (0 Bft) SO 130 0 min 0,000 mm 0,0 UV-I 0 W/m 11,7 C 0,0 km/h (0 Bft)
03.09.2016 02:45 12,6 C 12,6 C 94 % 1019,1 hPa 0,0 mm 0,0 km/h (0 Bft) SO 130 0 min 0,000 mm 0,0 UV-I 0 W/m 11,7 C 0,0 km/h (0 Bft)
03.09.2016 02:46 12,6 C 12,6 C 95 % 1019,1 hPa 0,0 mm 0,0 km/h (0 Bft) SO 130 0 min 0,000 mm 0,0 UV-I 0 W/m 11,8 C 0,0 km/h (0 Bft)
03.09.2016 02:47 12,6 C 12,6 C 95 % 1019,1 hPa 0,0 mm 0,0 km/h (0 Bft) SO 130 0 min 0,000 mm 0,0 UV-I 0 W/m 11,8 C 0,0 km/h (0 Bft)
03.09.2016 02:48 12,7 C 12,7 C 95 % 1019,0 hPa 0,0 mm 0,0 km/h (0 Bft) SO 130 0 min 0,000 mm 0,0 UV-I 0 W/m 11,9 C 0,0 km/h (0 Bft)
03.09.2016 02:49 12,6 C 12,7 C 95 % 1019,0 hPa 0,0 mm 0,0 km/h (0 Bft) SO 130 0 min 0,000 mm 0,0 UV-I 0 W/m 11,8 C 0,0 km/h (0 Bft)
03.09.2016 02:50 12,6 C 12,6 C 95 % 1019,0 hPa 0,0 mm 0,0 km/h (0 Bft) SO 130 0 min 0,000 mm 0,0 UV-I 0 W/m 11,8 C 0,0 km/h (0 Bft)
03.09.2016 02:51 12,7 C 12,7 C 95 % 1019,0 hPa 0,0 mm 0,0 km/h (0 Bft) SO 130 0 min 0,000 mm 0,0 UV-I 0 W/m 11,9 C 0,0 km/h (0 Bft)
03.09.2016 02:52 12,6 C 12,7 C 95 % 1019,0 hPa 0,0 mm 0,0 km/h (0 Bft) SO 130 0 min 0,000 mm 0,0 UV-I 0 W/m 11,8 C 0,0 km/h (0 Bft)
03.09.2016 02:53 12,7 C 12,7 C 95 % 1019,1 hPa 0,0 mm 0,0 km/h (0 Bft) SO 130 0 min 0,000 mm 0,0 UV-I 0 W/m 11,9 C 0,0 km/h (0 Bft)
03.09.2016 02:54 12,6 C 12,7 C 95 % 1019,0 hPa 0,0 mm 0,0 km/h (0 Bft) SO 130 0 min 0,000 mm 0,0 UV-I 0 W/m 11,8 C 0,0 km/h (0 Bft)
03.09.2016 02:55 12,6 C 12,7 C 94 % 1019,1 hPa 0,0 mm 0,0 km/h (0 Bft) SO 130 0 min 0,000 mm 0,0 UV-I 0 W/m 11,7 C 0,0 km/h (0 Bft)
03.09.2016 02:56 12,6 C 12,6 C 94 % 1019,1 hPa 0,0 mm 0,0 km/h (0 Bft) SO 130 0 min 0,000 mm 0,0 UV-I 0 W/m 11,7 C 0,0 km/h (0 Bft)
03.09.2016 02:57 12,7 C 12,7 C 94 % 1019,1 hPa 0,0 mm 0,0 km/h (0 Bft) SO 130 0 min 0,000 mm 0,0 UV-I 0 W/m 11,8 C 0,0 km/h (0 Bft)
03.09.2016 02:58 12,7 C 12,7 C 95 % 1019,1 hPa 0,0 mm 0,0 km/h (0 Bft) SO 130 0 min 0,000 mm 0,0 UV-I 0 W/m 11,9 C 0,0 km/h (0 Bft)
03.09.2016 02:59 12,6 C 12,7 C 94 % 1019,1 hPa 0,0 mm 0,0 km/h (0 Bft) SO 130 0 min 0,000 mm 0,0 UV-I 0 W/m 11,7 C 0,0 km/h (0 Bft)
03.09.2016 03:00 12,7 C 12,7 C 94 % 1019,1 hPa 0,0 mm 0,0 km/h (0 Bft) SO 130 0 min 0,000 mm 0,0 UV-I 0 W/m 11,8 C 0,0 km/h (0 Bft)
03.09.2016 03:01 12,7 C 12,7 C 95 % 1019,1 hPa 0,0 mm 0,0 km/h (0 Bft) SO 130 0 min 0,000 mm 0,0 UV-I 0 W/m 11,9 C 0,0 km/h (0 Bft)
03.09.2016 03:02 12,8 C 12,8 C 95 % 1019,1 hPa 0,0 mm 0,0 km/h (0 Bft) SO 130 0 min 0,000 mm 0,0 UV-I 0 W/m 12,0 C 0,0 km/h (0 Bft)
03.09.2016 03:03 12,7 C 12,8 C 95 % 1019,1 hPa 0,0 mm 0,0 km/h (0 Bft) SO 130 0 min 0,000 mm 0,0 UV-I 0 W/m 11,9 C 0,0 km/h (0 Bft)
03.09.2016 03:04 12,7 C 12,8 C 94 % 1019,1 hPa 0,0 mm 0,0 km/h (0 Bft) SO 130 0 min 0,000 mm 0,0 UV-I 0 W/m 11,8 C 0,0 km/h (0 Bft)
03.09.2016 03:05 12,8 C 12,8 C 94 % 1019,1 hPa 0,0 mm 0,0 km/h (0 Bft) SO 130 0 min 0,000 mm 0,0 UV-I 0 W/m 11,9 C 0,0 km/h (0 Bft)
03.09.2016 03:06 12,8 C 12,8 C 94 % 1019,1 hPa 0,0 mm 0,0 km/h (0 Bft) SO 130 0 min 0,000 mm 0,0 UV-I 0 W/m 11,9 C 0,0 km/h (0 Bft)
03.09.2016 03:07 12,8 C 12,8 C 94 % 1019,1 hPa 0,0 mm 0,0 km/h (0 Bft) SO 130 0 min 0,000 mm 0,0 UV-I 0 W/m 11,9 C 0,0 km/h (0 Bft)
03.09.2016 03:08 12,8 C 12,8 C 94 % 1019,1 hPa 0,0 mm 0,0 km/h (0 Bft) SO 130 0 min 0,000 mm 0,0 UV-I 0 W/m 11,9 C 0,0 km/h (0 Bft)
03.09.2016 03:09 12,8 C 12,8 C 93 % 1019,1 hPa 0,0 mm 0,0 km/h (0 Bft) SO 130 0 min 0,000 mm 0,0 UV-I 0 W/m 11,7 C 0,0 km/h (0 Bft)
03.09.2016 03:10 12,8 C 12,8 C 93 % 1019,1 hPa 0,0 mm 0,0 km/h (0 Bft) SO 130 0 min 0,000 mm 0,0 UV-I 0 W/m 11,7 C 0,0 km/h (0 Bft)
03.09.2016 03:11 12,8 C 12,8 C 93 % 1019,1 hPa 0,0 mm 0,0 km/h (0 Bft) SO 130 0 min 0,000 mm 0,0 UV-I 0 W/m 11,7 C 0,0 km/h (0 Bft)
03.09.2016 03:12 12,8 C 12,8 C 94 % 1019,1 hPa 0,0 mm 0,0 km/h (0 Bft) SO 130 0 min 0,000 mm 0,0 UV-I 0 W/m 11,9 C 0,0 km/h (0 Bft)
03.09.2016 03:13 12,8 C 12,8 C 94 % 1019,1 hPa 0,0 mm 0,0 km/h (0 Bft) SO 130 0 min 0,000 mm 0,0 UV-I 0 W/m 11,9 C 0,0 km/h (0 Bft)
03.09.2016 03:14 12,7 C 12,8 C 94 % 1019,1 hPa 0,0 mm 0,0 km/h (0 Bft) SO 130 0 min 0,000 mm 0,0 UV-I 0 W/m 11,8 C 0,0 km/h (0 Bft)
03.09.2016 03:15 12,7 C 12,7 C 94 % 1019,1 hPa 0,0 mm 0,0 km/h (0 Bft) SO 130 0 min 0,000 mm 0,0 UV-I 0 W/m 11,8 C 0,0 km/h (0 Bft)
03.09.2016 03:16 12,8 C 12,8 C 94 % 1019,1 hPa 0,0 mm 0,0 km/h (0 Bft) SO 130 0 min 0,000 mm 0,0 UV-I 0 W/m 11,9 C 0,0 km/h (0 Bft)
03.09.2016 03:17 12,8 C 12,8 C 94 % 1019,1 hPa 0,0 mm 0,0 km/h (0 Bft) SO 130 0 min 0,000 mm 0,0 UV-I 0 W/m 11,9 C 0,0 km/h (0 Bft)
03.09.2016 03:18 12,9 C 12,9 C 94 % 1019,1 hPa 0,0 mm 0,0 km/h (0 Bft) SO 130 0 min 0,000 mm 0,0 UV-I 0 W/m 12,0 C 0,0 km/h (0 Bft)
03.09.2016 03:19 12,8 C 12,9 C 94 % 1019,1 hPa 0,0 mm 0,0 km/h (0 Bft) SO 130 0 min 0,000 mm 0,0 UV-I 0 W/m 11,9 C 0,0 km/h (0 Bft)
03.09.2016 03:20 12,8 C 12,9 C 94 % 1019,1 hPa 0,0 mm 0,0 km/h (0 Bft) SO 130 0 min 0,000 mm 0,0 UV-I 0 W/m 11,9 C 0,0 km/h (0 Bft)
03.09.2016 03:21 12,8 C 12,9 C 93 % 1019,1 hPa 0,0 mm 0,0 km/h (0 Bft) SO 130 0 min 0,000 mm 0,0 UV-I 0 W/m 11,7 C 0,0 km/h (0 Bft)
03.09.2016 03:22 12,8 C 12,8 C 93 % 1019,1 hPa 0,0 mm 0,0 km/h (0 Bft) SO 130 0 min 0,000 mm 0,0 UV-I 0 W/m 11,7 C 0,0 km/h (0 Bft)
03.09.2016 03:23 12,8 C 12,8 C 93 % 1019,1 hPa 0,0 mm 0,0 km/h (0 Bft) SO 130 0 min 0,000 mm 0,0 UV-I 0 W/m 11,7 C 0,0 km/h (0 Bft)
03.09.2016 03:24 12,8 C 12,8 C 93 % 1019,1 hPa 0,0 mm 0,0 km/h (0 Bft) SO 130 0 min 0,000 mm 0,0 UV-I 0 W/m 11,7 C 0,0 km/h (0 Bft)
03.09.2016 03:25 12,8 C 12,8 C 93 % 1019,1 hPa 0,0 mm 0,0 km/h (0 Bft) SO 130 0 min 0,000 mm 0,0 UV-I 0 W/m 11,7 C 0,0 km/h (0 Bft)
03.09.2016 03:26 12,7 C 12,8 C 93 % 1019,1 hPa 0,0 mm 0,0 km/h (0 Bft) SO 130 0 min 0,000 mm 0,0 UV-I 0 W/m 11,6 C 0,0 km/h (0 Bft)
03.09.2016 03:27 12,7 C 12,7 C 94 % 1019,1 hPa 0,0 mm 0,0 km/h (0 Bft) SO 130 0 min 0,000 mm 0,0 UV-I 0 W/m 11,8 C 0,0 km/h (0 Bft)
03.09.2016 03:28 12,7 C 12,7 C 94 % 1019,1 hPa 0,0 mm 0,0 km/h (0 Bft) SO 130 0 min 0,000 mm 0,0 UV-I 0 W/m 11,8 C 0,0 km/h (0 Bft)
03.09.2016 03:29 12,7 C 12,7 C 93 % 1019,1 hPa 0,0 mm 0,0 km/h (0 Bft) SO 130 0 min 0,000 mm 0,0 UV-I 0 W/m 11,6 C 0,0 km/h (0 Bft)
03.09.2016 03:30 12,7 C 12,7 C 94 % 1019,1 hPa 0,0 mm 0,0 km/h (0 Bft) SO 130 0 min 0,000 mm 0,0 UV-I 0 W/m 11,8 C 0,0 km/h (0 Bft)
03.09.2016 03:31 12,7 C 12,7 C 94 % 1019,1 hPa 0,0 mm 0,0 km/h (0 Bft) SO 130 0 min 0,000 mm 0,0 UV-I 0 W/m 11,8 C 0,0 km/h (0 Bft)
03.09.2016 03:32 12,7 C 12,7 C 94 % 1019,1 hPa 0,0 mm 0,0 km/h (0 Bft) SO 130 0 min 0,000 mm 0,0 UV-I 0 W/m 11,8 C 0,0 km/h (0 Bft)
03.09.2016 03:33 12,6 C 12,7 C 94 % 1019,1 hPa 0,0 mm 0,0 km/h (0 Bft) SO 130 0 min 0,000 mm 0,0 UV-I 0 W/m 11,7 C 0,0 km/h (0 Bft)
03.09.2016 03:34 12,6 C 12,6 C 93 % 1019,1 hPa 0,0 mm 0,0 km/h (0 Bft) SO 130 0 min 0,000 mm 0,0 UV-I 0 W/m 11,5 C 0,0 km/h (0 Bft)
03.09.2016 03:35 12,6 C 12,6 C 94 % 1019,1 hPa 0,0 mm 0,0 km/h (0 Bft) SO 130 0 min 0,000 mm 0,0 UV-I 0 W/m 11,7 C 0,0 km/h (0 Bft)
03.09.2016 03:36 12,6 C 12,6 C 94 % 1019,1 hPa 0,0 mm 0,0 km/h (0 Bft) SO 130 0 min 0,000 mm 0,0 UV-I 0 W/m 11,7 C 0,0 km/h (0 Bft)
03.09.2016 03:37 12,6 C 12,6 C 94 % 1019,1 hPa 0,0 mm 0,0 km/h (0 Bft) SO 130 0 min 0,000 mm 0,0 UV-I 0 W/m 11,7 C 0,0 km/h (0 Bft)
03.09.2016 03:38 12,6 C 12,7 C 94 % 1019,2 hPa 0,0 mm 0,0 km/h (0 Bft) SO 130 0 min 0,000 mm 0,0 UV-I 0 W/m 11,7 C 0,0 km/h (0 Bft)
03.09.2016 03:39 12,6 C 12,6 C 94 % 1019,2 hPa 0,0 mm 0,0 km/h (0 Bft) SO 130 0 min 0,000 mm 0,0 UV-I 0 W/m 11,7 C 0,0 km/h (0 Bft)
03.09.2016 03:40 12,6 C 12,6 C 94 % 1019,1 hPa 0,0 mm 0,0 km/h (0 Bft) SO 130 0 min 0,000 mm 0,0 UV-I 0 W/m 11,7 C 0,0 km/h (0 Bft)
03.09.2016 03:41 12,6 C 12,6 C 94 % 1019,1 hPa 0,0 mm 0,0 km/h (0 Bft) SO 130 0 min 0,000 mm 0,0 UV-I 0 W/m 11,7 C 0,0 km/h (0 Bft)
03.09.2016 03:42 12,6 C 12,6 C 94 % 1019,1 hPa 0,0 mm 0,0 km/h (0 Bft) SO 130 0 min 0,000 mm 0,0 UV-I 0 W/m 11,7 C 0,0 km/h (0 Bft)
03.09.2016 03:43 12,6 C 12,6 C 94 % 1019,0 hPa 0,0 mm 0,0 km/h (0 Bft) SO 130 0 min 0,000 mm 0,0 UV-I 0 W/m 11,7 C 0,0 km/h (0 Bft)
03.09.2016 03:44 12,6 C 12,6 C 94 % 1019,0 hPa 0,0 mm 0,0 km/h (0 Bft) SO 130 0 min 0,000 mm 0,0 UV-I 0 W/m 11,7 C 0,0 km/h (0 Bft)
03.09.2016 03:45 12,6 C 12,6 C 94 % 1019,0 hPa 0,0 mm 0,0 km/h (0 Bft) SO 130 0 min 0,000 mm 0,0 UV-I 0 W/m 11,7 C 0,0 km/h (0 Bft)
03.09.2016 03:46 12,7 C 12,7 C 94 % 1019,0 hPa 0,0 mm 0,0 km/h (0 Bft) SO 130 0 min 0,000 mm 0,0 UV-I 0 W/m 11,8 C 0,0 km/h (0 Bft)
03.09.2016 03:47 12,7 C 12,7 C 94 % 1019,0 hPa 0,0 mm 0,0 km/h (0 Bft) SO 130 0 min 0,000 mm 0,0 UV-I 0 W/m 11,8 C 0,0 km/h (0 Bft)
03.09.2016 03:48 12,6 C 12,7 C 93 % 1019,0 hPa 0,0 mm 0,0 km/h (0 Bft) SO 130 0 min 0,000 mm 0,0 UV-I 0 W/m 11,5 C 0,0 km/h (0 Bft)
03.09.2016 03:49 12,6 C 12,6 C 92 % 1019,0 hPa 0,0 mm 0,0 km/h (0 Bft) SO 130 0 min 0,000 mm 0,0 UV-I 0 W/m 11,3 C 0,0 km/h (0 Bft)
03.09.2016 03:50 12,6 C 12,6 C 93 % 1019,1 hPa 0,0 mm 0,0 km/h (0 Bft) SO 130 0 min 0,000 mm 0,0 UV-I 0 W/m 11,5 C 0,0 km/h (0 Bft)
03.09.2016 03:51 12,5 C 12,6 C 93 % 1019,1 hPa 0,0 mm 0,0 km/h (0 Bft) SO 130 0 min 0,000 mm 0,0 UV-I 0 W/m 11,4 C 0,0 km/h (0 Bft)
03.09.2016 03:52 12,5 C 12,5 C 93 % 1019,1 hPa 0,0 mm 0,0 km/h (0 Bft) SO 130 0 min 0,000 mm 0,0 UV-I 0 W/m 11,4 C 0,0 km/h (0 Bft)
03.09.2016 03:53 12,4 C 12,5 C 93 % 1019,1 hPa 0,0 mm 0,0 km/h (0 Bft) SO 130 0 min 0,000 mm 0,0 UV-I 0 W/m 11,3 C 0,0 km/h (0 Bft)
03.09.2016 03:54 12,4 C 12,4 C 93 % 1019,1 hPa 0,0 mm 0,0 km/h (0 Bft) SO 130 0 min 0,000 mm 0,0 UV-I 0 W/m 11,3 C 0,0 km/h (0 Bft)
03.09.2016 03:55 12,4 C 12,4 C 93 % 1019,2 hPa 0,0 mm 0,0 km/h (0 Bft) SO 130 0 min 0,000 mm 0,0 UV-I 0 W/m 11,3 C 0,0 km/h (0 Bft)
03.09.2016 03:56 12,4 C 12,4 C 93 % 1019,2 hPa 0,0 mm 0,0 km/h (0 Bft) SO 130 0 min 0,000 mm 0,0 UV-I 0 W/m 11,3 C 0,0 km/h (0 Bft)
03.09.2016 03:57 12,4 C 12,4 C 93 % 1019,1 hPa 0,0 mm 0,0 km/h (0 Bft) SO 131 0 min 0,000 mm 0,0 UV-I 0 W/m 11,3 C 0,0 km/h (0 Bft)
03.09.2016 03:58 12,5 C 12,5 C 93 % 1019,1 hPa 0,0 mm 0,0 km/h (0 Bft) SO 131 0 min 0,000 mm 0,0 UV-I 0 W/m 11,4 C 0,0 km/h (0 Bft)
03.09.2016 03:59 12,6 C 12,6 C 93 % 1019,1 hPa 0,0 mm 0,0 km/h (0 Bft) SO 131 0 min 0,000 mm 0,0 UV-I 0 W/m 11,5 C 0,0 km/h (0 Bft)
03.09.2016 04:00 12,7 C 12,7 C 93 % 1019,1 hPa 0,0 mm 0,0 km/h (0 Bft) SO 130 0 min 0,000 mm 0,0 UV-I 0 W/m 11,6 C 0,0 km/h (0 Bft)
03.09.2016 04:01 12,6 C 12,7 C 93 % 1019,1 hPa 0,0 mm 0,0 km/h (0 Bft) SO 130 0 min 0,000 mm 0,0 UV-I 0 W/m 11,5 C 0,0 km/h (0 Bft)
03.09.2016 04:02 12,6 C 12,7 C 93 % 1019,1 hPa 0,0 mm 0,0 km/h (0 Bft) SO 130 0 min 0,000 mm 0,0 UV-I 0 W/m 11,5 C 0,0 km/h (0 Bft)
03.09.2016 04:03 12,7 C 12,7 C 93 % 1019,1 hPa 0,0 mm 0,0 km/h (0 Bft) SO 130 0 min 0,000 mm 0,0 UV-I 0 W/m 11,6 C 0,0 km/h (0 Bft)
03.09.2016 04:04 12,6 C 12,7 C 93 % 1019,1 hPa 0,0 mm 0,0 km/h (0 Bft) SO 130 0 min 0,000 mm 0,0 UV-I 0 W/m 11,5 C 0,0 km/h (0 Bft)
03.09.2016 04:05 12,7 C 12,7 C 93 % 1019,1 hPa 0,0 mm 0,0 km/h (0 Bft) SO 130 0 min 0,000 mm 0,0 UV-I 0 W/m 11,6 C 0,0 km/h (0 Bft)
03.09.2016 04:06 12,7 C 12,7 C 93 % 1019,1 hPa 0,0 mm 0,0 km/h (0 Bft) SO 130 0 min 0,000 mm 0,0 UV-I 0 W/m 11,6 C 0,0 km/h (0 Bft)
03.09.2016 04:07 12,7 C 12,7 C 93 % 1019,0 hPa 0,0 mm 0,0 km/h (0 Bft) SO 130 0 min 0,000 mm 0,0 UV-I 0 W/m 11,6 C 0,0 km/h (0 Bft)
03.09.2016 04:08 12,7 C 12,7 C 93 % 1019,1 hPa 0,0 mm 0,0 km/h (0 Bft) SO 130 0 min 0,000 mm 0,0 UV-I 0 W/m 11,6 C 0,0 km/h (0 Bft)
03.09.2016 04:09 12,7 C 12,7 C 93 % 1019,0 hPa 0,0 mm 0,0 km/h (0 Bft) SO 130 0 min 0,000 mm 0,0 UV-I 0 W/m 11,6 C 0,0 km/h (0 Bft)
03.09.2016 04:10 12,7 C 12,7 C 93 % 1019,0 hPa 0,0 mm 0,0 km/h (0 Bft) SO 130 0 min 0,000 mm 0,0 UV-I 0 W/m 11,6 C 0,0 km/h (0 Bft)
03.09.2016 04:11 12,7 C 12,7 C 93 % 1019,0 hPa 0,0 mm 0,0 km/h (0 Bft) SO 130 0 min 0,000 mm 0,0 UV-I 0 W/m 11,6 C 0,0 km/h (0 Bft)
03.09.2016 04:12 12,7 C 12,7 C 92 % 1019,0 hPa 0,0 mm 0,0 km/h (0 Bft) SO 130 0 min 0,000 mm 0,0 UV-I 0 W/m 11,4 C 0,0 km/h (0 Bft)
03.09.2016 04:13 12,7 C 12,7 C 92 % 1018,9 hPa 0,0 mm 0,0 km/h (0 Bft) SO 130 0 min 0,000 mm 0,0 UV-I 0 W/m 11,4 C 0,0 km/h (0 Bft)
03.09.2016 04:14 12,7 C 12,7 C 92 % 1019,0 hPa 0,0 mm 0,0 km/h (0 Bft) SO 130 0 min 0,000 mm 0,0 UV-I 0 W/m 11,4 C 0,0 km/h (0 Bft)
03.09.2016 04:15 12,7 C 12,7 C 93 % 1019,0 hPa 0,0 mm 0,0 km/h (0 Bft) SO 130 0 min 0,000 mm 0,0 UV-I 0 W/m 11,6 C 0,0 km/h (0 Bft)
03.09.2016 04:16 12,8 C 12,8 C 92 % 1019,0 hPa 0,0 mm 0,0 km/h (0 Bft) SO 130 0 min 0,000 mm 0,0 UV-I 0 W/m 11,5 C 0,0 km/h (0 Bft)
03.09.2016 04:17 12,8 C 12,8 C 92 % 1019,0 hPa 0,0 mm 0,0 km/h (0 Bft) SO 130 0 min 0,000 mm 0,0 UV-I 0 W/m 11,5 C 0,0 km/h (0 Bft)
03.09.2016 04:18 12,8 C 12,8 C 91 % 1018,9 hPa 0,0 mm 0,0 km/h (0 Bft) SO 130 0 min 0,000 mm 0,0 UV-I 0 W/m 11,4 C 0,0 km/h (0 Bft)
03.09.2016 04:19 12,8 C 12,8 C 92 % 1018,9 hPa 0,0 mm 0,0 km/h (0 Bft) SO 130 0 min 0,000 mm 0,0 UV-I 0 W/m 11,5 C 0,0 km/h (0 Bft)
03.09.2016 04:20 12,8 C 12,8 C 92 % 1019,0 hPa 0,0 mm 0,0 km/h (0 Bft) SO 130 0 min 0,000 mm 0,0 UV-I 0 W/m 11,5 C 0,0 km/h (0 Bft)
03.09.2016 04:21 12,8 C 12,8 C 92 % 1019,0 hPa 0,0 mm 0,0 km/h (0 Bft) SO 130 0 min 0,000 mm 0,0 UV-I 0 W/m 11,5 C 0,0 km/h (0 Bft)
03.09.2016 04:22 12,8 C 12,8 C 92 % 1018,9 hPa 0,0 mm 0,0 km/h (0 Bft) SO 130 0 min 0,000 mm 0,0 UV-I 0 W/m 11,5 C 0,0 km/h (0 Bft)
03.09.2016 04:23 12,8 C 12,8 C 91 % 1018,9 hPa 0,0 mm 0,0 km/h (0 Bft) SO 130 0 min 0,000 mm 0,0 UV-I 0 W/m 11,4 C 0,0 km/h (0 Bft)
03.09.2016 04:24 12,9 C 12,9 C 92 % 1018,9 hPa 0,0 mm 0,1 km/h (0 Bft) SO 130 0 min 0,000 mm 0,0 UV-I 0 W/m 11,6 C 1,6 km/h (1 Bft)
03.09.2016 04:25 12,9 C 12,9 C 92 % 1019,0 hPa 0,0 mm 0,0 km/h (0 Bft) SO 130 0 min 0,000 mm 0,0 UV-I 0 W/m 11,6 C 0,0 km/h (0 Bft)
03.09.2016 04:26 12,9 C 12,9 C 92 % 1018,9 hPa 0,0 mm 0,0 km/h (0 Bft) SO 130 0 min 0,000 mm 0,0 UV-I 0 W/m 11,6 C 0,0 km/h (0 Bft)
03.09.2016 04:27 13,0 C 13,0 C 91 % 1018,9 hPa 0,0 mm 0,0 km/h (0 Bft) SO 130 0 min 0,000 mm 0,0 UV-I 0 W/m 11,6 C 0,0 km/h (0 Bft)
03.09.2016 04:28 12,9 C 13,0 C 91 % 1018,9 hPa 0,0 mm 0,4 km/h (0 Bft) W-NW 296 0 min 0,000 mm 0,0 UV-I 0 W/m 11,5 C 1,6 km/h (1 Bft)
03.09.2016 04:29 13,0 C 13,0 C 91 % 1018,9 hPa 0,0 mm 1,2 km/h (1 Bft) W-NW 301 0 min 0,000 mm 0,0 UV-I 0 W/m 11,6 C 3,2 km/h (1 Bft)
03.09.2016 04:30 13,0 C 13,0 C 91 % 1018,9 hPa 0,0 mm 0,7 km/h (0 Bft) W-NW 301 0 min 0,000 mm 0,0 UV-I 0 W/m 11,6 C 1,6 km/h (1 Bft)
03.09.2016 04:31 13,0 C 13,0 C 91 % 1019,0 hPa 0,0 mm 0,6 km/h (0 Bft) W-NW 301 0 min 0,000 mm 0,0 UV-I 0 W/m 11,6 C 1,6 km/h (1 Bft)
03.09.2016 04:32 13,0 C 13,1 C 91 % 1019,0 hPa 0,0 mm 1,3 km/h (1 Bft) W-NW 301 0 min 0,000 mm 0,0 UV-I 0 W/m 11,6 C 1,6 km/h (1 Bft)
03.09.2016 04:33 13,0 C 13,0 C 91 % 1018,9 hPa 0,0 mm 0,7 km/h (0 Bft) W-NW 301 0 min 0,000 mm 0,0 UV-I 0 W/m 11,6 C 1,6 km/h (1 Bft)
03.09.2016 04:34 13,0 C 13,0 C 91 % 1019,0 hPa 0,0 mm 0,9 km/h (0 Bft) W-NW 301 0 min 0,000 mm 0,0 UV-I 0 W/m 11,6 C 3,2 km/h (1 Bft)
03.09.2016 04:35 13,1 C 13,1 C 91 % 1018,9 hPa 0,0 mm 0,3 km/h (0 Bft) W-NW 300 0 min 0,000 mm 0,0 UV-I 0 W/m 11,7 C 1,6 km/h (1 Bft)
03.09.2016 04:36 13,1 C 13,1 C 91 % 1019,0 hPa 0,0 mm 0,2 km/h (0 Bft) W-NW 300 0 min 0,000 mm 0,0 UV-I 0 W/m 11,7 C 1,6 km/h (1 Bft)
03.09.2016 04:37 13,1 C 13,1 C 91 % 1019,0 hPa 0,0 mm 0,0 km/h (0 Bft) W-NW 300 0 min 0,000 mm 0,0 UV-I 0 W/m 11,7 C 0,0 km/h (0 Bft)
03.09.2016 04:38 13,1 C 13,1 C 91 % 1019,0 hPa 0,0 mm 0,2 km/h (0 Bft) W-NW 300 0 min 0,000 mm 0,0 UV-I 0 W/m 11,7 C 1,6 km/h (1 Bft)
03.09.2016 04:39 13,1 C 13,1 C 90 % 1019,0 hPa 0,0 mm 0,1 km/h (0 Bft) W-NW 300 0 min 0,000 mm 0,0 UV-I 0 W/m 11,5 C 1,6 km/h (1 Bft)
03.09.2016 04:40 13,1 C 13,1 C 90 % 1018,9 hPa 0,0 mm 0,1 km/h (0 Bft) W-NW 300 0 min 0,000 mm 0,0 UV-I 0 W/m 11,5 C 1,6 km/h (1 Bft)
03.09.2016 04:41 13,1 C 13,1 C 90 % 1018,9 hPa 0,0 mm 0,1 km/h (0 Bft) W-NW 300 0 min 0,000 mm 0,0 UV-I 0 W/m 11,5 C 1,6 km/h (1 Bft)
03.09.2016 04:42 13,1 C 13,1 C 90 % 1019,0 hPa 0,0 mm 0,5 km/h (0 Bft) W-NW 300 0 min 0,000 mm 0,0 UV-I 0 W/m 11,5 C 1,6 km/h (1 Bft)
03.09.2016 04:43 13,1 C 13,1 C 90 % 1018,8 hPa 0,0 mm 0,9 km/h (0 Bft) W-NW 300 0 min 0,000 mm 0,0 UV-I 0 W/m 11,5 C 3,2 km/h (1 Bft)
03.09.2016 04:44 13,1 C 13,1 C 90 % 1018,9 hPa 0,0 mm 0,5 km/h (0 Bft) W-NW 300 0 min 0,000 mm 0,0 UV-I 0 W/m 11,5 C 1,6 km/h (1 Bft)
03.09.2016 04:45 13,1 C 13,1 C 90 % 1018,9 hPa 0,0 mm 0,0 km/h (0 Bft) W-NW 300 0 min 0,000 mm 0,0 UV-I 0 W/m 11,5 C 0,0 km/h (0 Bft)
03.09.2016 04:46 13,1 C 13,1 C 90 % 1018,9 hPa 0,0 mm 0,6 km/h (0 Bft) W-NW 300 0 min 0,000 mm 0,0 UV-I 0 W/m 11,5 C 1,6 km/h (1 Bft)
03.09.2016 04:47 13,1 C 13,1 C 90 % 1018,9 hPa 0,0 mm 0,0 km/h (0 Bft) W-NW 300 0 min 0,000 mm 0,0 UV-I 0 W/m 11,5 C 0,0 km/h (0 Bft)
03.09.2016 04:48 13,1 C 13,1 C 91 % 1018,8 hPa 0,0 mm 0,0 km/h (0 Bft) W-NW 300 0 min 0,000 mm 0,0 UV-I 0 W/m 11,7 C 0,0 km/h (0 Bft)
03.09.2016 04:49 13,1 C 13,1 C 90 % 1018,8 hPa 0,0 mm 0,6 km/h (0 Bft) N-NW 339 0 min 0,000 mm 0,0 UV-I 0 W/m 11,5 C 3,2 km/h (1 Bft)
03.09.2016 04:50 13,1 C 13,1 C 90 % 1018,8 hPa 0,0 mm 0,0 km/h (0 Bft) N-NW 339 0 min 0,000 mm 0,0 UV-I 0 W/m 11,5 C 0,0 km/h (0 Bft)
03.09.2016 04:51 13,1 C 13,1 C 90 % 1018,8 hPa 0,0 mm 0,0 km/h (0 Bft) N-NW 339 0 min 0,000 mm 0,0 UV-I 0 W/m 11,5 C 0,0 km/h (0 Bft)
03.09.2016 04:52 13,1 C 13,1 C 90 % 1018,8 hPa 0,0 mm 0,3 km/h (0 Bft) N-NW 336 0 min 0,000 mm 0,0 UV-I 0 W/m 11,5 C 3,2 km/h (1 Bft)
03.09.2016 04:53 13,1 C 13,1 C 90 % 1018,8 hPa 0,0 mm 1,5 km/h (1 Bft) N-NW 336 0 min 0,000 mm 0,0 UV-I 0 W/m 11,5 C 3,2 km/h (1 Bft)
03.09.2016 04:54 13,0 C 13,1 C 89 % 1018,8 hPa 0,0 mm 0,2 km/h (0 Bft) N-NW 336 0 min 0,000 mm 0,0 UV-I 0 W/m 11,2 C 1,6 km/h (1 Bft)
03.09.2016 04:55 13,1 C 13,1 C 90 % 1018,7 hPa 0,0 mm 0,2 km/h (0 Bft) N-NW 336 0 min 0,000 mm 0,0 UV-I 0 W/m 11,5 C 1,6 km/h (1 Bft)
03.09.2016 04:56 13,1 C 13,1 C 90 % 1018,7 hPa 0,0 mm 0,1 km/h (0 Bft) N-NW 336 0 min 0,000 mm 0,0 UV-I 0 W/m 11,5 C 1,6 km/h (1 Bft)
03.09.2016 04:57 13,1 C 13,1 C 90 % 1018,7 hPa 0,0 mm 0,6 km/h (0 Bft) N-NW 336 0 min 0,000 mm 0,0 UV-I 0 W/m 11,5 C 3,2 km/h (1 Bft)
03.09.2016 04:58 13,1 C 13,1 C 90 % 1018,7 hPa 0,0 mm 0,1 km/h (0 Bft) N-NW 336 0 min 0,000 mm 0,0 UV-I 0 W/m 11,5 C 1,6 km/h (1 Bft)
03.09.2016 04:59 13,1 C 13,1 C 89 % 1018,7 hPa 0,0 mm 0,1 km/h (0 Bft) N-NW 336 0 min 0,000 mm 0,0 UV-I 0 W/m 11,3 C 1,6 km/h (1 Bft)
03.09.2016 05:00 13,1 C 13,1 C 90 % 1018,7 hPa 0,0 mm 0,0 km/h (0 Bft) N-NW 336 0 min 0,000 mm 0,0 UV-I 0 W/m 11,5 C 0,0 km/h (0 Bft)
03.09.2016 05:01 13,1 C 13,1 C 89 % 1018,7 hPa 0,0 mm 0,9 km/h (0 Bft) NW 325 0 min 0,000 mm 0,0 UV-I 0 W/m 11,3 C 1,6 km/h (1 Bft)
03.09.2016 05:02 13,0 C 13,1 C 89 % 1018,7 hPa 0,0 mm 1,8 km/h (1 Bft) W-NW 290 0 min 0,000 mm 0,0 UV-I 0 W/m 11,2 C 3,2 km/h (1 Bft)
03.09.2016 05:03 13,0 C 13,0 C 89 % 1018,8 hPa 0,0 mm 0,3 km/h (0 Bft) W-NW 290 0 min 0,000 mm 0,0 UV-I 0 W/m 11,2 C 1,6 km/h (1 Bft)
03.09.2016 05:04 13,0 C 13,1 C 89 % 1018,7 hPa 0,0 mm 0,1 km/h (0 Bft) W-NW 290 0 min 0,000 mm 0,0 UV-I 0 W/m 11,2 C 1,6 km/h (1 Bft)
03.09.2016 05:05 13,0 C 13,0 C 89 % 1018,7 hPa 0,0 mm 0,0 km/h (0 Bft) W-NW 290 0 min 0,000 mm 0,0 UV-I 0 W/m 11,2 C 0,0 km/h (0 Bft)
03.09.2016 05:06 12,9 C 13,0 C 89 % 1018,7 hPa 0,0 mm 0,0 km/h (0 Bft) W-NW 290 0 min 0,000 mm 0,0 UV-I 0 W/m 11,1 C 0,0 km/h (0 Bft)
03.09.2016 05:07 13,0 C 13,0 C 89 % 1018,7 hPa 0,0 mm 0,0 km/h (0 Bft) W-NW 290 0 min 0,000 mm 0,0 UV-I 0 W/m 11,2 C 0,0 km/h (0 Bft)
03.09.2016 05:08 13,1 C 13,1 C 89 % 1018,7 hPa 0,0 mm 0,0 km/h (0 Bft) W-NW 290 0 min 0,000 mm 0,0 UV-I 0 W/m 11,3 C 0,0 km/h (0 Bft)
03.09.2016 05:09 13,0 C 13,1 C 90 % 1018,7 hPa 0,0 mm 0,0 km/h (0 Bft) W-NW 290 0 min 0,000 mm 0,0 UV-I 0 W/m 11,4 C 0,0 km/h (0 Bft)
03.09.2016 05:10 13,1 C 13,1 C 89 % 1018,7 hPa 0,0 mm 0,0 km/h (0 Bft) W-NW 290 0 min 0,000 mm 0,0 UV-I 0 W/m 11,3 C 0,0 km/h (0 Bft)
03.09.2016 05:11 13,1 C 13,1 C 89 % 1018,7 hPa 0,0 mm 0,0 km/h (0 Bft) W-NW 290 0 min 0,000 mm 0,0 UV-I 0 W/m 11,3 C 0,0 km/h (0 Bft)
03.09.2016 05:12 13,0 C 13,1 C 89 % 1018,7 hPa 0,0 mm 0,0 km/h (0 Bft) W-NW 290 0 min 0,000 mm 0,0 UV-I 0 W/m 11,2 C 0,0 km/h (0 Bft)
03.09.2016 05:13 13,0 C 13,1 C 89 % 1018,7 hPa 0,0 mm 0,0 km/h (0 Bft) W-NW 290 0 min 0,000 mm 0,0 UV-I 0 W/m 11,2 C 0,0 km/h (0 Bft)
03.09.2016 05:14 13,0 C 13,0 C 89 % 1018,7 hPa 0,0 mm 0,0 km/h (0 Bft) W-NW 290 0 min 0,000 mm 0,0 UV-I 0 W/m 11,2 C 0,0 km/h (0 Bft)
03.09.2016 05:15 12,9 C 13,0 C 89 % 1018,7 hPa 0,0 mm 0,0 km/h (0 Bft) W-NW 290 0 min 0,000 mm 0,0 UV-I 0 W/m 11,1 C 0,0 km/h (0 Bft)
03.09.2016 05:16 12,9 C 13,0 C 89 % 1018,8 hPa 0,0 mm 0,0 km/h (0 Bft) W-NW 290 0 min 0,000 mm 0,0 UV-I 0 W/m 11,1 C 0,0 km/h (0 Bft)
03.09.2016 05:17 13,0 C 13,0 C 89 % 1018,8 hPa 0,0 mm 0,0 km/h (0 Bft) W-NW 290 0 min 0,000 mm 0,0 UV-I 0 W/m 11,2 C 0,0 km/h (0 Bft)
03.09.2016 05:18 13,0 C 13,0 C 89 % 1018,8 hPa 0,0 mm 0,0 km/h (0 Bft) W-NW 290 0 min 0,000 mm 0,0 UV-I 0 W/m 11,2 C 0,0 km/h (0 Bft)
03.09.2016 05:19 13,1 C 13,1 C 89 % 1018,8 hPa 0,0 mm 0,0 km/h (0 Bft) W-NW 290 0 min 0,000 mm 0,0 UV-I 0 W/m 11,3 C 0,0 km/h (0 Bft)
03.09.2016 05:20 13,1 C 13,1 C 89 % 1018,7 hPa 0,0 mm 0,0 km/h (0 Bft) W-NW 290 0 min 0,000 mm 0,0 UV-I 0 W/m 11,3 C 0,0 km/h (0 Bft)
03.09.2016 05:21 13,1 C 13,1 C 89 % 1018,8 hPa 0,0 mm 0,0 km/h (0 Bft) W-NW 290 0 min 0,000 mm 0,0 UV-I 0 W/m 11,3 C 0,0 km/h (0 Bft)
03.09.2016 05:22 13,1 C 13,1 C 89 % 1018,7 hPa 0,0 mm 0,0 km/h (0 Bft) W-NW 290 0 min 0,000 mm 0,0 UV-I 0 W/m 11,3 C 0,0 km/h (0 Bft)
03.09.2016 05:23 13,1 C 13,1 C 89 % 1018,7 hPa 0,0 mm 0,0 km/h (0 Bft) W-NW 290 0 min 0,000 mm 0,0 UV-I 0 W/m 11,3 C 0,0 km/h (0 Bft)
03.09.2016 05:24 13,1 C 13,2 C 89 % 1018,7 hPa 0,0 mm 0,0 km/h (0 Bft) W-NW 290 0 min 0,000 mm 0,0 UV-I 0 W/m 11,3 C 0,0 km/h (0 Bft)
03.09.2016 05:25 13,2 C 13,2 C 88 % 1018,7 hPa 0,0 mm 0,0 km/h (0 Bft) W-NW 290 0 min 0,000 mm 0,0 UV-I 0 W/m 11,3 C 0,0 km/h (0 Bft)
03.09.2016 05:26 13,2 C 13,2 C 88 % 1018,7 hPa 0,0 mm 0,0 km/h (0 Bft) W-NW 290 0 min 0,000 mm 0,0 UV-I 0 W/m 11,3 C 0,0 km/h (0 Bft)
03.09.2016 05:27 13,1 C 13,2 C 89 % 1018,7 hPa 0,0 mm 0,0 km/h (0 Bft) W-NW 290 0 min 0,000 mm 0,0 UV-I 0 W/m 11,3 C 0,0 km/h (0 Bft)
03.09.2016 05:28 13,2 C 13,2 C 88 % 1018,7 hPa 0,0 mm 0,0 km/h (0 Bft) W-NW 290 0 min 0,000 mm 0,0 UV-I 0 W/m 11,3 C 0,0 km/h (0 Bft)
03.09.2016 05:29 13,2 C 13,2 C 88 % 1018,7 hPa 0,0 mm 0,0 km/h (0 Bft) W-NW 290 0 min 0,000 mm 0,0 UV-I 0 W/m 11,3 C 0,0 km/h (0 Bft)
03.09.2016 05:30 13,2 C 13,2 C 89 % 1018,7 hPa 0,0 mm 0,0 km/h (0 Bft) W-NW 290 0 min 0,000 mm 0,0 UV-I 0 W/m 11,4 C 0,0 km/h (0 Bft)
03.09.2016 05:31 13,2 C 13,2 C 89 % 1018,7 hPa 0,0 mm 0,0 km/h (0 Bft) W-NW 290 0 min 0,000 mm 0,0 UV-I 0 W/m 11,4 C 0,0 km/h (0 Bft)
03.09.2016 05:32 13,2 C 13,2 C 89 % 1018,7 hPa 0,0 mm 0,0 km/h (0 Bft) W-NW 290 0 min 0,000 mm 0,0 UV-I 0 W/m 11,4 C 0,0 km/h (0 Bft)
03.09.2016 05:33 13,2 C 13,2 C 88 % 1018,7 hPa 0,0 mm 0,0 km/h (0 Bft) W-NW 290 0 min 0,000 mm 0,0 UV-I 0 W/m 11,3 C 0,0 km/h (0 Bft)
03.09.2016 05:34 13,2 C 13,2 C 88 % 1018,7 hPa 0,0 mm 0,0 km/h (0 Bft) W-NW 290 0 min 0,000 mm 0,0 UV-I 0 W/m 11,3 C 0,0 km/h (0 Bft)
03.09.2016 05:35 13,1 C 13,2 C 88 % 1018,7 hPa 0,0 mm 0,0 km/h (0 Bft) W-NW 290 0 min 0,000 mm 0,0 UV-I 0 W/m 11,2 C 0,0 km/h (0 Bft)
03.09.2016 05:36 13,1 C 13,2 C 89 % 1018,7 hPa 0,0 mm 0,0 km/h (0 Bft) W-NW 290 0 min 0,000 mm 0,0 UV-I 0 W/m 11,3 C 0,0 km/h (0 Bft)
03.09.2016 05:37 13,1 C 13,1 C 89 % 1018,7 hPa 0,0 mm 0,0 km/h (0 Bft) W-NW 290 0 min 0,000 mm 0,0 UV-I 0 W/m 11,3 C 0,0 km/h (0 Bft)
03.09.2016 05:38 12,9 C 13,1 C 89 % 1018,7 hPa 0,0 mm 0,0 km/h (0 Bft) W-NW 290 0 min 0,000 mm 0,0 UV-I 0 W/m 11,1 C 0,0 km/h (0 Bft)
03.09.2016 05:39 12,9 C 12,9 C 89 % 1018,7 hPa 0,0 mm 0,0 km/h (0 Bft) W-NW 290 0 min 0,000 mm 0,0 UV-I 0 W/m 11,1 C 0,0 km/h (0 Bft)
03.09.2016 05:40 12,9 C 12,9 C 89 % 1018,7 hPa 0,0 mm 0,0 km/h (0 Bft) W-NW 290 0 min 0,000 mm 0,0 UV-I 0 W/m 11,1 C 0,0 km/h (0 Bft)
03.09.2016 05:41 12,9 C 12,9 C 89 % 1018,7 hPa 0,0 mm 0,0 km/h (0 Bft) W-NW 290 0 min 0,000 mm 0,0 UV-I 0 W/m 11,1 C 0,0 km/h (0 Bft)
03.09.2016 05:42 12,8 C 12,9 C 89 % 1018,7 hPa 0,0 mm 0,0 km/h (0 Bft) W-NW 290 0 min 0,000 mm 0,0 UV-I 0 W/m 11,0 C 0,0 km/h (0 Bft)
03.09.2016 05:43 12,8 C 12,8 C 89 % 1018,7 hPa 0,0 mm 0,0 km/h (0 Bft) W-NW 290 0 min 0,000 mm 0,0 UV-I 0 W/m 11,0 C 0,0 km/h (0 Bft)
03.09.2016 05:44 12,7 C 12,8 C 89 % 1018,7 hPa 0,0 mm 0,0 km/h (0 Bft) W-NW 290 0 min 0,000 mm 0,0 UV-I 0 W/m 10,9 C 0,0 km/h (0 Bft)
03.09.2016 05:45 12,7 C 12,7 C 90 % 1018,8 hPa 0,0 mm 0,0 km/h (0 Bft) W-NW 290 0 min 0,000 mm 0,0 UV-I 0 W/m 11,1 C 0,0 km/h (0 Bft)
03.09.2016 05:46 12,7 C 12,7 C 90 % 1018,7 hPa 0,0 mm 0,0 km/h (0 Bft) W-NW 290 0 min 0,000 mm 0,0 UV-I 0 W/m 11,1 C 0,0 km/h (0 Bft)
03.09.2016 05:47 12,6 C 12,7 C 90 % 1018,7 hPa 0,0 mm 0,0 km/h (0 Bft) W-NW 290 0 min 0,000 mm 0,0 UV-I 0 W/m 11,0 C 0,0 km/h (0 Bft)
03.09.2016 05:48 12,6 C 12,6 C 91 % 1018,7 hPa 0,0 mm 0,0 km/h (0 Bft) W-NW 290 0 min 0,000 mm 0,0 UV-I 0 W/m 11,2 C 0,0 km/h (0 Bft)
03.09.2016 05:49 12,6 C 12,6 C 91 % 1018,7 hPa 0,0 mm 0,0 km/h (0 Bft) W-NW 290 0 min 0,000 mm 0,0 UV-I 0 W/m 11,2 C 0,0 km/h (0 Bft)
03.09.2016 05:50 12,6 C 12,6 C 91 % 1018,7 hPa 0,0 mm 0,0 km/h (0 Bft) W-NW 290 0 min 0,000 mm 0,0 UV-I 0 W/m 11,2 C 0,0 km/h (0 Bft)
03.09.2016 05:51 12,6 C 12,6 C 90 % 1018,7 hPa 0,0 mm 0,0 km/h (0 Bft) W-NW 290 0 min 0,000 mm 0,0 UV-I 0 W/m 11,0 C 0,0 km/h (0 Bft)
03.09.2016 05:52 12,6 C 12,6 C 90 % 1018,7 hPa 0,0 mm 0,0 km/h (0 Bft) W-NW 290 0 min 0,000 mm 0,0 UV-I 0 W/m 11,0 C 0,0 km/h (0 Bft)
03.09.2016 05:53 12,5 C 12,6 C 90 % 1018,7 hPa 0,0 mm 0,0 km/h (0 Bft) W-NW 290 0 min 0,000 mm 0,0 UV-I 0 W/m 10,9 C 0,0 km/h (0 Bft)
03.09.2016 05:54 12,5 C 12,6 C 90 % 1018,7 hPa 0,0 mm 0,0 km/h (0 Bft) W-NW 290 0 min 0,000 mm 0,0 UV-I 0 W/m 10,9 C 0,0 km/h (0 Bft)
03.09.2016 05:55 12,5 C 12,6 C 90 % 1018,7 hPa 0,0 mm 0,0 km/h (0 Bft) W-NW 298 0 min 0,000 mm 0,0 UV-I 0 W/m 10,9 C 0,0 km/h (0 Bft)
03.09.2016 05:56 12,5 C 12,6 C 90 % 1018,7 hPa 0,0 mm 0,0 km/h (0 Bft) W-NW 298 0 min 0,000 mm 0,0 UV-I 0 W/m 10,9 C 0,0 km/h (0 Bft)
03.09.2016 05:57 12,5 C 12,5 C 91 % 1018,7 hPa 0,0 mm 0,0 km/h (0 Bft) W-NW 298 0 min 0,000 mm 0,0 UV-I 0 W/m 11,1 C 0,0 km/h (0 Bft)
03.09.2016 05:58 12,6 C 12,6 C 90 % 1018,7 hPa 0,0 mm 0,0 km/h (0 Bft) W-NW 298 0 min 0,000 mm 0,0 UV-I 0 W/m 11,0 C 0,0 km/h (0 Bft)
03.09.2016 05:59 12,6 C 12,6 C 90 % 1018,7 hPa 0,0 mm 0,0 km/h (0 Bft) W-NW 298 0 min 0,000 mm 0,0 UV-I 0 W/m 11,0 C 0,0 km/h (0 Bft)
03.09.2016 06:00 12,6 C 12,7 C 90 % 1018,7 hPa 0,0 mm 0,0 km/h (0 Bft) W-NW 298 0 min 0,000 mm 0,0 UV-I 0 W/m 11,0 C 0,0 km/h (0 Bft)
03.09.2016 06:01 12,6 C 12,7 C 89 % 1018,7 hPa 0,0 mm 0,0 km/h (0 Bft) W-NW 298 0 min 0,000 mm 0,0 UV-I 0 W/m 10,8 C 0,0 km/h (0 Bft)
03.09.2016 06:02 12,6 C 12,6 C 89 % 1018,7 hPa 0,0 mm 0,0 km/h (0 Bft) W-NW 298 0 min 0,000 mm 0,0 UV-I 0 W/m 10,8 C 0,0 km/h (0 Bft)
03.09.2016 06:03 12,6 C 12,6 C 89 % 1018,7 hPa 0,0 mm 0,0 km/h (0 Bft) W-NW 298 0 min 0,000 mm 0,0 UV-I 0 W/m 10,8 C 0,0 km/h (0 Bft)
03.09.2016 06:04 12,6 C 12,6 C 90 % 1018,6 hPa 0,0 mm 0,0 km/h (0 Bft) W-NW 298 0 min 0,000 mm 0,0 UV-I 0 W/m 11,0 C 0,0 km/h (0 Bft)
03.09.2016 06:05 12,6 C 12,6 C 89 % 1018,7 hPa 0,0 mm 0,0 km/h (0 Bft) W-NW 298 0 min 0,000 mm 0,0 UV-I 0 W/m 10,8 C 0,0 km/h (0 Bft)
03.09.2016 06:06 12,6 C 12,6 C 90 % 1018,7 hPa 0,0 mm 0,0 km/h (0 Bft) W-NW 298 0 min 0,000 mm 0,0 UV-I 0 W/m 11,0 C 0,0 km/h (0 Bft)
03.09.2016 06:07 12,6 C 12,6 C 90 % 1018,7 hPa 0,0 mm 0,0 km/h (0 Bft) W-NW 298 0 min 0,000 mm 0,0 UV-I 0 W/m 11,0 C 0,0 km/h (0 Bft)
03.09.2016 06:08 12,5 C 12,6 C 90 % 1018,7 hPa 0,0 mm 0,0 km/h (0 Bft) W-NW 298 0 min 0,000 mm 0,0 UV-I 0 W/m 10,9 C 0,0 km/h (0 Bft)
03.09.2016 06:09 12,5 C 12,5 C 90 % 1018,7 hPa 0,0 mm 0,0 km/h (0 Bft) W-NW 298 0 min 0,000 mm 0,0 UV-I 0 W/m 10,9 C 0,0 km/h (0 Bft)
03.09.2016 06:10 12,6 C 12,6 C 90 % 1018,6 hPa 0,0 mm 0,0 km/h (0 Bft) W-NW 298 0 min 0,000 mm 0,0 UV-I 0 W/m 11,0 C 0,0 km/h (0 Bft)
03.09.2016 06:11 12,6 C 12,6 C 90 % 1018,6 hPa 0,0 mm 0,0 km/h (0 Bft) W-NW 298 0 min 0,000 mm 0,0 UV-I 0 W/m 11,0 C 0,0 km/h (0 Bft)
03.09.2016 06:12 12,8 C 12,8 C 90 % 1018,6 hPa 0,0 mm 0,0 km/h (0 Bft) W-NW 298 0 min 0,000 mm 0,0 UV-I 0 W/m 11,2 C 0,0 km/h (0 Bft)
03.09.2016 06:13 12,8 C 12,8 C 89 % 1018,6 hPa 0,0 mm 0,0 km/h (0 Bft) W 262 0 min 0,000 mm 0,0 UV-I 0 W/m 11,0 C 0,0 km/h (0 Bft)
03.09.2016 06:14 12,9 C 12,9 C 89 % 1018,6 hPa 0,0 mm 0,0 km/h (0 Bft) W 262 0 min 0,000 mm 0,0 UV-I 0 W/m 11,1 C 0,0 km/h (0 Bft)
03.09.2016 06:15 13,0 C 13,0 C 89 % 1018,6 hPa 0,0 mm 0,0 km/h (0 Bft) W 262 0 min 0,000 mm 0,0 UV-I 0 W/m 11,2 C 0,0 km/h (0 Bft)
03.09.2016 06:16 13,1 C 13,1 C 89 % 1018,6 hPa 0,0 mm 0,0 km/h (0 Bft) W 262 0 min 0,000 mm 0,0 UV-I 0 W/m 11,3 C 0,0 km/h (0 Bft)
03.09.2016 06:17 13,3 C 13,3 C 88 % 1018,6 hPa 0,0 mm 0,0 km/h (0 Bft) W 262 0 min 0,000 mm 0,0 UV-I 0 W/m 11,4 C 0,0 km/h (0 Bft)
03.09.2016 06:18 13,4 C 13,4 C 88 % 1018,6 hPa 0,0 mm 0,0 km/h (0 Bft) SW 216 0 min 0,000 mm 0,0 UV-I 0 W/m 11,5 C 0,0 km/h (0 Bft)
03.09.2016 06:19 13,4 C 13,4 C 88 % 1018,6 hPa 0,0 mm 0,0 km/h (0 Bft) SW 215 0 min 0,000 mm 0,0 UV-I 0 W/m 11,5 C 0,0 km/h (0 Bft)
03.09.2016 06:20 13,5 C 13,5 C 87 % 1018,6 hPa 0,0 mm 0,0 km/h (0 Bft) SW 215 0 min 0,000 mm 0,0 UV-I 0 W/m 11,4 C 0,0 km/h (0 Bft)
03.09.2016 06:21 13,7 C 13,7 C 87 % 1018,6 hPa 0,0 mm 0,0 km/h (0 Bft) W-SW 240 0 min 0,000 mm 0,0 UV-I 0 W/m 11,6 C 0,0 km/h (0 Bft)
03.09.2016 06:22 13,7 C 13,7 C 87 % 1018,6 hPa 0,0 mm 0,0 km/h (0 Bft) SW 223 0 min 0,000 mm 0,0 UV-I 0 W/m 11,6 C 0,0 km/h (0 Bft)
03.09.2016 06:23 13,7 C 13,7 C 86 % 1018,6 hPa 0,0 mm 0,0 km/h (0 Bft) SW 222 0 min 0,000 mm 0,0 UV-I 0 W/m 11,4 C 0,0 km/h (0 Bft)
03.09.2016 06:24 13,8 C 13,8 C 86 % 1018,6 hPa 0,0 mm 0,0 km/h (0 Bft) S 191 0 min 0,000 mm 0,0 UV-I 0 W/m 11,5 C 0,0 km/h (0 Bft)
03.09.2016 06:25 13,8 C 13,8 C 86 % 1018,6 hPa 0,0 mm 0,0 km/h (0 Bft) W-SW 238 0 min 0,000 mm 0,0 UV-I 0 W/m 11,5 C 0,0 km/h (0 Bft)
03.09.2016 06:26 13,8 C 13,8 C 86 % 1018,6 hPa 0,0 mm 0,0 km/h (0 Bft) SW 215 0 min 0,000 mm 0,0 UV-I 5 W/m 11,5 C 0,0 km/h (0 Bft)
03.09.2016 06:27 13,8 C 13,8 C 86 % 1018,6 hPa 0,0 mm 0,1 km/h (0 Bft) S 181 0 min 0,000 mm 0,0 UV-I 5 W/m 11,5 C 1,6 km/h (1 Bft)
03.09.2016 06:28 13,9 C 13,9 C 86 % 1018,6 hPa 0,0 mm 0,0 km/h (0 Bft) S 188 0 min 0,000 mm 0,0 UV-I 5 W/m 11,6 C 0,0 km/h (0 Bft)
03.09.2016 06:29 13,9 C 13,9 C 86 % 1018,6 hPa 0,0 mm 0,0 km/h (0 Bft) S 188 0 min 0,000 mm 0,0 UV-I 5 W/m 11,6 C 0,0 km/h (0 Bft)
03.09.2016 06:30 13,9 C 13,9 C 87 % 1018,6 hPa 0,0 mm 0,0 km/h (0 Bft) S 188 0 min 0,000 mm 0,0 UV-I 5 W/m 11,8 C 0,0 km/h (0 Bft)
03.09.2016 06:31 13,8 C 13,9 C 87 % 1018,6 hPa 0,0 mm 0,0 km/h (0 Bft) S 188 0 min 0,000 mm 0,0 UV-I 5 W/m 11,7 C 0,0 km/h (0 Bft)
03.09.2016 06:32 13,8 C 13,8 C 87 % 1018,6 hPa 0,0 mm 0,0 km/h (0 Bft) S 188 0 min 0,000 mm 0,0 UV-I 0 W/m 11,7 C 0,0 km/h (0 Bft)
03.09.2016 06:33 13,7 C 13,8 C 86 % 1018,6 hPa 0,0 mm 0,0 km/h (0 Bft) S 188 0 min 0,000 mm 0,0 UV-I 0 W/m 11,4 C 0,0 km/h (0 Bft)
03.09.2016 06:34 13,7 C 13,7 C 86 % 1018,6 hPa 0,0 mm 0,0 km/h (0 Bft) S 188 0 min 0,000 mm 0,0 UV-I 0 W/m 11,4 C 0,0 km/h (0 Bft)
03.09.2016 06:35 13,6 C 13,7 C 87 % 1018,6 hPa 0,0 mm 0,0 km/h (0 Bft) S 188 0 min 0,000 mm 0,0 UV-I 0 W/m 11,5 C 0,0 km/h (0 Bft)
03.09.2016 06:36 13,6 C 13,6 C 87 % 1018,6 hPa 0,0 mm 0,0 km/h (0 Bft) S 188 0 min 0,000 mm 0,0 UV-I 0 W/m 11,5 C 0,0 km/h (0 Bft)
03.09.2016 06:37 13,6 C 13,6 C 87 % 1018,6 hPa 0,0 mm 0,0 km/h (0 Bft) S 188 0 min 0,000 mm 0,0 UV-I 0 W/m 11,5 C 0,0 km/h (0 Bft)
03.09.2016 06:38 13,7 C 13,7 C 87 % 1018,5 hPa 0,0 mm 0,0 km/h (0 Bft) S-SW 203 0 min 0,000 mm 0,0 UV-I 0 W/m 11,6 C 0,0 km/h (0 Bft)
03.09.2016 06:39 13,7 C 13,7 C 87 % 1018,5 hPa 0,0 mm 0,0 km/h (0 Bft) S 190 0 min 0,000 mm 0,0 UV-I 0 W/m 11,6 C 0,0 km/h (0 Bft)
03.09.2016 06:40 13,7 C 13,7 C 87 % 1018,6 hPa 0,0 mm 0,0 km/h (0 Bft) S 190 0 min 0,000 mm 0,0 UV-I 0 W/m 11,6 C 0,0 km/h (0 Bft)
03.09.2016 06:41 13,6 C 13,7 C 87 % 1018,6 hPa 0,0 mm 0,0 km/h (0 Bft) S 190 0 min 0,000 mm 0,0 UV-I 0 W/m 11,5 C 0,0 km/h (0 Bft)
03.09.2016 06:42 13,6 C 13,6 C 87 % 1018,6 hPa 0,0 mm 0,0 km/h (0 Bft) S 190 0 min 0,000 mm 0,0 UV-I 0 W/m 11,5 C 0,0 km/h (0 Bft)
03.09.2016 06:43 13,6 C 13,6 C 87 % 1018,5 hPa 0,0 mm 0,0 km/h (0 Bft) S 190 0 min 0,000 mm 0,0 UV-I 0 W/m 11,5 C 0,0 km/h (0 Bft)
03.09.2016 06:44 13,6 C 13,6 C 87 % 1018,5 hPa 0,0 mm 0,0 km/h (0 Bft) S 190 0 min 0,000 mm 0,0 UV-I 0 W/m 11,5 C 0,0 km/h (0 Bft)
03.09.2016 06:45 13,6 C 13,6 C 87 % 1018,5 hPa 0,0 mm 0,0 km/h (0 Bft) S 190 0 min 0,000 mm 0,0 UV-I 0 W/m 11,5 C 0,0 km/h (0 Bft)
03.09.2016 06:46 13,6 C 13,6 C 87 % 1018,6 hPa 0,0 mm 0,0 km/h (0 Bft) S 190 0 min 0,000 mm 0,0 UV-I 5 W/m 11,5 C 0,0 km/h (0 Bft)
03.09.2016 06:47 13,6 C 13,6 C 88 % 1018,6 hPa 0,0 mm 0,0 km/h (0 Bft) S 190 0 min 0,000 mm 0,0 UV-I 5 W/m 11,6 C 0,0 km/h (0 Bft)
03.09.2016 06:48 13,6 C 13,6 C 88 % 1018,6 hPa 0,0 mm 0,0 km/h (0 Bft) S 190 0 min 0,000 mm 0,0 UV-I 5 W/m 11,6 C 0,0 km/h (0 Bft)
03.09.2016 06:49 13,5 C 13,6 C 88 % 1018,6 hPa 0,0 mm 0,0 km/h (0 Bft) S 190 0 min 0,000 mm 0,0 UV-I 7 W/m 11,6 C 0,0 km/h (0 Bft)
03.09.2016 06:50 13,4 C 13,5 C 88 % 1018,6 hPa 0,0 mm 0,0 km/h (0 Bft) S 190 0 min 0,000 mm 0,0 UV-I 7 W/m 11,5 C 0,0 km/h (0 Bft)
03.09.2016 06:51 13,5 C 13,5 C 88 % 1018,7 hPa 0,0 mm 0,0 km/h (0 Bft) S 190 0 min 0,000 mm 0,0 UV-I 7 W/m 11,6 C 0,0 km/h (0 Bft)
03.09.2016 06:52 13,5 C 13,5 C 88 % 1018,6 hPa 0,0 mm 0,0 km/h (0 Bft) S 190 0 min 0,000 mm 0,0 UV-I 9 W/m 11,6 C 0,0 km/h (0 Bft)
03.09.2016 06:53 13,5 C 13,5 C 88 % 1018,7 hPa 0,0 mm 0,0 km/h (0 Bft) W 271 0 min 0,000 mm 0,0 UV-I 9 W/m 11,6 C 0,0 km/h (0 Bft)
03.09.2016 06:54 13,4 C 13,5 C 87 % 1018,6 hPa 0,0 mm 0,0 km/h (0 Bft) W 271 0 min 0,000 mm 0,0 UV-I 11 W/m 11,3 C 0,0 km/h (0 Bft)
03.09.2016 06:55 13,4 C 13,4 C 87 % 1018,6 hPa 0,0 mm 0,0 km/h (0 Bft) W 271 0 min 0,000 mm 0,0 UV-I 11 W/m 11,3 C 0,0 km/h (0 Bft)
03.09.2016 06:56 13,3 C 13,4 C 88 % 1018,7 hPa 0,0 mm 0,0 km/h (0 Bft) W 271 0 min 0,000 mm 0,0 UV-I 11 W/m 11,4 C 0,0 km/h (0 Bft)
03.09.2016 06:57 13,3 C 13,3 C 88 % 1018,7 hPa 0,0 mm 0,0 km/h (0 Bft) W 271 0 min 0,000 mm 0,0 UV-I 12 W/m 11,4 C 0,0 km/h (0 Bft)
03.09.2016 06:58 13,3 C 13,3 C 88 % 1018,7 hPa 0,0 mm 0,0 km/h (0 Bft) W 271 0 min 0,000 mm 0,0 UV-I 12 W/m 11,4 C 0,0 km/h (0 Bft)
03.09.2016 06:59 13,2 C 13,3 C 89 % 1018,7 hPa 0,0 mm 0,0 km/h (0 Bft) W 271 0 min 0,000 mm 0,0 UV-I 12 W/m 11,4 C 0,0 km/h (0 Bft)
03.09.2016 07:00 13,2 C 13,2 C 89 % 1018,6 hPa 0,0 mm 0,0 km/h (0 Bft) W 271 0 min 0,000 mm 0,0 UV-I 14 W/m 11,4 C 0,0 km/h (0 Bft)
03.09.2016 07:01 13,2 C 13,2 C 89 % 1018,6 hPa 0,0 mm 0,0 km/h (0 Bft) W 271 0 min 0,000 mm 0,0 UV-I 16 W/m 11,4 C 0,0 km/h (0 Bft)
03.09.2016 07:02 13,2 C 13,2 C 89 % 1018,7 hPa 0,0 mm 0,0 km/h (0 Bft) W 271 0 min 0,000 mm 0,0 UV-I 16 W/m 11,4 C 0,0 km/h (0 Bft)
03.09.2016 07:03 13,2 C 13,2 C 89 % 1018,6 hPa 0,0 mm 0,0 km/h (0 Bft) W 271 0 min 0,000 mm 0,0 UV-I 16 W/m 11,4 C 0,0 km/h (0 Bft)
03.09.2016 07:04 13,2 C 13,2 C 89 % 1018,6 hPa 0,0 mm 0,0 km/h (0 Bft) SW 229 0 min 0,000 mm 0,0 UV-I 18 W/m 11,4 C 0,0 km/h (0 Bft)
03.09.2016 07:05 13,2 C 13,2 C 89 % 1018,6 hPa 0,0 mm 0,0 km/h (0 Bft) S 190 0 min 0,000 mm 0,0 UV-I 18 W/m 11,4 C 0,0 km/h (0 Bft)
03.09.2016 07:06 13,2 C 13,3 C 89 % 1018,6 hPa 0,0 mm 0,0 km/h (0 Bft) S-SW 198 0 min 0,000 mm 0,0 UV-I 19 W/m 11,4 C 0,0 km/h (0 Bft)
03.09.2016 07:07 13,3 C 13,3 C 89 % 1018,6 hPa 0,0 mm 0,0 km/h (0 Bft) S-SW 198 0 min 0,000 mm 0,0 UV-I 21 W/m 11,5 C 0,0 km/h (0 Bft)
03.09.2016 07:08 13,3 C 13,3 C 89 % 1018,6 hPa 0,0 mm 0,0 km/h (0 Bft) W-SW 249 0 min 0,000 mm 0,0 UV-I 21 W/m 11,5 C 0,0 km/h (0 Bft)
03.09.2016 07:09 13,3 C 13,3 C 88 % 1018,6 hPa 0,0 mm 0,0 km/h (0 Bft) W-SW 249 0 min 0,000 mm 0,0 UV-I 21 W/m 11,4 C 0,0 km/h (0 Bft)
03.09.2016 07:10 13,2 C 13,3 C 89 % 1018,7 hPa 0,0 mm 0,0 km/h (0 Bft) W-SW 248 0 min 0,000 mm 0,0 UV-I 21 W/m 11,4 C 0,0 km/h (0 Bft)
03.09.2016 07:11 13,2 C 13,2 C 89 % 1018,6 hPa 0,0 mm 0,0 km/h (0 Bft) W-SW 248 0 min 0,000 mm 0,0 UV-I 23 W/m 11,4 C 0,0 km/h (0 Bft)
03.09.2016 07:12 13,2 C 13,2 C 89 % 1018,6 hPa 0,0 mm 0,0 km/h (0 Bft) W-SW 248 0 min 0,000 mm 0,0 UV-I 25 W/m 11,4 C 0,0 km/h (0 Bft)
03.09.2016 07:13 13,2 C 13,2 C 89 % 1018,7 hPa 0,0 mm 0,0 km/h (0 Bft) W-SW 248 0 min 0,000 mm 0,0 UV-I 25 W/m 11,4 C 0,0 km/h (0 Bft)
03.09.2016 07:14 13,1 C 13,2 C 90 % 1018,7 hPa 0,0 mm 0,0 km/h (0 Bft) W-SW 248 0 min 0,000 mm 0,0 UV-I 26 W/m 11,5 C 0,0 km/h (0 Bft)
03.09.2016 07:15 13,1 C 13,1 C 89 % 1018,6 hPa 0,0 mm 0,0 km/h (0 Bft) W-SW 248 0 min 0,000 mm 0,0 UV-I 26 W/m 11,3 C 0,0 km/h (0 Bft)
03.09.2016 07:16 13,1 C 13,1 C 90 % 1018,6 hPa 0,0 mm 0,0 km/h (0 Bft) W-SW 248 0 min 0,000 mm 0,0 UV-I 26 W/m 11,5 C 0,0 km/h (0 Bft)
03.09.2016 07:17 13,1 C 13,1 C 90 % 1018,6 hPa 0,0 mm 0,0 km/h (0 Bft) W-SW 248 0 min 0,000 mm 0,0 UV-I 28 W/m 11,5 C 0,0 km/h (0 Bft)
03.09.2016 07:18 13,1 C 13,1 C 89 % 1018,7 hPa 0,0 mm 0,0 km/h (0 Bft) W-SW 248 0 min 0,000 mm 0,0 UV-I 28 W/m 11,3 C 0,0 km/h (0 Bft)
03.09.2016 07:19 13,1 C 13,1 C 89 % 1018,7 hPa 0,0 mm 0,0 km/h (0 Bft) W-SW 248 0 min 0,000 mm 0,0 UV-I 30 W/m 11,3 C 0,0 km/h (0 Bft)
03.09.2016 07:20 13,0 C 13,1 C 89 % 1018,7 hPa 0,0 mm 0,0 km/h (0 Bft) W-SW 250 0 min 0,000 mm 0,0 UV-I 30 W/m 11,2 C 0,0 km/h (0 Bft)
03.09.2016 07:21 13,0 C 13,1 C 89 % 1018,7 hPa 0,0 mm 0,0 km/h (0 Bft) W-SW 250 0 min 0,000 mm 0,0 UV-I 32 W/m 11,2 C 0,0 km/h (0 Bft)
03.09.2016 07:22 13,0 C 13,0 C 89 % 1018,7 hPa 0,0 mm 0,0 km/h (0 Bft) W-SW 250 0 min 0,000 mm 0,0 UV-I 33 W/m 11,2 C 0,0 km/h (0 Bft)
03.09.2016 07:23 13,0 C 13,0 C 89 % 1018,7 hPa 0,0 mm 0,0 km/h (0 Bft) W-SW 250 0 min 0,000 mm 0,0 UV-I 33 W/m 11,2 C 0,0 km/h (0 Bft)
03.09.2016 07:24 13,1 C 13,1 C 89 % 1018,7 hPa 0,0 mm 0,0 km/h (0 Bft) W-SW 250 0 min 0,000 mm 0,0 UV-I 35 W/m 11,3 C 0,0 km/h (0 Bft)
03.09.2016 07:25 13,1 C 13,1 C 89 % 1018,7 hPa 0,0 mm 0,0 km/h (0 Bft) W-SW 250 0 min 0,000 mm 0,0 UV-I 37 W/m 11,3 C 0,0 km/h (0 Bft)
03.09.2016 07:26 13,1 C 13,1 C 89 % 1018,7 hPa 0,0 mm 0,0 km/h (0 Bft) W-SW 250 0 min 0,000 mm 0,0 UV-I 39 W/m 11,3 C 0,0 km/h (0 Bft)
03.09.2016 07:27 13,1 C 13,1 C 89 % 1018,8 hPa 0,0 mm 0,0 km/h (0 Bft) W-SW 250 0 min 0,000 mm 0,0 UV-I 39 W/m 11,3 C 0,0 km/h (0 Bft)
03.09.2016 07:28 13,1 C 13,1 C 89 % 1018,7 hPa 0,0 mm 0,0 km/h (0 Bft) W-SW 250 0 min 0,000 mm 0,0 UV-I 40 W/m 11,3 C 0,0 km/h (0 Bft)
03.09.2016 07:29 13,1 C 13,1 C 89 % 1018,8 hPa 0,0 mm 0,0 km/h (0 Bft) W-SW 250 0 min 0,000 mm 0,0 UV-I 42 W/m 11,3 C 0,0 km/h (0 Bft)
03.09.2016 07:30 13,0 C 13,1 C 89 % 1018,7 hPa 0,0 mm 0,0 km/h (0 Bft) W-SW 250 0 min 0,000 mm 0,0 UV-I 44 W/m 11,2 C 0,0 km/h (0 Bft)
03.09.2016 07:31 12,9 C 13,0 C 89 % 1018,8 hPa 0,0 mm 0,0 km/h (0 Bft) W-SW 250 0 min 0,000 mm 0,0 UV-I 46 W/m 11,1 C 0,0 km/h (0 Bft)
03.09.2016 07:32 12,9 C 12,9 C 90 % 1018,8 hPa 0,0 mm 0,0 km/h (0 Bft) W-SW 250 0 min 0,000 mm 0,0 UV-I 46 W/m 11,3 C 0,0 km/h (0 Bft)
03.09.2016 07:33 12,8 C 12,9 C 90 % 1018,8 hPa 0,0 mm 0,0 km/h (0 Bft) W-SW 250 0 min 0,000 mm 0,0 UV-I 47 W/m 11,2 C 0,0 km/h (0 Bft)
03.09.2016 07:34 12,8 C 12,8 C 90 % 1018,7 hPa 0,0 mm 0,0 km/h (0 Bft) W-SW 250 0 min 0,000 mm 0,0 UV-I 47 W/m 11,2 C 0,0 km/h (0 Bft)
03.09.2016 07:35 12,8 C 12,8 C 90 % 1018,8 hPa 0,0 mm 0,0 km/h (0 Bft) W-SW 250 0 min 0,000 mm 0,0 UV-I 49 W/m 11,2 C 0,0 km/h (0 Bft)
03.09.2016 07:36 12,8 C 12,8 C 90 % 1018,7 hPa 0,0 mm 0,0 km/h (0 Bft) W-SW 250 0 min 0,000 mm 0,0 UV-I 51 W/m 11,2 C 0,0 km/h (0 Bft)
03.09.2016 07:37 12,8 C 12,8 C 90 % 1018,8 hPa 0,0 mm 0,0 km/h (0 Bft) W-SW 250 0 min 0,000 mm 0,0 UV-I 51 W/m 11,2 C 0,0 km/h (0 Bft)
03.09.2016 07:38 12,8 C 12,8 C 90 % 1018,8 hPa 0,0 mm 0,0 km/h (0 Bft) W-SW 250 0 min 0,000 mm 0,0 UV-I 53 W/m 11,2 C 0,0 km/h (0 Bft)
03.09.2016 07:39 12,8 C 12,8 C 91 % 1018,8 hPa 0,0 mm 0,0 km/h (0 Bft) W-SW 250 0 min 0,000 mm 0,0 UV-I 53 W/m 11,4 C 0,0 km/h (0 Bft)
03.09.2016 07:40 12,8 C 12,8 C 90 % 1018,8 hPa 0,0 mm 0,0 km/h (0 Bft) W-SW 250 0 min 0,000 mm 0,0 UV-I 53 W/m 11,2 C 0,0 km/h (0 Bft)
03.09.2016 07:41 12,8 C 12,8 C 90 % 1018,8 hPa 0,0 mm 0,0 km/h (0 Bft) W-SW 250 0 min 0,000 mm 0,0 UV-I 54 W/m 11,2 C 0,0 km/h (0 Bft)
03.09.2016 07:42 12,8 C 12,8 C 90 % 1018,8 hPa 0,0 mm 0,0 km/h (0 Bft) W-SW 250 0 min 0,000 mm 0,0 UV-I 54 W/m 11,2 C 0,0 km/h (0 Bft)
03.09.2016 07:43 12,8 C 12,8 C 90 % 1018,8 hPa 0,0 mm 0,0 km/h (0 Bft) W-SW 250 0 min 0,000 mm 0,0 UV-I 54 W/m 11,2 C 0,0 km/h (0 Bft)
03.09.2016 07:44 12,8 C 12,8 C 91 % 1018,8 hPa 0,0 mm 0,0 km/h (0 Bft) W-SW 250 0 min 0,000 mm 0,0 UV-I 56 W/m 11,4 C 0,0 km/h (0 Bft)
03.09.2016 07:45 12,8 C 12,8 C 91 % 1018,8 hPa 0,0 mm 0,0 km/h (0 Bft) W-SW 250 0 min 0,000 mm 0,0 UV-I 56 W/m 11,4 C 0,0 km/h (0 Bft)
03.09.2016 07:46 12,8 C 12,8 C 91 % 1018,8 hPa 0,0 mm 0,0 km/h (0 Bft) W-SW 250 0 min 0,000 mm 0,0 UV-I 58 W/m 11,4 C 0,0 km/h (0 Bft)
03.09.2016 07:47 12,8 C 12,8 C 91 % 1018,8 hPa 0,0 mm 0,0 km/h (0 Bft) W-SW 250 0 min 0,000 mm 0,0 UV-I 60 W/m 11,4 C 0,0 km/h (0 Bft)
03.09.2016 07:48 12,8 C 12,8 C 91 % 1018,8 hPa 0,0 mm 0,0 km/h (0 Bft) W-SW 250 0 min 0,000 mm 0,0 UV-I 62 W/m 11,4 C 0,0 km/h (0 Bft)
03.09.2016 07:49 12,9 C 12,9 C 91 % 1018,8 hPa 0,0 mm 0,0 km/h (0 Bft) W-SW 250 0 min 0,000 mm 0,0 UV-I 63 W/m 11,5 C 0,0 km/h (0 Bft)
03.09.2016 07:50 12,9 C 12,9 C 91 % 1018,8 hPa 0,0 mm 0,0 km/h (0 Bft) W-SW 250 0 min 0,000 mm 0,0 UV-I 65 W/m 11,5 C 0,0 km/h (0 Bft)
03.09.2016 07:51 12,9 C 12,9 C 91 % 1018,8 hPa 0,0 mm 0,0 km/h (0 Bft) W-SW 250 0 min 0,000 mm 0,0 UV-I 67 W/m 11,5 C 0,0 km/h (0 Bft)
03.09.2016 07:52 13,0 C 13,0 C 91 % 1018,8 hPa 0,0 mm 0,0 km/h (0 Bft) W-SW 250 0 min 0,000 mm 0,0 UV-I 69 W/m 11,6 C 0,0 km/h (0 Bft)
03.09.2016 07:53 13,1 C 13,1 C 91 % 1018,8 hPa 0,0 mm 0,0 km/h (0 Bft) W-SW 250 0 min 0,000 mm 0,0 UV-I 72 W/m 11,7 C 0,0 km/h (0 Bft)
03.09.2016 07:54 13,1 C 13,1 C 91 % 1018,8 hPa 0,0 mm 0,0 km/h (0 Bft) W-SW 250 0 min 0,000 mm 0,0 UV-I 74 W/m 11,7 C 0,0 km/h (0 Bft)
03.09.2016 07:55 13,1 C 13,1 C 90 % 1018,8 hPa 0,0 mm 0,0 km/h (0 Bft) W-SW 250 0 min 0,000 mm 0,5 UV-I 74 W/m 11,5 C 0,0 km/h (0 Bft)
03.09.2016 07:56 13,2 C 13,2 C 91 % 1018,8 hPa 0,0 mm 0,0 km/h (0 Bft) W-SW 250 0 min 0,000 mm 0,5 UV-I 76 W/m 11,8 C 0,0 km/h (0 Bft)
03.09.2016 07:57 13,2 C 13,2 C 90 % 1018,8 hPa 0,0 mm 0,0 km/h (0 Bft) W-SW 250 0 min 0,000 mm 0,5 UV-I 76 W/m 11,6 C 0,0 km/h (0 Bft)
03.09.2016 07:58 13,2 C 13,2 C 90 % 1018,8 hPa 0,0 mm 0,0 km/h (0 Bft) W-SW 250 0 min 0,000 mm 0,5 UV-I 77 W/m 11,6 C 0,0 km/h (0 Bft)
03.09.2016 07:59 13,3 C 13,3 C 90 % 1018,8 hPa 0,0 mm 0,0 km/h (0 Bft) W-SW 250 0 min 0,000 mm 0,5 UV-I 81 W/m 11,7 C 0,0 km/h (0 Bft)
03.09.2016 08:00 13,3 C 13,3 C 90 % 1018,8 hPa 0,0 mm 0,0 km/h (0 Bft) W-SW 250 0 min 0,000 mm 0,5 UV-I 79 W/m 11,7 C 0,0 km/h (0 Bft)
03.09.2016 08:01 13,3 C 13,3 C 90 % 1018,8 hPa 0,0 mm 0,0 km/h (0 Bft) W-SW 250 0 min 0,025 mm 0,5 UV-I 77 W/m 11,7 C 0,0 km/h (0 Bft)
03.09.2016 08:02 13,4 C 13,4 C 90 % 1018,8 hPa 0,0 mm 0,0 km/h (0 Bft) W-SW 250 0 min 0,000 mm 0,5 UV-I 77 W/m 11,8 C 0,0 km/h (0 Bft)
03.09.2016 08:03 13,5 C 13,5 C 90 % 1018,9 hPa 0,0 mm 0,0 km/h (0 Bft) W-SW 250 0 min 0,000 mm 0,5 UV-I 79 W/m 11,9 C 0,0 km/h (0 Bft)
03.09.2016 08:04 13,5 C 13,6 C 90 % 1018,9 hPa 0,0 mm 0,0 km/h (0 Bft) W-SW 250 0 min 0,000 mm 0,5 UV-I 83 W/m 11,9 C 0,0 km/h (0 Bft)
03.09.2016 08:05 13,6 C 13,6 C 90 % 1018,9 hPa 0,0 mm 0,0 km/h (0 Bft) W-SW 250 0 min 0,000 mm 0,6 UV-I 97 W/m 12,0 C 0,0 km/h (0 Bft)
03.09.2016 08:06 13,7 C 13,7 C 89 % 1018,9 hPa 0,0 mm 0,0 km/h (0 Bft) W-SW 250 0 min 0,000 mm 0,6 UV-I 105 W/m 11,9 C 0,0 km/h (0 Bft)
03.09.2016 08:07 13,7 C 13,7 C 89 % 1018,9 hPa 0,0 mm 0,0 km/h (0 Bft) W-SW 250 0 min 0,000 mm 0,6 UV-I 118 W/m 11,9 C 0,0 km/h (0 Bft)
03.09.2016 08:08 13,7 C 13,7 C 90 % 1018,9 hPa 0,0 mm 0,0 km/h (0 Bft) W-SW 250 0 min 0,000 mm 0,6 UV-I 120 W/m 12,1 C 0,0 km/h (0 Bft)
03.09.2016 08:09 13,8 C 13,8 C 89 % 1018,9 hPa 0,0 mm 0,0 km/h (0 Bft) W-SW 250 0 min 0,000 mm 0,6 UV-I 114 W/m 12,0 C 0,0 km/h (0 Bft)
03.09.2016 08:10 13,8 C 13,8 C 89 % 1019,0 hPa 0,0 mm 0,0 km/h (0 Bft) W-SW 250 0 min 0,000 mm 0,6 UV-I 111 W/m 12,0 C 0,0 km/h (0 Bft)
03.09.2016 08:11 13,8 C 13,8 C 90 % 1019,0 hPa 0,0 mm 0,0 km/h (0 Bft) W-SW 250 0 min 0,000 mm 0,6 UV-I 111 W/m 12,2 C 0,0 km/h (0 Bft)
03.09.2016 08:12 13,9 C 13,9 C 90 % 1019,0 hPa 0,0 mm 0,0 km/h (0 Bft) W-SW 250 0 min 0,000 mm 0,7 UV-I 114 W/m 12,3 C 0,0 km/h (0 Bft)
03.09.2016 08:13 13,9 C 13,9 C 90 % 1019,0 hPa 0,0 mm 0,0 km/h (0 Bft) W-SW 250 0 min 0,000 mm 0,7 UV-I 118 W/m 12,3 C 0,0 km/h (0 Bft)
03.09.2016 08:14 13,9 C 14,0 C 90 % 1019,1 hPa 0,0 mm 0,0 km/h (0 Bft) W-SW 250 0 min 0,000 mm 0,7 UV-I 132 W/m 12,3 C 0,0 km/h (0 Bft)
03.09.2016 08:15 13,9 C 14,0 C 90 % 1019,0 hPa 0,0 mm 0,0 km/h (0 Bft) W-SW 250 0 min 0,000 mm 0,7 UV-I 130 W/m 12,3 C 0,0 km/h (0 Bft)
03.09.2016 08:16 14,0 C 14,0 C 89 % 1019,1 hPa 0,0 mm 0,0 km/h (0 Bft) W-SW 250 0 min 0,000 mm 0,7 UV-I 134 W/m 12,2 C 0,0 km/h (0 Bft)
03.09.2016 08:17 14,1 C 14,1 C 88 % 1019,0 hPa 0,0 mm 0,0 km/h (0 Bft) W-SW 250 1 min 0,000 mm 0,7 UV-I 151 W/m 12,1 C 0,0 km/h (0 Bft)
03.09.2016 08:18 14,1 C 14,1 C 89 % 1019,0 hPa 0,0 mm 0,0 km/h (0 Bft) W-SW 250 1 min 0,000 mm 0,8 UV-I 163 W/m 12,3 C 0,0 km/h (0 Bft)
03.09.2016 08:19 14,2 C 14,2 C 89 % 1019,0 hPa 0,0 mm 0,0 km/h (0 Bft) W-SW 250 1 min 0,000 mm 0,8 UV-I 181 W/m 12,4 C 0,0 km/h (0 Bft)
03.09.2016 08:20 14,3 C 14,3 C 90 % 1019,0 hPa 0,0 mm 0,0 km/h (0 Bft) W-SW 250 1 min 0,000 mm 0,8 UV-I 190 W/m 12,7 C 0,0 km/h (0 Bft)
03.09.2016 08:21 14,3 C 14,3 C 89 % 1019,0 hPa 0,0 mm 0,0 km/h (0 Bft) W-SW 250 1 min 0,000 mm 0,8 UV-I 197 W/m 12,5 C 0,0 km/h (0 Bft)
03.09.2016 08:22 14,4 C 14,4 C 90 % 1019,0 hPa 0,0 mm 0,0 km/h (0 Bft) W-SW 250 1 min 0,000 mm 0,8 UV-I 193 W/m 12,8 C 0,0 km/h (0 Bft)
03.09.2016 08:23 14,4 C 14,4 C 89 % 1019,0 hPa 0,0 mm 0,0 km/h (0 Bft) W-SW 250 1 min 0,000 mm 0,9 UV-I 192 W/m 12,6 C 0,0 km/h (0 Bft)
03.09.2016 08:24 14,4 C 14,4 C 89 % 1019,0 hPa 0,0 mm 0,0 km/h (0 Bft) W-SW 250 1 min 0,000 mm 0,9 UV-I 195 W/m 12,6 C 0,0 km/h (0 Bft)
03.09.2016 08:25 14,4 C 14,4 C 88 % 1019,0 hPa 0,0 mm 0,0 km/h (0 Bft) W-SW 250 1 min 0,000 mm 0,9 UV-I 195 W/m 12,4 C 0,0 km/h (0 Bft)
03.09.2016 08:26 14,4 C 14,5 C 89 % 1019,0 hPa 0,0 mm 0,0 km/h (0 Bft) W-SW 250 1 min 0,000 mm 0,9 UV-I 193 W/m 12,6 C 0,0 km/h (0 Bft)
03.09.2016 08:27 14,4 C 14,4 C 88 % 1019,1 hPa 0,0 mm 0,0 km/h (0 Bft) W-SW 250 1 min 0,000 mm 0,9 UV-I 193 W/m 12,4 C 0,0 km/h (0 Bft)
03.09.2016 08:28 14,4 C 14,4 C 88 % 1019,1 hPa 0,0 mm 0,0 km/h (0 Bft) W-SW 250 1 min 0,000 mm 0,9 UV-I 169 W/m 12,4 C 0,0 km/h (0 Bft)
03.09.2016 08:29 14,4 C 14,4 C 88 % 1019,1 hPa 0,0 mm 0,0 km/h (0 Bft) W-SW 250 1 min 0,000 mm 0,9 UV-I 179 W/m 12,4 C 0,0 km/h (0 Bft)
03.09.2016 08:30 14,6 C 14,6 C 90 % 1019,1 hPa 0,0 mm 0,0 km/h (0 Bft) W-SW 250 1 min 0,000 mm 0,9 UV-I 183 W/m 13,0 C 0,0 km/h (0 Bft)
03.09.2016 08:31 14,6 C 14,6 C 89 % 1019,1 hPa 0,0 mm 0,0 km/h (0 Bft) W-SW 250 1 min 0,000 mm 0,9 UV-I 188 W/m 12,8 C 0,0 km/h (0 Bft)
03.09.2016 08:32 14,6 C 14,6 C 89 % 1019,1 hPa 0,0 mm 0,0 km/h (0 Bft) W-SW 250 1 min 0,000 mm 1,0 UV-I 192 W/m 12,8 C 0,0 km/h (0 Bft)
03.09.2016 08:33 14,6 C 14,6 C 89 % 1019,1 hPa 0,0 mm 0,0 km/h (0 Bft) W-SW 250 1 min 0,000 mm 1,0 UV-I 202 W/m 12,8 C 0,0 km/h (0 Bft)
03.09.2016 08:34 14,7 C 14,7 C 88 % 1019,1 hPa 0,0 mm 0,0 km/h (0 Bft) W-SW 250 1 min 0,000 mm 1,0 UV-I 230 W/m 12,7 C 0,0 km/h (0 Bft)
03.09.2016 08:35 14,7 C 14,7 C 88 % 1019,1 hPa 0,0 mm 0,0 km/h (0 Bft) W-SW 250 1 min 0,000 mm 1,0 UV-I 214 W/m 12,7 C 0,0 km/h (0 Bft)
03.09.2016 08:36 14,8 C 14,8 C 90 % 1019,1 hPa 0,0 mm 0,0 km/h (0 Bft) W-SW 250 1 min 0,000 mm 1,0 UV-I 211 W/m 13,2 C 0,0 km/h (0 Bft)
03.09.2016 08:37 14,8 C 14,8 C 89 % 1019,1 hPa 0,0 mm 0,0 km/h (0 Bft) W-SW 250 1 min 0,000 mm 1,1 UV-I 230 W/m 13,0 C 0,0 km/h (0 Bft)
03.09.2016 08:38 14,8 C 14,8 C 88 % 1019,1 hPa 0,0 mm 0,0 km/h (0 Bft) W-SW 250 1 min 0,000 mm 1,1 UV-I 239 W/m 12,8 C 0,0 km/h (0 Bft)
03.09.2016 08:39 14,9 C 14,9 C 88 % 1019,1 hPa 0,0 mm 0,0 km/h (0 Bft) W-SW 248 1 min 0,000 mm 1,1 UV-I 241 W/m 12,9 C 0,0 km/h (0 Bft)
03.09.2016 08:40 14,9 C 14,9 C 87 % 1019,1 hPa 0,0 mm 0,0 km/h (0 Bft) W-SW 248 1 min 0,000 mm 1,1 UV-I 227 W/m 12,8 C 0,0 km/h (0 Bft)
03.09.2016 08:41 14,9 C 14,9 C 88 % 1019,1 hPa 0,0 mm 0,0 km/h (0 Bft) W-SW 248 1 min 0,000 mm 1,1 UV-I 234 W/m 12,9 C 0,0 km/h (0 Bft)
03.09.2016 08:42 15,1 C 15,1 C 88 % 1019,1 hPa 0,0 mm 0,0 km/h (0 Bft) W-SW 248 1 min 0,000 mm 1,1 UV-I 229 W/m 13,1 C 0,0 km/h (0 Bft)
03.09.2016 08:43 15,2 C 15,2 C 89 % 1019,1 hPa 0,0 mm 0,0 km/h (0 Bft) W-SW 248 1 min 0,000 mm 1,1 UV-I 232 W/m 13,4 C 0,0 km/h (0 Bft)
03.09.2016 08:44 15,2 C 15,2 C 88 % 1019,1 hPa 0,0 mm 0,0 km/h (0 Bft) W-SW 248 1 min 0,000 mm 1,1 UV-I 234 W/m 13,2 C 0,0 km/h (0 Bft)
03.09.2016 08:45 15,3 C 15,3 C 87 % 1019,1 hPa 0,0 mm 0,0 km/h (0 Bft) W-SW 248 1 min 0,000 mm 1,2 UV-I 234 W/m 13,1 C 0,0 km/h (0 Bft)
03.09.2016 08:46 15,4 C 15,4 C 87 % 1019,2 hPa 0,0 mm 0,0 km/h (0 Bft) W-SW 248 1 min 0,000 mm 1,2 UV-I 236 W/m 13,2 C 0,0 km/h (0 Bft)
03.09.2016 08:47 15,4 C 15,4 C 88 % 1019,1 hPa 0,0 mm 0,0 km/h (0 Bft) W-SW 248 1 min 0,000 mm 1,2 UV-I 229 W/m 13,4 C 0,0 km/h (0 Bft)
03.09.2016 08:48 15,6 C 15,6 C 89 % 1019,2 hPa 0,0 mm 0,0 km/h (0 Bft) W-SW 248 1 min 0,000 mm 1,2 UV-I 232 W/m 13,8 C 0,0 km/h (0 Bft)
03.09.2016 08:49 15,6 C 15,6 C 87 % 1019,2 hPa 0,0 mm 0,0 km/h (0 Bft) W-SW 248 1 min 0,000 mm 1,2 UV-I 234 W/m 13,4 C 0,0 km/h (0 Bft)
03.09.2016 08:50 15,7 C 15,7 C 88 % 1019,1 hPa 0,0 mm 0,0 km/h (0 Bft) W-SW 248 1 min 0,000 mm 1,2 UV-I 236 W/m 13,7 C 0,0 km/h (0 Bft)
03.09.2016 08:51 15,7 C 15,7 C 87 % 1019,2 hPa 0,0 mm 0,0 km/h (0 Bft) W-SW 248 1 min 0,000 mm 1,3 UV-I 239 W/m 13,5 C 0,0 km/h (0 Bft)
03.09.2016 08:52 15,8 C 15,8 C 88 % 1019,1 hPa 0,0 mm 0,0 km/h (0 Bft) W-SW 248 1 min 0,000 mm 1,3 UV-I 257 W/m 13,8 C 0,0 km/h (0 Bft)
03.09.2016 08:53 15,8 C 15,8 C 87 % 1019,1 hPa 0,0 mm 0,0 km/h (0 Bft) W-SW 248 1 min 0,000 mm 1,3 UV-I 262 W/m 13,6 C 0,0 km/h (0 Bft)
03.09.2016 08:54 15,9 C 15,9 C 89 % 1019,2 hPa 0,0 mm 0,0 km/h (0 Bft) W 279 1 min 0,000 mm 1,3 UV-I 271 W/m 14,1 C 0,0 km/h (0 Bft)
03.09.2016 08:55 16,1 C 16,1 C 88 % 1019,2 hPa 0,0 mm 0,0 km/h (0 Bft) W 279 1 min 0,000 mm 1,4 UV-I 276 W/m 14,1 C 0,0 km/h (0 Bft)
03.09.2016 08:56 16,1 C 16,1 C 88 % 1019,2 hPa 0,0 mm 0,0 km/h (0 Bft) W 279 1 min 0,000 mm 1,4 UV-I 283 W/m 14,1 C 0,0 km/h (0 Bft)
03.09.2016 08:57 16,1 C 16,1 C 87 % 1019,2 hPa 0,0 mm 0,0 km/h (0 Bft) W 279 1 min 0,000 mm 1,4 UV-I 295 W/m 13,9 C 0,0 km/h (0 Bft)
03.09.2016 08:58 16,3 C 16,3 C 87 % 1019,2 hPa 0,0 mm 0,0 km/h (0 Bft) W 279 1 min 0,000 mm 1,4 UV-I 302 W/m 14,1 C 0,0 km/h (0 Bft)
03.09.2016 08:59 16,4 C 16,4 C 85 % 1019,2 hPa 0,0 mm 0,0 km/h (0 Bft) W 279 1 min 0,000 mm 1,5 UV-I 302 W/m 13,9 C 0,0 km/h (0 Bft)
03.09.2016 09:00 16,5 C 16,5 C 85 % 1019,2 hPa 0,0 mm 0,0 km/h (0 Bft) W 279 1 min 0,102 mm 1,5 UV-I 301 W/m 14,0 C 0,0 km/h (0 Bft)
03.09.2016 09:01 16,6 C 16,6 C 87 % 1019,2 hPa 0,0 mm 0,0 km/h (0 Bft) W 279 1 min 0,000 mm 1,5 UV-I 301 W/m 14,4 C 0,0 km/h (0 Bft)
03.09.2016 09:02 16,6 C 16,6 C 86 % 1019,2 hPa 0,0 mm 0,0 km/h (0 Bft) W 279 1 min 0,000 mm 1,5 UV-I 297 W/m 14,2 C 0,0 km/h (0 Bft)
03.09.2016 09:03 16,4 C 16,6 C 85 % 1019,3 hPa 0,0 mm 0,0 km/h (0 Bft) W 279 1 min 0,000 mm 1,5 UV-I 287 W/m 13,9 C 0,0 km/h (0 Bft)
03.09.2016 09:04 16,3 C 16,4 C 85 % 1019,2 hPa 0,0 mm 0,0 km/h (0 Bft) W 279 1 min 0,000 mm 1,5 UV-I 283 W/m 13,8 C 0,0 km/h (0 Bft)
03.09.2016 09:05 16,3 C 16,3 C 85 % 1019,2 hPa 0,0 mm 0,0 km/h (0 Bft) W 279 1 min 0,000 mm 1,5 UV-I 292 W/m 13,8 C 0,0 km/h (0 Bft)
03.09.2016 09:06 16,3 C 16,3 C 86 % 1019,2 hPa 0,0 mm 0,0 km/h (0 Bft) W 279 1 min 0,000 mm 1,5 UV-I 290 W/m 14,0 C 0,0 km/h (0 Bft)
03.09.2016 09:07 16,3 C 16,3 C 84 % 1019,2 hPa 0,0 mm 0,0 km/h (0 Bft) W 279 1 min 0,000 mm 1,6 UV-I 294 W/m 13,6 C 0,0 km/h (0 Bft)
03.09.2016 09:08 16,4 C 16,4 C 88 % 1019,2 hPa 0,0 mm 0,0 km/h (0 Bft) W 279 1 min 0,000 mm 1,6 UV-I 287 W/m 14,4 C 0,0 km/h (0 Bft)
03.09.2016 09:09 16,6 C 16,6 C 87 % 1019,2 hPa 0,0 mm 0,0 km/h (0 Bft) W 279 1 min 0,000 mm 1,6 UV-I 267 W/m 14,4 C 0,0 km/h (0 Bft)
03.09.2016 09:10 16,7 C 16,7 C 86 % 1019,3 hPa 0,0 mm 0,0 km/h (0 Bft) W 279 1 min 0,000 mm 1,6 UV-I 255 W/m 14,3 C 0,0 km/h (0 Bft)
03.09.2016 09:11 16,7 C 16,7 C 85 % 1019,3 hPa 0,0 mm 0,0 km/h (0 Bft) W 279 1 min 0,000 mm 1,6 UV-I 253 W/m 14,2 C 0,0 km/h (0 Bft)
03.09.2016 09:12 16,6 C 16,7 C 84 % 1019,3 hPa 0,0 mm 0,0 km/h (0 Bft) W 279 1 min 0,000 mm 1,6 UV-I 274 W/m 13,9 C 0,0 km/h (0 Bft)
03.09.2016 09:13 16,6 C 16,6 C 84 % 1019,3 hPa 0,0 mm 0,0 km/h (0 Bft) W 279 1 min 0,000 mm 1,7 UV-I 294 W/m 13,9 C 0,0 km/h (0 Bft)
03.09.2016 09:14 16,6 C 16,6 C 85 % 1019,3 hPa 0,0 mm 0,0 km/h (0 Bft) W 279 1 min 0,000 mm 1,7 UV-I 290 W/m 14,1 C 0,0 km/h (0 Bft)
03.09.2016 09:15 16,7 C 16,7 C 85 % 1019,3 hPa 0,0 mm 0,0 km/h (0 Bft) W 279 1 min 0,000 mm 1,7 UV-I 288 W/m 14,2 C 0,0 km/h (0 Bft)
03.09.2016 09:16 16,7 C 16,7 C 85 % 1019,3 hPa 0,0 mm 0,0 km/h (0 Bft) W 279 1 min 0,000 mm 1,8 UV-I 301 W/m 14,2 C 0,0 km/h (0 Bft)
03.09.2016 09:17 16,7 C 16,7 C 85 % 1019,3 hPa 0,0 mm 0,0 km/h (0 Bft) W 279 1 min 0,000 mm 1,8 UV-I 322 W/m 14,2 C 0,0 km/h (0 Bft)
03.09.2016 09:18 16,8 C 16,8 C 84 % 1019,3 hPa 0,0 mm 0,0 km/h (0 Bft) W 279 1 min 0,000 mm 1,9 UV-I 332 W/m 14,1 C 0,0 km/h (0 Bft)
03.09.2016 09:19 16,8 C 16,8 C 84 % 1019,3 hPa 0,0 mm 0,0 km/h (0 Bft) W 279 1 min 0,000 mm 1,9 UV-I 325 W/m 14,1 C 0,0 km/h (0 Bft)
03.09.2016 09:20 16,9 C 16,9 C 87 % 1019,3 hPa 0,0 mm 0,0 km/h (0 Bft) W 279 1 min 0,000 mm 1,9 UV-I 345 W/m 14,7 C 0,0 km/h (0 Bft)
03.09.2016 09:21 16,9 C 16,9 C 85 % 1019,3 hPa 0,0 mm 0,0 km/h (0 Bft) W 279 1 min 0,000 mm 2,0 UV-I 352 W/m 14,4 C 0,0 km/h (0 Bft)
03.09.2016 09:22 16,8 C 16,9 C 85 % 1019,3 hPa 0,0 mm 0,0 km/h (0 Bft) W 279 1 min 0,000 mm 2,1 UV-I 380 W/m 14,3 C 0,0 km/h (0 Bft)
03.09.2016 09:23 16,9 C 16,9 C 84 % 1019,3 hPa 0,0 mm 0,0 km/h (0 Bft) W 279 1 min 0,000 mm 2,1 UV-I 392 W/m 14,2 C 0,0 km/h (0 Bft)
03.09.2016 09:24 17,1 C 17,1 C 85 % 1019,3 hPa 0,0 mm 0,0 km/h (0 Bft) W 279 1 min 0,000 mm 2,1 UV-I 374 W/m 14,6 C 0,0 km/h (0 Bft)
03.09.2016 09:25 17,1 C 17,1 C 84 % 1019,3 hPa 0,0 mm 0,0 km/h (0 Bft) W 279 1 min 0,000 mm 2,1 UV-I 381 W/m 14,4 C 0,0 km/h (0 Bft)
03.09.2016 09:26 17,1 C 17,1 C 83 % 1019,3 hPa 0,0 mm 0,0 km/h (0 Bft) W 279 1 min 0,000 mm 2,2 UV-I 388 W/m 14,2 C 0,0 km/h (0 Bft)
03.09.2016 09:27 17,1 C 17,1 C 84 % 1019,3 hPa 0,0 mm 0,0 km/h (0 Bft) W 279 1 min 0,000 mm 2,1 UV-I 392 W/m 14,4 C 0,0 km/h (0 Bft)
03.09.2016 09:28 17,2 C 17,2 C 83 % 1019,3 hPa 0,0 mm 0,0 km/h (0 Bft) W 279 1 min 0,000 mm 2,2 UV-I 383 W/m 14,3 C 0,0 km/h (0 Bft)
03.09.2016 09:29 17,2 C 17,2 C 84 % 1019,4 hPa 0,0 mm 0,0 km/h (0 Bft) W 279 1 min 0,000 mm 2,2 UV-I 390 W/m 14,5 C 0,0 km/h (0 Bft)
03.09.2016 09:30 17,3 C 17,3 C 83 % 1019,3 hPa 0,0 mm 0,0 km/h (0 Bft) W 279 1 min 0,000 mm 2,2 UV-I 404 W/m 14,4 C 0,0 km/h (0 Bft)
03.09.2016 09:31 17,3 C 17,3 C 85 % 1019,3 hPa 0,0 mm 0,0 km/h (0 Bft) W 279 1 min 0,000 mm 2,2 UV-I 380 W/m 14,8 C 0,0 km/h (0 Bft)
03.09.2016 09:32 17,4 C 17,4 C 83 % 1019,3 hPa 0,0 mm 0,0 km/h (0 Bft) W 279 1 min 0,000 mm 2,2 UV-I 403 W/m 14,5 C 0,0 km/h (0 Bft)
03.09.2016 09:33 17,4 C 17,4 C 82 % 1019,4 hPa 0,0 mm 0,0 km/h (0 Bft) W 279 1 min 0,000 mm 2,2 UV-I 406 W/m 14,3 C 0,0 km/h (0 Bft)
03.09.2016 09:34 17,5 C 17,5 C 82 % 1019,3 hPa 0,0 mm 0,0 km/h (0 Bft) W 279 1 min 0,000 mm 2,2 UV-I 371 W/m 14,4 C 0,0 km/h (0 Bft)
03.09.2016 09:35 17,6 C 17,6 C 84 % 1019,4 hPa 0,0 mm 0,0 km/h (0 Bft) W 279 1 min 0,000 mm 2,3 UV-I 394 W/m 14,9 C 0,0 km/h (0 Bft)
03.09.2016 09:36 17,7 C 17,7 C 83 % 1019,4 hPa 0,0 mm 0,0 km/h (0 Bft) W 279 1 min 0,000 mm 2,3 UV-I 392 W/m 14,8 C 0,0 km/h (0 Bft)
03.09.2016 09:37 17,7 C 17,7 C 83 % 1019,4 hPa 0,0 mm 0,0 km/h (0 Bft) W 279 1 min 0,000 mm 2,3 UV-I 401 W/m 14,8 C 0,0 km/h (0 Bft)
03.09.2016 09:38 17,8 C 17,8 C 82 % 1019,4 hPa 0,0 mm 0,0 km/h (0 Bft) W 279 1 min 0,000 mm 2,4 UV-I 418 W/m 14,7 C 0,0 km/h (0 Bft)
03.09.2016 09:39 17,8 C 17,8 C 81 % 1019,4 hPa 0,0 mm 0,0 km/h (0 Bft) W 279 1 min 0,000 mm 2,4 UV-I 427 W/m 14,5 C 0,0 km/h (0 Bft)
03.09.2016 09:40 17,9 C 17,9 C 80 % 1019,4 hPa 0,0 mm 0,0 km/h (0 Bft) W 279 1 min 0,000 mm 2,4 UV-I 431 W/m 14,4 C 0,0 km/h (0 Bft)
03.09.2016 09:41 18,1 C 18,1 C 80 % 1019,4 hPa 0,0 mm 0,0 km/h (0 Bft) W 279 1 min 0,000 mm 2,4 UV-I 420 W/m 14,6 C 0,0 km/h (0 Bft)
03.09.2016 09:42 18,1 C 18,2 C 80 % 1019,4 hPa 0,0 mm 0,0 km/h (0 Bft) W 279 1 min 0,000 mm 2,4 UV-I 420 W/m 14,6 C 0,0 km/h (0 Bft)
03.09.2016 09:43 18,2 C 18,2 C 81 % 1019,4 hPa 0,0 mm 0,0 km/h (0 Bft) W 279 1 min 0,000 mm 2,4 UV-I 432 W/m 14,9 C 0,0 km/h (0 Bft)
03.09.2016 09:44 18,2 C 18,2 C 81 % 1019,4 hPa 0,0 mm 0,0 km/h (0 Bft) W 279 1 min 0,000 mm 2,4 UV-I 422 W/m 14,9 C 0,0 km/h (0 Bft)
03.09.2016 09:45 18,3 C 18,3 C 82 % 1019,4 hPa 0,0 mm 0,0 km/h (0 Bft) W 279 1 min 0,000 mm 2,4 UV-I 397 W/m 15,2 C 0,0 km/h (0 Bft)
03.09.2016 09:46 18,3 C 18,3 C 82 % 1019,4 hPa 0,0 mm 0,0 km/h (0 Bft) W 279 1 min 0,000 mm 2,5 UV-I 411 W/m 15,2 C 0,0 km/h (0 Bft)
03.09.2016 09:47 18,3 C 18,4 C 82 % 1019,4 hPa 0,0 mm 0,0 km/h (0 Bft) W 279 1 min 0,000 mm 2,5 UV-I 427 W/m 15,2 C 0,0 km/h (0 Bft)
03.09.2016 09:48 18,3 C 18,4 C 82 % 1019,4 hPa 0,0 mm 0,0 km/h (0 Bft) W 279 1 min 0,000 mm 2,4 UV-I 417 W/m 15,2 C 0,0 km/h (0 Bft)
03.09.2016 09:49 18,3 C 18,3 C 83 % 1019,4 hPa 0,0 mm 0,0 km/h (0 Bft) W 279 1 min 0,000 mm 2,4 UV-I 362 W/m 15,4 C 0,0 km/h (0 Bft)
03.09.2016 09:50 18,3 C 18,3 C 81 % 1019,4 hPa 0,0 mm 0,0 km/h (0 Bft) W 279 1 min 0,000 mm 2,4 UV-I 373 W/m 15,0 C 0,0 km/h (0 Bft)
03.09.2016 09:51 18,4 C 18,4 C 80 % 1019,4 hPa 0,0 mm 0,0 km/h (0 Bft) W 279 1 min 0,000 mm 2,4 UV-I 373 W/m 14,9 C 0,0 km/h (0 Bft)
03.09.2016 09:52 18,4 C 18,4 C 80 % 1019,4 hPa 0,0 mm 0,0 km/h (0 Bft) W 279 1 min 0,000 mm 2,5 UV-I 381 W/m 14,9 C 0,0 km/h (0 Bft)
03.09.2016 09:53 18,5 C 18,5 C 80 % 1019,4 hPa 0,0 mm 0,0 km/h (0 Bft) W 279 1 min 0,000 mm 2,5 UV-I 392 W/m 15,0 C 0,0 km/h (0 Bft)
03.09.2016 09:54 18,7 C 18,7 C 79 % 1019,4 hPa 0,0 mm 0,0 km/h (0 Bft) W 279 1 min 0,000 mm 2,6 UV-I 408 W/m 15,0 C 0,0 km/h (0 Bft)
03.09.2016 09:55 18,7 C 18,7 C 80 % 1019,5 hPa 0,0 mm 0,0 km/h (0 Bft) W 279 1 min 0,000 mm 2,6 UV-I 406 W/m 15,2 C 0,0 km/h (0 Bft)
03.09.2016 09:56 18,8 C 18,8 C 80 % 1019,4 hPa 0,0 mm 0,0 km/h (0 Bft) W 279 1 min 0,000 mm 2,8 UV-I 480 W/m 15,3 C 0,0 km/h (0 Bft)
03.09.2016 09:57 18,8 C 18,8 C 81 % 1019,4 hPa 0,0 mm 0,0 km/h (0 Bft) W 279 1 min 0,000 mm 2,9 UV-I 490 W/m 15,5 C 0,0 km/h (0 Bft)
03.09.2016 09:58 18,8 C 18,8 C 79 % 1019,5 hPa 0,0 mm 0,0 km/h (0 Bft) W 279 1 min 0,000 mm 3,0 UV-I 503 W/m 15,1 C 0,0 km/h (0 Bft)
03.09.2016 09:59 18,8 C 18,8 C 81 % 1019,4 hPa 0,0 mm 0,0 km/h (0 Bft) W 274 1 min 0,000 mm 3,0 UV-I 510 W/m 15,5 C 0,0 km/h (0 Bft)
03.09.2016 10:00 18,8 C 18,8 C 78 % 1019,5 hPa 0,0 mm 0,0 km/h (0 Bft) W 274 1 min 0,203 mm 3,0 UV-I 515 W/m 14,9 C 0,0 km/h (0 Bft)
03.09.2016 10:01 18,8 C 18,8 C 77 % 1019,5 hPa 0,0 mm 0,0 km/h (0 Bft) W 274 1 min 0,000 mm 3,1 UV-I 520 W/m 14,7 C 0,0 km/h (0 Bft)
03.09.2016 10:02 18,8 C 18,8 C 77 % 1019,4 hPa 0,0 mm 0,0 km/h (0 Bft) W 274 1 min 0,000 mm 3,1 UV-I 464 W/m 14,7 C 0,0 km/h (0 Bft)
03.09.2016 10:03 18,8 C 18,8 C 79 % 1019,5 hPa 0,0 mm 0,0 km/h (0 Bft) W 274 1 min 0,000 mm 3,1 UV-I 519 W/m 15,1 C 0,0 km/h (0 Bft)
03.09.2016 10:04 18,8 C 18,8 C 77 % 1019,5 hPa 0,0 mm 0,0 km/h (0 Bft) W 274 1 min 0,000 mm 3,0 UV-I 459 W/m 14,7 C 0,0 km/h (0 Bft)
03.09.2016 10:05 18,8 C 18,8 C 78 % 1019,4 hPa 0,0 mm 0,0 km/h (0 Bft) W 274 1 min 0,000 mm 3,1 UV-I 487 W/m 14,9 C 0,0 km/h (0 Bft)
03.09.2016 10:06 18,8 C 18,8 C 78 % 1019,4 hPa 0,0 mm 0,0 km/h (0 Bft) W 274 1 min 0,000 mm 3,2 UV-I 487 W/m 14,9 C 0,0 km/h (0 Bft)
03.09.2016 10:07 18,9 C 18,9 C 78 % 1019,4 hPa 0,0 mm 0,0 km/h (0 Bft) W 274 1 min 0,000 mm 3,2 UV-I 547 W/m 15,0 C 0,0 km/h (0 Bft)
03.09.2016 10:08 19,0 C 19,0 C 78 % 1019,4 hPa 0,0 mm 0,0 km/h (0 Bft) W 274 1 min 0,000 mm 3,2 UV-I 543 W/m 15,1 C 0,0 km/h (0 Bft)
03.09.2016 10:09 19,2 C 19,2 C 76 % 1019,4 hPa 0,0 mm 0,0 km/h (0 Bft) W 273 1 min 0,000 mm 3,2 UV-I 548 W/m 14,9 C 0,0 km/h (0 Bft)
03.09.2016 10:10 19,3 C 19,3 C 76 % 1019,4 hPa 0,0 mm 0,0 km/h (0 Bft) W 273 1 min 0,000 mm 3,3 UV-I 547 W/m 15,0 C 0,0 km/h (0 Bft)
03.09.2016 10:11 19,3 C 19,3 C 76 % 1019,4 hPa 0,0 mm 0,0 km/h (0 Bft) NW 318 1 min 0,000 mm 3,3 UV-I 545 W/m 15,0 C 0,0 km/h (0 Bft)
03.09.2016 10:12 19,3 C 19,3 C 79 % 1019,4 hPa 0,0 mm 0,0 km/h (0 Bft) W 275 1 min 0,000 mm 3,3 UV-I 548 W/m 15,6 C 0,0 km/h (0 Bft)
03.09.2016 10:13 19,5 C 19,5 C 78 % 1019,5 hPa 0,0 mm 0,0 km/h (0 Bft) N-NW 331 1 min 0,000 mm 3,3 UV-I 536 W/m 15,6 C 0,0 km/h (0 Bft)
03.09.2016 10:14 19,8 C 19,8 C 78 % 1019,5 hPa 0,0 mm 0,0 km/h (0 Bft) W-NW 295 1 min 0,000 mm 3,3 UV-I 568 W/m 15,8 C 0,0 km/h (0 Bft)
03.09.2016 10:15 20,1 C 20,1 C 72 % 1019,5 hPa 0,0 mm 0,0 km/h (0 Bft) NO 44 1 min 0,000 mm 3,3 UV-I 568 W/m 14,9 C 0,0 km/h (0 Bft)
03.09.2016 10:16 20,4 C 20,4 C 77 % 1019,4 hPa 0,0 mm 0,0 km/h (0 Bft) NW 315 1 min 0,000 mm 3,3 UV-I 541 W/m 16,2 C 0,0 km/h (0 Bft)
03.09.2016 10:17 20,6 C 20,6 C 69 % 1019,4 hPa 0,0 mm 0,0 km/h (0 Bft) NW 315 1 min 0,000 mm 3,3 UV-I 570 W/m 14,7 C 0,0 km/h (0 Bft)
03.09.2016 10:18 20,6 C 20,7 C 70 % 1019,4 hPa 0,0 mm 0,0 km/h (0 Bft) NW 315 1 min 0,000 mm 2,7 UV-I 570 W/m 14,9 C 0,0 km/h (0 Bft)
03.09.2016 10:19 20,7 C 20,7 C 69 % 1019,5 hPa 0,0 mm 0,0 km/h (0 Bft) NW 315 1 min 0,000 mm 2,7 UV-I 318 W/m 14,8 C 0,0 km/h (0 Bft)
03.09.2016 10:20 20,7 C 20,7 C 70 % 1019,5 hPa 0,0 mm 0,0 km/h (0 Bft) W-NW 293 1 min 0,000 mm 3,4 UV-I 318 W/m 15,0 C 0,0 km/h (0 Bft)
03.09.2016 10:21 20,8 C 20,8 C 72 % 1019,4 hPa 0,0 mm 0,0 km/h (0 Bft) NW 304 1 min 0,000 mm 3,4 UV-I 563 W/m 15,6 C 0,0 km/h (0 Bft)
03.09.2016 10:22 20,9 C 20,9 C 70 % 1019,4 hPa 0,0 mm 4,6 km/h (1 Bft) W 260 1 min 0,000 mm 3,3 UV-I 536 W/m 15,2 C 11,3 km/h (2 Bft)
03.09.2016 10:23 20,8 C 20,9 C 70 % 1019,4 hPa 0,0 mm 3,5 km/h (1 Bft) W-SW 250 1 min 0,000 mm 3,5 UV-I 536 W/m 15,1 C 9,7 km/h (2 Bft)
03.09.2016 10:24 20,9 C 20,9 C 74 % 1019,4 hPa 0,0 mm 2,8 km/h (1 Bft) W-NW 297 1 min 0,000 mm 3,5 UV-I 536 W/m 16,1 C 4,8 km/h (1 Bft)
03.09.2016 10:25 20,9 C 20,9 C 72 % 1019,4 hPa 0,0 mm 2,9 km/h (1 Bft) W 279 1 min 0,000 mm 3,5 UV-I 570 W/m 15,7 C 4,8 km/h (1 Bft)
03.09.2016 10:26 21,0 C 21,0 C 69 % 1019,4 hPa 0,0 mm 2,7 km/h (1 Bft) NW 311 1 min 0,000 mm 3,6 UV-I 580 W/m 15,1 C 8,0 km/h (2 Bft)
03.09.2016 10:27 21,1 C 21,1 C 69 % 1019,5 hPa 0,0 mm 4,8 km/h (1 Bft) NW 325 1 min 0,000 mm 3,6 UV-I 589 W/m 15,2 C 11,3 km/h (2 Bft)
03.09.2016 10:28 21,1 C 21,1 C 68 % 1019,4 hPa 0,0 mm 8,4 km/h (2 Bft) NW 307 1 min 0,000 mm 3,6 UV-I 582 W/m 15,0 C 12,9 km/h (3 Bft)
03.09.2016 10:29 21,2 C 21,2 C 70 % 1019,5 hPa 0,0 mm 6,4 km/h (2 Bft) SW 233 1 min 0,000 mm 3,5 UV-I 552 W/m 15,5 C 8,0 km/h (2 Bft)
03.09.2016 10:30 21,2 C 21,2 C 66 % 1019,4 hPa 0,0 mm 7,3 km/h (2 Bft) W-NW 286 1 min 0,000 mm 3,6 UV-I 563 W/m 14,6 C 11,3 km/h (2 Bft)
03.09.2016 10:31 21,2 C 21,2 C 65 % 1019,5 hPa 0,0 mm 10,9 km/h (2 Bft) W-NW 291 1 min 0,000 mm 3,6 UV-I 527 W/m 14,4 C 16,1 km/h (3 Bft)
03.09.2016 10:32 21,2 C 21,2 C 66 % 1019,5 hPa 0,0 mm 8,0 km/h (2 Bft) W-NW 302 1 min 0,000 mm 3,6 UV-I 552 W/m 14,6 C 12,9 km/h (3 Bft)
03.09.2016 10:33 21,2 C 21,2 C 66 % 1019,5 hPa 0,0 mm 8,6 km/h (2 Bft) NW 324 1 min 0,000 mm 3,7 UV-I 570 W/m 14,6 C 12,9 km/h (3 Bft)
03.09.2016 10:34 21,1 C 21,2 C 67 % 1019,5 hPa 0,0 mm 11,0 km/h (2 Bft) W-NW 284 1 min 0,000 mm 3,7 UV-I 578 W/m 14,7 C 17,7 km/h (3 Bft)
03.09.2016 10:35 21,1 C 21,1 C 66 % 1019,5 hPa 0,0 mm 12,5 km/h (3 Bft) W 269 1 min 0,000 mm 3,8 UV-I 591 W/m 14,5 C 16,1 km/h (3 Bft)
03.09.2016 10:36 21,1 C 21,1 C 65 % 1019,5 hPa 0,0 mm 7,9 km/h (2 Bft) W 279 1 min 0,000 mm 3,8 UV-I 594 W/m 14,3 C 12,9 km/h (3 Bft)
03.09.2016 10:37 21,1 C 21,1 C 63 % 1019,5 hPa 0,0 mm 5,4 km/h (1 Bft) W-NW 286 1 min 0,000 mm 3,8 UV-I 585 W/m 13,8 C 8,0 km/h (2 Bft)
03.09.2016 10:38 21,1 C 21,1 C 68 % 1019,5 hPa 0,0 mm 6,2 km/h (2 Bft) W 278 1 min 0,000 mm 3,7 UV-I 577 W/m 15,0 C 9,7 km/h (2 Bft)
03.09.2016 10:39 21,1 C 21,1 C 68 % 1019,5 hPa 0,0 mm 9,2 km/h (2 Bft) W 262 1 min 0,000 mm 3,9 UV-I 575 W/m 15,0 C 14,5 km/h (3 Bft)
03.09.2016 10:40 21,1 C 21,1 C 68 % 1019,6 hPa 0,0 mm 11,7 km/h (2 Bft) W 262 1 min 0,000 mm 3,9 UV-I 599 W/m 15,0 C 16,1 km/h (3 Bft)
03.09.2016 10:41 21,1 C 21,1 C 61 % 1019,5 hPa 0,0 mm 8,6 km/h (2 Bft) W-NW 295 1 min 0,000 mm 3,9 UV-I 603 W/m 13,3 C 17,7 km/h (3 Bft)
03.09.2016 10:42 21,0 C 21,1 C 64 % 1019,5 hPa 0,0 mm 5,8 km/h (2 Bft) W-NW 291 1 min 0,000 mm 3,9 UV-I 603 W/m 13,9 C 11,3 km/h (2 Bft)
03.09.2016 10:43 21,1 C 21,1 C 65 % 1019,6 hPa 0,0 mm 4,9 km/h (1 Bft) W-NW 295 1 min 0,000 mm 3,9 UV-I 606 W/m 14,3 C 9,7 km/h (2 Bft)
03.09.2016 10:44 21,1 C 21,1 C 66 % 1019,6 hPa 0,0 mm 6,5 km/h (2 Bft) W-NW 300 1 min 0,000 mm 3,9 UV-I 592 W/m 14,5 C 17,7 km/h (3 Bft)
03.09.2016 10:45 21,1 C 21,1 C 66 % 1019,6 hPa 0,0 mm 10,9 km/h (2 Bft) W 271 1 min 0,000 mm 4,0 UV-I 605 W/m 14,5 C 17,7 km/h (3 Bft)
03.09.2016 10:46 21,1 C 21,1 C 63 % 1019,6 hPa 0,0 mm 11,3 km/h (2 Bft) W-NW 298 1 min 0,000 mm 4,0 UV-I 606 W/m 13,8 C 14,5 km/h (3 Bft)
03.09.2016 10:47 21,2 C 21,2 C 64 % 1019,6 hPa 0,0 mm 7,1 km/h (2 Bft) NW 313 1 min 0,000 mm 4,0 UV-I 606 W/m 14,1 C 9,7 km/h (2 Bft)
03.09.2016 10:48 21,2 C 21,2 C 67 % 1019,6 hPa 0,0 mm 6,2 km/h (2 Bft) W-NW 303 1 min 0,000 mm 3,9 UV-I 601 W/m 14,8 C 9,7 km/h (2 Bft)
03.09.2016 10:49 21,3 C 21,3 C 64 % 1019,5 hPa 0,0 mm 4,1 km/h (1 Bft) W-NW 302 1 min 0,000 mm 3,8 UV-I 564 W/m 14,2 C 6,4 km/h (2 Bft)
03.09.2016 10:50 21,3 C 21,3 C 66 % 1019,5 hPa 0,0 mm 5,1 km/h (1 Bft) NW 318 1 min 0,000 mm 4,0 UV-I 601 W/m 14,7 C 11,3 km/h (2 Bft)
03.09.2016 10:51 21,3 C 21,3 C 67 % 1019,5 hPa 0,0 mm 6,8 km/h (2 Bft) W 281 1 min 0,000 mm 3,8 UV-I 561 W/m 14,9 C 9,7 km/h (2 Bft)
03.09.2016 10:52 21,3 C 21,3 C 62 % 1019,6 hPa 0,0 mm 7,1 km/h (2 Bft) W-NW 302 1 min 0,000 mm 3,9 UV-I 570 W/m 13,7 C 11,3 km/h (2 Bft)
03.09.2016 10:53 21,3 C 21,3 C 61 % 1019,6 hPa 0,0 mm 6,3 km/h (2 Bft) N-NW 338 1 min 0,000 mm 3,8 UV-I 545 W/m 13,5 C 14,5 km/h (3 Bft)
03.09.2016 10:54 21,2 C 21,3 C 63 % 1019,6 hPa 0,0 mm 8,6 km/h (2 Bft) W-NW 297 1 min 0,000 mm 3,7 UV-I 513 W/m 13,9 C 12,9 km/h (3 Bft)
03.09.2016 10:55 21,2 C 21,2 C 63 % 1019,6 hPa 0,0 mm 6,2 km/h (2 Bft) W-NW 302 1 min 0,000 mm 3,6 UV-I 512 W/m 13,9 C 9,7 km/h (2 Bft)
03.09.2016 10:56 21,2 C 21,2 C 65 % 1019,6 hPa 0,0 mm 5,8 km/h (2 Bft) W 266 1 min 0,000 mm 4,0 UV-I 563 W/m 14,4 C 9,7 km/h (2 Bft)
03.09.2016 10:57 21,2 C 21,2 C 63 % 1019,5 hPa 0,0 mm 7,5 km/h (2 Bft) W 266 1 min 0,000 mm 4,1 UV-I 613 W/m 13,9 C 11,3 km/h (2 Bft)
03.09.2016 10:58 21,2 C 21,2 C 67 % 1019,5 hPa 0,0 mm 5,1 km/h (1 Bft) N-NW 329 1 min 0,000 mm 4,2 UV-I 628 W/m 14,8 C 9,7 km/h (2 Bft)
03.09.2016 10:59 21,3 C 21,3 C 67 % 1019,5 hPa 0,0 mm 5,0 km/h (1 Bft) W-NW 294 1 min 0,000 mm 4,2 UV-I 633 W/m 14,9 C 9,7 km/h (2 Bft)
03.09.2016 11:00 21,5 C 21,5 C 65 % 1019,5 hPa 0,0 mm 7,2 km/h (2 Bft) W-NW 288 1 min 0,000 mm 4,3 UV-I 638 W/m 14,6 C 12,9 km/h (3 Bft)
03.09.2016 11:01 21,6 C 21,6 C 66 % 1019,5 hPa 0,0 mm 9,4 km/h (2 Bft) W-NW 282 1 min 0,330 mm 4,3 UV-I 650 W/m 15,0 C 12,9 km/h (3 Bft)
03.09.2016 11:02 21,6 C 21,7 C 64 % 1019,5 hPa 0,0 mm 10,3 km/h (2 Bft) W 277 1 min 0,000 mm 4,4 UV-I 656 W/m 14,5 C 14,5 km/h (3 Bft)
03.09.2016 11:03 21,5 C 21,6 C 63 % 1019,5 hPa 0,0 mm 9,0 km/h (2 Bft) W 269 1 min 0,000 mm 4,5 UV-I 664 W/m 14,2 C 16,1 km/h (3 Bft)
03.09.2016 11:04 21,4 C 21,5 C 62 % 1019,6 hPa 0,0 mm 8,8 km/h (2 Bft) W 268 1 min 0,000 mm 4,5 UV-I 677 W/m 13,8 C 16,1 km/h (3 Bft)
03.09.2016 11:05 21,3 C 21,4 C 65 % 1019,6 hPa 0,0 mm 9,8 km/h (2 Bft) NW 304 1 min 0,000 mm 4,6 UV-I 691 W/m 14,4 C 12,9 km/h (3 Bft)
03.09.2016 11:06 21,3 C 21,3 C 67 % 1019,5 hPa 0,0 mm 8,2 km/h (2 Bft) NW 309 1 min 0,000 mm 4,7 UV-I 729 W/m 14,9 C 12,9 km/h (3 Bft)
03.09.2016 11:07 21,4 C 21,4 C 63 % 1019,6 hPa 0,0 mm 5,1 km/h (1 Bft) W 271 1 min 0,000 mm 4,6 UV-I 684 W/m 14,1 C 11,3 km/h (2 Bft)
03.09.2016 11:08 21,3 C 21,4 C 63 % 1019,5 hPa 0,0 mm 6,3 km/h (2 Bft) W-NW 296 1 min 0,000 mm 4,8 UV-I 722 W/m 14,0 C 12,9 km/h (3 Bft)
03.09.2016 11:09 21,3 C 21,3 C 63 % 1019,6 hPa 0,0 mm 6,9 km/h (2 Bft) W 279 1 min 0,000 mm 4,5 UV-I 687 W/m 14,0 C 9,7 km/h (2 Bft)
03.09.2016 11:10 21,3 C 21,3 C 66 % 1019,6 hPa 0,0 mm 4,4 km/h (1 Bft) W-SW 254 1 min 0,000 mm 4,1 UV-I 605 W/m 14,7 C 9,7 km/h (2 Bft)
03.09.2016 11:11 21,3 C 21,3 C 64 % 1019,6 hPa 0,0 mm 3,7 km/h (1 Bft) W 265 1 min 0,000 mm 3,9 UV-I 605 W/m 14,2 C 4,8 km/h (1 Bft)
03.09.2016 11:12 21,3 C 21,3 C 64 % 1019,6 hPa 0,0 mm 5,0 km/h (1 Bft) W-NW 298 1 min 0,000 mm 4,1 UV-I 464 W/m 14,2 C 11,3 km/h (2 Bft)
03.09.2016 11:13 21,3 C 21,3 C 66 % 1019,6 hPa 0,0 mm 3,6 km/h (1 Bft) NW 307 1 min 0,000 mm 3,6 UV-I 424 W/m 14,7 C 4,8 km/h (1 Bft)
03.09.2016 11:14 21,2 C 21,3 C 64 % 1019,5 hPa 0,0 mm 6,8 km/h (2 Bft) NW 307 1 min 0,000 mm 3,6 UV-I 418 W/m 14,1 C 9,7 km/h (2 Bft)
03.09.2016 11:15 21,2 C 21,2 C 66 % 1019,6 hPa 0,0 mm 6,1 km/h (2 Bft) NW 310 1 min 0,000 mm 3,6 UV-I 413 W/m 14,6 C 8,0 km/h (2 Bft)
03.09.2016 11:16 21,2 C 21,2 C 68 % 1019,5 hPa 0,0 mm 5,2 km/h (1 Bft) NW 304 1 min 0,000 mm 3,6 UV-I 413 W/m 15,1 C 8,0 km/h (2 Bft)
03.09.2016 11:17 21,2 C 21,2 C 67 % 1019,6 hPa 0,0 mm 5,3 km/h (1 Bft) NW 317 1 min 0,000 mm 3,5 UV-I 408 W/m 14,8 C 8,0 km/h (2 Bft)
03.09.2016 11:18 21,1 C 21,2 C 66 % 1019,5 hPa 0,0 mm 7,1 km/h (2 Bft) W-NW 283 1 min 0,000 mm 3,3 UV-I 378 W/m 14,5 C 14,5 km/h (3 Bft)
03.09.2016 11:19 21,1 C 21,1 C 66 % 1019,5 hPa 0,0 mm 7,8 km/h (2 Bft) NW 316 1 min 0,000 mm 3,3 UV-I 371 W/m 14,5 C 9,7 km/h (2 Bft)
03.09.2016 11:20 21,1 C 21,1 C 65 % 1019,5 hPa 0,0 mm 9,6 km/h (2 Bft) W-NW 286 0 min 0,000 mm 3,3 UV-I 366 W/m 14,3 C 14,5 km/h (3 Bft)
03.09.2016 11:21 21,0 C 21,1 C 66 % 1019,5 hPa 0,0 mm 9,1 km/h (2 Bft) W 281 0 min 0,000 mm 3,2 UV-I 348 W/m 14,4 C 11,3 km/h (2 Bft)
03.09.2016 11:22 20,9 C 21,0 C 68 % 1019,5 hPa 0,0 mm 5,1 km/h (1 Bft) NW 318 0 min 0,000 mm 3,2 UV-I 341 W/m 14,8 C 8,0 km/h (2 Bft)
03.09.2016 11:23 20,9 C 20,9 C 66 % 1019,5 hPa 0,0 mm 8,0 km/h (2 Bft) W-NW 283 0 min 0,000 mm 3,1 UV-I 338 W/m 14,3 C 12,9 km/h (3 Bft)
03.09.2016 11:24 20,9 C 20,9 C 67 % 1019,4 hPa 0,0 mm 6,8 km/h (2 Bft) W 263 0 min 0,000 mm 3,1 UV-I 334 W/m 14,5 C 11,3 km/h (2 Bft)
03.09.2016 11:25 20,8 C 20,9 C 67 % 1019,5 hPa 0,0 mm 6,2 km/h (2 Bft) NW 311 0 min 0,000 mm 3,2 UV-I 339 W/m 14,4 C 11,3 km/h (2 Bft)
03.09.2016 11:26 20,8 C 20,8 C 66 % 1019,5 hPa 0,0 mm 5,2 km/h (1 Bft) NW 319 0 min 0,000 mm 3,3 UV-I 352 W/m 14,2 C 11,3 km/h (2 Bft)
03.09.2016 11:27 20,7 C 20,8 C 68 % 1019,5 hPa 0,0 mm 6,1 km/h (2 Bft) W-NW 286 0 min 0,000 mm 3,3 UV-I 371 W/m 14,6 C 8,0 km/h (2 Bft)
03.09.2016 11:28 20,7 C 20,7 C 68 % 1019,4 hPa 0,0 mm 5,9 km/h (2 Bft) W-NW 285 0 min 0,000 mm 3,3 UV-I 374 W/m 14,6 C 9,7 km/h (2 Bft)
03.09.2016 11:29 20,8 C 20,8 C 69 % 1019,4 hPa 0,0 mm 5,2 km/h (1 Bft) W 280 0 min 0,000 mm 3,3 UV-I 371 W/m 14,9 C 9,7 km/h (2 Bft)
03.09.2016 11:30 20,8 C 20,8 C 67 % 1019,5 hPa 0,0 mm 6,3 km/h (2 Bft) W 281 0 min 0,000 mm 3,3 UV-I 364 W/m 14,4 C 11,3 km/h (2 Bft)
03.09.2016 11:31 20,8 C 20,8 C 67 % 1019,5 hPa 0,0 mm 5,1 km/h (1 Bft) NW 316 0 min 0,000 mm 3,2 UV-I 350 W/m 14,4 C 6,4 km/h (2 Bft)
03.09.2016 11:32 20,8 C 20,8 C 68 % 1019,5 hPa 0,0 mm 3,5 km/h (1 Bft) W-NW 284 0 min 0,000 mm 3,2 UV-I 348 W/m 14,7 C 4,8 km/h (1 Bft)
03.09.2016 11:33 20,8 C 20,8 C 67 % 1019,5 hPa 0,0 mm 4,2 km/h (1 Bft) W-SW 244 0 min 0,000 mm 3,1 UV-I 330 W/m 14,4 C 8,0 km/h (2 Bft)
03.09.2016 11:34 20,8 C 20,8 C 67 % 1019,4 hPa 0,0 mm 5,2 km/h (1 Bft) W-SW 256 0 min 0,000 mm 3,1 UV-I 316 W/m 14,4 C 9,7 km/h (2 Bft)
03.09.2016 11:35 20,7 C 20,8 C 67 % 1019,5 hPa 0,0 mm 6,0 km/h (2 Bft) W 267 0 min 0,000 mm 3,1 UV-I 313 W/m 14,3 C 9,7 km/h (2 Bft)
03.09.2016 11:36 20,7 C 20,7 C 69 % 1019,5 hPa 0,0 mm 3,1 km/h (1 Bft) W-NW 293 0 min 0,000 mm 3,1 UV-I 313 W/m 14,8 C 4,8 km/h (1 Bft)
03.09.2016 11:37 20,7 C 20,7 C 68 % 1019,5 hPa 0,0 mm 3,8 km/h (1 Bft) W 260 0 min 0,000 mm 3,3 UV-I 345 W/m 14,6 C 4,8 km/h (1 Bft)
03.09.2016 11:38 20,8 C 20,8 C 68 % 1019,5 hPa 0,0 mm 3,3 km/h (1 Bft) W-NW 301 0 min 0,000 mm 3,3 UV-I 341 W/m 14,7 C 4,8 km/h (1 Bft)
03.09.2016 11:39 20,8 C 20,8 C 68 % 1019,5 hPa 0,0 mm 3,0 km/h (1 Bft) NW 312 0 min 0,000 mm 3,2 UV-I 334 W/m 14,7 C 4,8 km/h (1 Bft)
03.09.2016 11:40 20,8 C 20,8 C 72 % 1019,4 hPa 0,0 mm 6,0 km/h (2 Bft) W 263 0 min 0,000 mm 3,1 UV-I 304 W/m 15,6 C 11,3 km/h (2 Bft)
03.09.2016 11:41 20,8 C 20,9 C 68 % 1019,5 hPa 0,0 mm 7,8 km/h (2 Bft) W 275 0 min 0,000 mm 3,1 UV-I 302 W/m 14,7 C 11,3 km/h (2 Bft)
03.09.2016 11:42 20,8 C 20,8 C 68 % 1019,4 hPa 0,0 mm 7,8 km/h (2 Bft) W-NW 283 0 min 0,000 mm 3,3 UV-I 327 W/m 14,7 C 11,3 km/h (2 Bft)
03.09.2016 11:43 20,8 C 20,8 C 66 % 1019,4 hPa 0,0 mm 5,5 km/h (1 Bft) W-NW 288 0 min 0,000 mm 3,4 UV-I 345 W/m 14,2 C 8,0 km/h (2 Bft)
03.09.2016 11:44 20,7 C 20,8 C 66 % 1019,4 hPa 0,0 mm 3,8 km/h (1 Bft) W 261 0 min 0,000 mm 3,6 UV-I 383 W/m 14,1 C 6,4 km/h (2 Bft)
03.09.2016 11:45 20,7 C 20,8 C 67 % 1019,4 hPa 0,0 mm 6,3 km/h (2 Bft) W 278 1 min 0,000 mm 3,8 UV-I 394 W/m 14,3 C 9,7 km/h (2 Bft)
03.09.2016 11:46 20,8 C 20,8 C 66 % 1019,4 hPa 0,0 mm 4,7 km/h (1 Bft) NW 318 1 min 0,000 mm 3,8 UV-I 431 W/m 14,2 C 9,7 km/h (2 Bft)
03.09.2016 11:47 20,8 C 20,8 C 69 % 1019,4 hPa 0,0 mm 5,0 km/h (1 Bft) W 275 0 min 0,000 mm 3,2 UV-I 297 W/m 14,9 C 6,4 km/h (2 Bft)
03.09.2016 11:48 20,8 C 20,8 C 67 % 1019,3 hPa 0,0 mm 5,2 km/h (1 Bft) W 271 0 min 0,000 mm 3,1 UV-I 295 W/m 14,4 C 9,7 km/h (2 Bft)
03.09.2016 11:49 20,8 C 20,9 C 67 % 1019,3 hPa 0,0 mm 5,2 km/h (1 Bft) W-NW 300 0 min 0,000 mm 3,1 UV-I 290 W/m 14,4 C 9,7 km/h (2 Bft)
03.09.2016 11:50 20,9 C 20,9 C 67 % 1019,3 hPa 0,0 mm 2,6 km/h (1 Bft) W-SW 254 0 min 0,000 mm 3,1 UV-I 283 W/m 14,5 C 4,8 km/h (1 Bft)
03.09.2016 11:51 20,9 C 20,9 C 71 % 1019,3 hPa 0,0 mm 5,0 km/h (1 Bft) W-NW 290 0 min 0,000 mm 3,0 UV-I 264 W/m 15,4 C 6,4 km/h (2 Bft)
03.09.2016 11:52 21,0 C 21,0 C 70 % 1019,3 hPa 0,0 mm 2,7 km/h (1 Bft) W-NW 290 0 min 0,000 mm 3,1 UV-I 267 W/m 15,3 C 4,8 km/h (1 Bft)
03.09.2016 11:53 20,9 C 21,0 C 68 % 1019,3 hPa 0,0 mm 2,2 km/h (1 Bft) W-NW 292 0 min 0,000 mm 3,2 UV-I 295 W/m 14,8 C 4,8 km/h (1 Bft)
03.09.2016 11:54 20,9 C 20,9 C 70 % 1019,3 hPa 0,0 mm 5,3 km/h (1 Bft) NW 307 0 min 0,000 mm 3,6 UV-I 334 W/m 15,2 C 6,4 km/h (2 Bft)
03.09.2016 11:55 21,0 C 21,0 C 71 % 1019,3 hPa 0,0 mm 4,8 km/h (1 Bft) NW 322 0 min 0,000 mm 4,1 UV-I 334 W/m 15,5 C 6,4 km/h (2 Bft)
03.09.2016 11:56 21,1 C 21,1 C 68 % 1019,3 hPa 0,0 mm 4,2 km/h (1 Bft) NW 323 0 min 0,000 mm 4,7 UV-I 334 W/m 15,0 C 4,8 km/h (1 Bft)
03.09.2016 11:57 21,2 C 21,2 C 68 % 1019,3 hPa 0,0 mm 4,1 km/h (1 Bft) NW 308 1 min 0,000 mm 4,8 UV-I 619 W/m 15,1 C 8,0 km/h (2 Bft)
03.09.2016 11:58 21,4 C 21,4 C 71 % 1019,3 hPa 0,0 mm 5,6 km/h (1 Bft) NW 313 1 min 0,000 mm 4,5 UV-I 524 W/m 15,9 C 8,0 km/h (2 Bft)
03.09.2016 11:59 21,6 C 21,6 C 68 % 1019,3 hPa 0,0 mm 5,3 km/h (1 Bft) NW 312 1 min 0,000 mm 4,8 UV-I 599 W/m 15,4 C 6,4 km/h (2 Bft)
03.09.2016 12:00 21,6 C 21,6 C 66 % 1019,3 hPa 0,0 mm 2,5 km/h (1 Bft) NW 311 0 min 0,280 mm 3,7 UV-I 388 W/m 15,0 C 3,2 km/h (1 Bft)
03.09.2016 12:01 21,6 C 21,6 C 65 % 1019,2 hPa 0,0 mm 2,1 km/h (1 Bft) W-NW 294 0 min 0,000 mm 3,6 UV-I 362 W/m 14,7 C 4,8 km/h (1 Bft)
03.09.2016 12:02 21,5 C 21,6 C 64 % 1019,3 hPa 0,0 mm 2,7 km/h (1 Bft) W-NW 294 0 min 0,000 mm 3,5 UV-I 350 W/m 14,4 C 3,2 km/h (1 Bft)
03.09.2016 12:03 21,5 C 21,6 C 66 % 1019,2 hPa 0,0 mm 4,2 km/h (1 Bft) NW 317 0 min 0,000 mm 3,6 UV-I 360 W/m 14,9 C 6,4 km/h (2 Bft)
03.09.2016 12:04 21,5 C 21,5 C 65 % 1019,2 hPa 0,0 mm 6,5 km/h (2 Bft) W-NW 285 0 min 0,000 mm 3,5 UV-I 355 W/m 14,6 C 9,7 km/h (2 Bft)
03.09.2016 12:05 21,5 C 21,5 C 68 % 1019,3 hPa 0,0 mm 8,2 km/h (2 Bft) NW 305 1 min 0,000 mm 3,7 UV-I 439 W/m 15,3 C 11,3 km/h (2 Bft)
03.09.2016 12:06 21,4 C 21,5 C 66 % 1019,2 hPa 0,0 mm 5,7 km/h (1 Bft) N-NW 336 1 min 0,000 mm 4,4 UV-I 529 W/m 14,8 C 11,3 km/h (2 Bft)
03.09.2016 12:07 21,5 C 21,5 C 67 % 1019,2 hPa 0,0 mm 4,9 km/h (1 Bft) NW 318 1 min 0,000 mm 4,1 UV-I 454 W/m 15,1 C 8,0 km/h (2 Bft)
03.09.2016 12:08 21,6 C 21,6 C 70 % 1019,2 hPa 0,0 mm 5,3 km/h (1 Bft) W-SW 258 1 min 0,000 mm 4,0 UV-I 448 W/m 15,9 C 8,0 km/h (2 Bft)
03.09.2016 12:09 21,7 C 21,7 C 71 % 1019,2 hPa 0,0 mm 7,1 km/h (2 Bft) SW 235 1 min 0,000 mm 3,9 UV-I 417 W/m 16,2 C 9,7 km/h (2 Bft)
03.09.2016 12:10 21,7 C 21,7 C 66 % 1019,2 hPa 0,0 mm 7,5 km/h (2 Bft) W 277 1 min 0,000 mm 4,4 UV-I 483 W/m 15,1 C 14,5 km/h (3 Bft)
03.09.2016 12:11 21,7 C 21,7 C 66 % 1019,2 hPa 0,0 mm 5,4 km/h (1 Bft) W-NW 291 1 min 0,000 mm 4,3 UV-I 520 W/m 15,1 C 11,3 km/h (2 Bft)
03.09.2016 12:12 21,7 C 21,7 C 65 % 1019,2 hPa 0,0 mm 2,6 km/h (1 Bft) NW 320 1 min 0,000 mm 4,3 UV-I 490 W/m 14,8 C 3,2 km/h (1 Bft)
03.09.2016 12:13 21,8 C 21,8 C 68 % 1019,2 hPa 0,0 mm 4,3 km/h (1 Bft) NW 318 1 min 0,000 mm 4,5 UV-I 519 W/m 15,6 C 6,4 km/h (2 Bft)
03.09.2016 12:14 21,8 C 21,8 C 65 % 1019,2 hPa 0,0 mm 2,5 km/h (1 Bft) NW 315 1 min 0,000 mm 5,0 UV-I 568 W/m 14,9 C 3,2 km/h (1 Bft)
03.09.2016 12:15 21,8 C 21,8 C 63 % 1019,1 hPa 0,0 mm 1,7 km/h (1 Bft) N 360 1 min 0,000 mm 4,8 UV-I 578 W/m 14,4 C 3,2 km/h (1 Bft)
03.09.2016 12:16 21,9 C 21,9 C 66 % 1019,1 hPa 0,0 mm 5,4 km/h (1 Bft) NW 315 1 min 0,000 mm 6,0 UV-I 594 W/m 15,3 C 16,1 km/h (3 Bft)
03.09.2016 12:17 22,1 C 22,1 C 67 % 1019,1 hPa 0,0 mm 9,7 km/h (2 Bft) NW 316 1 min 0,000 mm 5,1 UV-I 594 W/m 15,7 C 16,1 km/h (3 Bft)
03.09.2016 12:18 22,2 C 22,2 C 68 % 1019,1 hPa 0,0 mm 8,8 km/h (2 Bft) NW 322 1 min 0,000 mm 4,0 UV-I 457 W/m 16,0 C 12,9 km/h (3 Bft)
03.09.2016 12:19 22,2 C 22,2 C 66 % 1019,1 hPa 0,0 mm 5,3 km/h (1 Bft) W-SW 248 1 min 0,000 mm 3,9 UV-I 439 W/m 15,5 C 8,0 km/h (2 Bft)
03.09.2016 12:20 22,1 C 22,2 C 64 % 1019,0 hPa 0,0 mm 3,8 km/h (1 Bft) W 273 1 min 0,000 mm 3,9 UV-I 436 W/m 15,0 C 8,0 km/h (2 Bft)
03.09.2016 12:21 21,9 C 22,1 C 65 % 1019,0 hPa 0,0 mm 2,1 km/h (1 Bft) NW 315 1 min 0,000 mm 3,9 UV-I 434 W/m 15,0 C 4,8 km/h (1 Bft)
03.09.2016 12:22 21,9 C 21,9 C 69 % 1019,0 hPa 0,0 mm 1,7 km/h (1 Bft) NW 315 1 min 0,000 mm 3,9 UV-I 431 W/m 15,9 C 3,2 km/h (1 Bft)
03.09.2016 12:23 21,9 C 21,9 C 69 % 1019,0 hPa 0,0 mm 5,0 km/h (1 Bft) NW 322 1 min 0,000 mm 3,9 UV-I 446 W/m 15,9 C 9,7 km/h (2 Bft)
03.09.2016 12:24 22,0 C 22,0 C 70 % 1018,9 hPa 0,0 mm 4,3 km/h (1 Bft) NW 325 1 min 0,000 mm 3,8 UV-I 427 W/m 16,3 C 6,4 km/h (2 Bft)
03.09.2016 12:25 22,1 C 22,1 C 69 % 1019,0 hPa 0,0 mm 2,6 km/h (1 Bft) NW 316 1 min 0,000 mm 4,0 UV-I 457 W/m 16,1 C 3,2 km/h (1 Bft)
03.09.2016 12:26 22,2 C 22,2 C 70 % 1018,9 hPa 0,0 mm 4,8 km/h (1 Bft) W-NW 287 1 min 0,000 mm 4,2 UV-I 508 W/m 16,5 C 6,4 km/h (2 Bft)
03.09.2016 12:27 22,2 C 22,2 C 67 % 1018,9 hPa 0,0 mm 6,6 km/h (2 Bft) W-NW 289 1 min 0,000 mm 4,1 UV-I 545 W/m 15,8 C 11,3 km/h (2 Bft)
03.09.2016 12:28 22,1 C 22,2 C 65 % 1018,9 hPa 0,0 mm 5,1 km/h (1 Bft) NW 304 1 min 0,000 mm 3,9 UV-I 459 W/m 15,2 C 6,4 km/h (2 Bft)
03.09.2016 12:29 22,1 C 22,1 C 69 % 1018,9 hPa 0,0 mm 6,7 km/h (2 Bft) NW 313 1 min 0,000 mm 4,3 UV-I 508 W/m 16,1 C 9,7 km/h (2 Bft)
03.09.2016 12:30 22,0 C 22,1 C 66 % 1018,9 hPa 0,0 mm 4,6 km/h (1 Bft) NW 309 1 min 0,000 mm 4,2 UV-I 519 W/m 15,3 C 6,4 km/h (2 Bft)
03.09.2016 12:31 22,0 C 22,0 C 67 % 1018,9 hPa 0,0 mm 4,8 km/h (1 Bft) N-NW 327 1 min 0,000 mm 4,0 UV-I 457 W/m 15,6 C 14,5 km/h (3 Bft)
03.09.2016 12:32 22,0 C 22,0 C 68 % 1018,9 hPa 0,0 mm 10,7 km/h (2 Bft) NW 311 1 min 0,000 mm 4,0 UV-I 462 W/m 15,8 C 14,5 km/h (3 Bft)
03.09.2016 12:33 21,9 C 22,0 C 70 % 1018,8 hPa 0,0 mm 6,7 km/h (2 Bft) NW 325 1 min 0,000 mm 4,0 UV-I 441 W/m 16,2 C 12,9 km/h (3 Bft)
03.09.2016 12:34 21,9 C 21,9 C 68 % 1019,0 hPa 0,0 mm 5,5 km/h (1 Bft) NW 306 1 min 0,000 mm 3,9 UV-I 431 W/m 15,7 C 8,0 km/h (2 Bft)
03.09.2016 12:35 21,9 C 21,9 C 69 % 1018,9 hPa 0,0 mm 7,6 km/h (2 Bft) N 10 1 min 0,000 mm 4,0 UV-I 443 W/m 15,9 C 12,9 km/h (3 Bft)
03.09.2016 12:36 21,8 C 21,9 C 69 % 1018,8 hPa 0,0 mm 6,6 km/h (2 Bft) NW 324 1 min 0,000 mm 4,1 UV-I 482 W/m 15,9 C 11,3 km/h (2 Bft)
03.09.2016 12:37 21,8 C 21,9 C 70 % 1018,9 hPa 0,0 mm 7,8 km/h (2 Bft) N-NW 327 1 min 0,000 mm 4,2 UV-I 480 W/m 16,1 C 14,5 km/h (3 Bft)
03.09.2016 12:38 21,8 C 21,8 C 69 % 1018,9 hPa 0,0 mm 9,5 km/h (2 Bft) N-NW 329 1 min 0,000 mm 3,9 UV-I 446 W/m 15,9 C 12,9 km/h (3 Bft)
03.09.2016 12:39 21,8 C 21,8 C 70 % 1018,9 hPa 0,0 mm 6,6 km/h (2 Bft) NW 318 1 min 0,000 mm 3,9 UV-I 434 W/m 16,1 C 8,0 km/h (2 Bft)
03.09.2016 12:40 21,9 C 21,9 C 72 % 1018,8 hPa 0,0 mm 7,1 km/h (2 Bft) NW 317 1 min 0,000 mm 3,8 UV-I 424 W/m 16,6 C 11,3 km/h (2 Bft)
03.09.2016 12:41 21,9 C 21,9 C 70 % 1018,8 hPa 0,0 mm 7,6 km/h (2 Bft) NW 319 0 min 0,000 mm 3,7 UV-I 411 W/m 16,2 C 12,9 km/h (3 Bft)
03.09.2016 12:42 21,8 C 21,9 C 69 % 1018,8 hPa 0,0 mm 5,7 km/h (1 Bft) NW 320 0 min 0,000 mm 3,5 UV-I 380 W/m 15,9 C 8,0 km/h (2 Bft)
03.09.2016 12:43 21,8 C 21,9 C 67 % 1018,8 hPa 0,0 mm 4,1 km/h (1 Bft) N 355 0 min 0,000 mm 3,4 UV-I 369 W/m 15,4 C 8,0 km/h (2 Bft)
03.09.2016 12:44 21,7 C 21,8 C 70 % 1018,9 hPa 0,0 mm 6,8 km/h (2 Bft) N-NW 348 0 min 0,000 mm 3,4 UV-I 362 W/m 16,0 C 9,7 km/h (2 Bft)
03.09.2016 12:45 21,7 C 21,7 C 68 % 1018,8 hPa 0,0 mm 6,1 km/h (2 Bft) N-NO 13 0 min 0,000 mm 3,3 UV-I 357 W/m 15,5 C 8,0 km/h (2 Bft)
03.09.2016 12:46 21,7 C 21,7 C 69 % 1018,9 hPa 0,0 mm 7,3 km/h (2 Bft) N-NW 333 0 min 0,000 mm 3,3 UV-I 348 W/m 15,8 C 9,7 km/h (2 Bft)
03.09.2016 12:47 21,7 C 21,7 C 68 % 1018,9 hPa 0,0 mm 6,6 km/h (2 Bft) W-NW 288 0 min 0,000 mm 3,3 UV-I 348 W/m 15,5 C 9,7 km/h (2 Bft)
03.09.2016 12:48 21,6 C 21,7 C 68 % 1018,9 hPa 0,0 mm 8,2 km/h (2 Bft) NW 312 0 min 0,000 mm 3,3 UV-I 348 W/m 15,4 C 12,9 km/h (3 Bft)
03.09.2016 12:49 21,6 C 21,6 C 70 % 1018,8 hPa 0,0 mm 7,8 km/h (2 Bft) W 273 0 min 0,000 mm 3,3 UV-I 350 W/m 15,9 C 11,3 km/h (2 Bft)
03.09.2016 12:50 21,6 C 21,6 C 69 % 1018,8 hPa 0,0 mm 8,7 km/h (2 Bft) W-NW 300 0 min 0,000 mm 3,3 UV-I 353 W/m 15,7 C 14,5 km/h (3 Bft)
03.09.2016 12:51 21,6 C 21,6 C 69 % 1018,8 hPa 0,0 mm 5,6 km/h (1 Bft) N-NW 331 0 min 0,000 mm 3,3 UV-I 359 W/m 15,7 C 11,3 km/h (2 Bft)
03.09.2016 12:52 21,6 C 21,6 C 69 % 1018,8 hPa 0,0 mm 3,9 km/h (1 Bft) NW 317 0 min 0,000 mm 3,4 UV-I 364 W/m 15,7 C 6,4 km/h (2 Bft)
03.09.2016 12:53 21,6 C 21,6 C 68 % 1018,8 hPa 0,0 mm 5,3 km/h (1 Bft) W-NW 300 0 min 0,000 mm 3,4 UV-I 367 W/m 15,4 C 8,0 km/h (2 Bft)
03.09.2016 12:54 21,6 C 21,6 C 70 % 1018,9 hPa 0,0 mm 10,1 km/h (2 Bft) NW 310 0 min 0,000 mm 3,5 UV-I 373 W/m 15,9 C 12,9 km/h (3 Bft)
03.09.2016 12:55 21,6 C 21,6 C 70 % 1018,8 hPa 0,0 mm 5,9 km/h (2 Bft) NW 307 0 min 0,000 mm 3,5 UV-I 378 W/m 15,9 C 8,0 km/h (2 Bft)
03.09.2016 12:56 21,6 C 21,6 C 69 % 1018,9 hPa 0,0 mm 4,6 km/h (1 Bft) W-NW 299 0 min 0,000 mm 3,6 UV-I 390 W/m 15,7 C 8,0 km/h (2 Bft)
03.09.2016 12:57 21,6 C 21,7 C 68 % 1018,8 hPa 0,0 mm 6,1 km/h (2 Bft) N-NW 338 1 min 0,000 mm 3,7 UV-I 439 W/m 15,4 C 9,7 km/h (2 Bft)
03.09.2016 12:58 21,6 C 21,6 C 69 % 1018,8 hPa 0,0 mm 5,8 km/h (2 Bft) N-NO 15 1 min 0,000 mm 4,1 UV-I 487 W/m 15,7 C 6,4 km/h (2 Bft)
03.09.2016 12:59 21,6 C 21,6 C 67 % 1018,8 hPa 0,0 mm 3,8 km/h (1 Bft) NW 304 1 min 0,000 mm 4,4 UV-I 512 W/m 15,2 C 4,8 km/h (1 Bft)
03.09.2016 13:00 21,7 C 21,7 C 69 % 1018,8 hPa 0,0 mm 3,6 km/h (1 Bft) W-SW 252 1 min 0,000 mm 4,5 UV-I 568 W/m 15,8 C 4,8 km/h (1 Bft)
03.09.2016 13:01 21,7 C 21,7 C 70 % 1018,8 hPa 0,0 mm 4,9 km/h (1 Bft) N 349 1 min 0,279 mm 4,3 UV-I 566 W/m 16,0 C 8,0 km/h (2 Bft)
03.09.2016 13:02 21,8 C 21,8 C 69 % 1018,8 hPa 0,0 mm 4,6 km/h (1 Bft) N 360 1 min 0,000 mm 4,5 UV-I 571 W/m 15,9 C 6,4 km/h (2 Bft)
03.09.2016 13:03 21,8 C 21,8 C 70 % 1018,8 hPa 0,0 mm 6,1 km/h (2 Bft) N-NW 329 1 min 0,000 mm 4,7 UV-I 589 W/m 16,1 C 11,3 km/h (2 Bft)
03.09.2016 13:04 21,9 C 21,9 C 69 % 1018,8 hPa 0,0 mm 4,5 km/h (1 Bft) W 273 1 min 0,000 mm 5,1 UV-I 633 W/m 15,9 C 6,4 km/h (2 Bft)
03.09.2016 13:05 22,0 C 22,0 C 69 % 1018,8 hPa 0,0 mm 4,8 km/h (1 Bft) W-NW 297 1 min 0,000 mm 5,0 UV-I 647 W/m 16,0 C 11,3 km/h (2 Bft)
03.09.2016 13:06 22,0 C 22,0 C 68 % 1018,8 hPa 0,0 mm 8,8 km/h (2 Bft) W-NW 297 1 min 0,000 mm 5,2 UV-I 673 W/m 15,8 C 14,5 km/h (3 Bft)
03.09.2016 13:07 22,0 C 22,0 C 66 % 1018,8 hPa 0,0 mm 6,1 km/h (2 Bft) N-NW 340 1 min 0,000 mm 5,2 UV-I 707 W/m 15,3 C 12,9 km/h (3 Bft)
03.09.2016 13:08 22,1 C 22,1 C 68 % 1018,7 hPa 0,0 mm 6,1 km/h (2 Bft) W-NW 286 1 min 0,000 mm 6,1 UV-I 707 W/m 15,9 C 11,3 km/h (2 Bft)
03.09.2016 13:09 22,2 C 22,2 C 68 % 1018,8 hPa 0,0 mm 7,5 km/h (2 Bft) W 271 1 min 0,000 mm 5,9 UV-I 819 W/m 16,0 C 11,3 km/h (2 Bft)
03.09.2016 13:10 22,3 C 22,3 C 65 % 1018,7 hPa 0,0 mm 10,5 km/h (2 Bft) W-NW 298 1 min 0,000 mm 5,7 UV-I 837 W/m 15,4 C 14,5 km/h (3 Bft)
03.09.2016 13:11 22,3 C 22,3 C 64 % 1018,7 hPa 0,0 mm 8,6 km/h (2 Bft) W-NW 302 1 min 0,000 mm 5,5 UV-I 759 W/m 15,2 C 12,9 km/h (3 Bft)
03.09.2016 13:12 22,3 C 22,3 C 66 % 1018,8 hPa 0,0 mm 5,3 km/h (1 Bft) N-NO 12 1 min 0,000 mm 5,0 UV-I 680 W/m 15,6 C 6,4 km/h (2 Bft)
03.09.2016 13:13 22,4 C 22,4 C 65 % 1018,7 hPa 0,0 mm 3,4 km/h (1 Bft) NW 304 1 min 0,000 mm 5,0 UV-I 622 W/m 15,5 C 6,4 km/h (2 Bft)
03.09.2016 13:14 22,3 C 22,4 C 63 % 1018,8 hPa 0,0 mm 4,1 km/h (1 Bft) N-NW 343 1 min 0,000 mm 5,1 UV-I 638 W/m 14,9 C 6,4 km/h (2 Bft)
03.09.2016 13:15 22,3 C 22,3 C 66 % 1018,8 hPa 0,0 mm 6,5 km/h (2 Bft) NW 311 1 min 0,000 mm 6,2 UV-I 638 W/m 15,6 C 11,3 km/h (2 Bft)
03.09.2016 13:16 22,4 C 22,4 C 66 % 1018,8 hPa 0,0 mm 8,3 km/h (2 Bft) NW 317 1 min 0,000 mm 5,3 UV-I 765 W/m 15,7 C 11,3 km/h (2 Bft)
03.09.2016 13:17 22,4 C 22,4 C 65 % 1018,8 hPa 0,0 mm 10,1 km/h (2 Bft) NW 322 1 min 0,000 mm 5,5 UV-I 763 W/m 15,5 C 16,1 km/h (3 Bft)
03.09.2016 13:18 22,4 C 22,4 C 67 % 1018,8 hPa 0,0 mm 7,4 km/h (2 Bft) N-NW 344 1 min 0,000 mm 5,2 UV-I 777 W/m 16,0 C 14,5 km/h (3 Bft)
03.09.2016 13:19 22,6 C 22,6 C 63 % 1018,8 hPa 0,0 mm 7,6 km/h (2 Bft) O-NO 74 1 min 0,000 mm 5,0 UV-I 693 W/m 15,2 C 14,5 km/h (3 Bft)
03.09.2016 13:20 22,5 C 22,6 C 64 % 1018,9 hPa 0,0 mm 6,4 km/h (2 Bft) NW 319 1 min 0,000 mm 5,3 UV-I 763 W/m 15,3 C 9,7 km/h (2 Bft)
03.09.2016 13:21 22,6 C 22,6 C 64 % 1018,8 hPa 0,0 mm 6,2 km/h (2 Bft) NW 324 1 min 0,000 mm 5,1 UV-I 671 W/m 15,4 C 9,7 km/h (2 Bft)
03.09.2016 13:22 22,5 C 22,6 C 62 % 1018,8 hPa 0,0 mm 4,4 km/h (1 Bft) NW 324 1 min 0,000 mm 4,9 UV-I 640 W/m 14,8 C 8,0 km/h (2 Bft)
03.09.2016 13:23 22,5 C 22,5 C 64 % 1018,8 hPa 0,0 mm 6,7 km/h (2 Bft) N 5 1 min 0,000 mm 5,5 UV-I 728 W/m 15,3 C 9,7 km/h (2 Bft)
03.09.2016 13:24 22,4 C 22,5 C 63 % 1018,8 hPa 0,0 mm 7,0 km/h (2 Bft) N-NO 14 1 min 0,000 mm 5,6 UV-I 728 W/m 15,0 C 11,3 km/h (2 Bft)
03.09.2016 13:25 22,6 C 22,6 C 65 % 1018,9 hPa 0,0 mm 9,9 km/h (2 Bft) NO 38 1 min 0,000 mm 5,0 UV-I 833 W/m 15,7 C 17,7 km/h (3 Bft)
03.09.2016 13:26 22,4 C 22,6 C 63 % 1018,9 hPa 0,0 mm 7,6 km/h (2 Bft) N-NO 20 1 min 0,000 mm 4,3 UV-I 833 W/m 15,0 C 11,3 km/h (2 Bft)
03.09.2016 13:27 22,3 C 22,4 C 63 % 1018,9 hPa 0,0 mm 8,9 km/h (2 Bft) NW 314 1 min 0,000 mm 4,2 UV-I 833 W/m 14,9 C 16,1 km/h (3 Bft)
03.09.2016 13:28 22,2 C 22,3 C 65 % 1018,9 hPa 0,0 mm 7,8 km/h (2 Bft) NW 325 1 min 0,000 mm 5,6 UV-I 462 W/m 15,3 C 11,3 km/h (2 Bft)
03.09.2016 13:29 22,2 C 22,2 C 65 % 1018,8 hPa 0,0 mm 13,3 km/h (3 Bft) N-NW 329 1 min 0,000 mm 6,0 UV-I 462 W/m 15,3 C 16,1 km/h (3 Bft)
03.09.2016 13:30 22,2 C 22,2 C 62 % 1018,8 hPa 0,0 mm 7,8 km/h (2 Bft) NO 34 1 min 0,000 mm 4,0 UV-I 462 W/m 14,6 C 12,9 km/h (3 Bft)
03.09.2016 13:31 22,1 C 22,2 C 62 % 1018,8 hPa 0,0 mm 8,4 km/h (2 Bft) N 5 0 min 0,000 mm 4,0 UV-I 401 W/m 14,5 C 12,9 km/h (3 Bft)
03.09.2016 13:32 22,1 C 22,1 C 63 % 1018,8 hPa 0,0 mm 2,9 km/h (1 Bft) NO 51 1 min 0,000 mm 4,2 UV-I 429 W/m 14,7 C 4,8 km/h (1 Bft)
03.09.2016 13:33 22,1 C 22,1 C 65 % 1018,8 hPa 0,0 mm 6,7 km/h (2 Bft) N-NO 30 1 min 0,000 mm 5,4 UV-I 517 W/m 15,2 C 11,3 km/h (2 Bft)
03.09.2016 13:34 22,1 C 22,1 C 63 % 1018,8 hPa 0,0 mm 5,1 km/h (1 Bft) N 5 1 min 0,000 mm 3,8 UV-I 517 W/m 14,7 C 8,0 km/h (2 Bft)
03.09.2016 13:35 22,1 C 22,2 C 64 % 1018,8 hPa 0,0 mm 8,3 km/h (2 Bft) NW 321 0 min 0,000 mm 3,7 UV-I 373 W/m 15,0 C 12,9 km/h (3 Bft)
03.09.2016 13:36 22,0 C 22,1 C 63 % 1018,8 hPa 0,0 mm 5,4 km/h (1 Bft) N 11 0 min 0,000 mm 3,7 UV-I 392 W/m 14,6 C 8,0 km/h (2 Bft)
03.09.2016 13:37 21,9 C 22,0 C 65 % 1018,7 hPa 0,0 mm 2,5 km/h (1 Bft) N-NO 26 0 min 0,000 mm 3,6 UV-I 399 W/m 15,0 C 4,8 km/h (1 Bft)
03.09.2016 13:38 21,9 C 21,9 C 66 % 1018,7 hPa 0,0 mm 9,8 km/h (2 Bft) NW 315 0 min 0,000 mm 3,5 UV-I 396 W/m 15,3 C 16,1 km/h (3 Bft)
03.09.2016 13:39 21,9 C 21,9 C 63 % 1018,8 hPa 0,0 mm 7,8 km/h (2 Bft) N 349 0 min 0,000 mm 3,4 UV-I 396 W/m 14,5 C 14,5 km/h (3 Bft)
03.09.2016 13:40 22,0 C 22,0 C 63 % 1018,8 hPa 0,0 mm 5,9 km/h (2 Bft) N-NO 32 1 min 0,000 mm 3,5 UV-I 424 W/m 14,6 C 9,7 km/h (2 Bft)
03.09.2016 13:41 21,9 C 22,0 C 63 % 1018,8 hPa 0,0 mm 5,6 km/h (1 Bft) N 5 1 min 0,000 mm 3,5 UV-I 427 W/m 14,5 C 8,0 km/h (2 Bft)
03.09.2016 13:42 21,9 C 21,9 C 62 % 1018,7 hPa 0,0 mm 6,2 km/h (2 Bft) N-NW 332 1 min 0,000 mm 3,4 UV-I 415 W/m 14,3 C 9,7 km/h (2 Bft)
03.09.2016 13:43 21,9 C 22,0 C 64 % 1018,7 hPa 0,0 mm 4,0 km/h (1 Bft) NW 315 1 min 0,000 mm 3,4 UV-I 415 W/m 14,8 C 6,4 km/h (2 Bft)
03.09.2016 13:44 21,9 C 22,0 C 65 % 1018,7 hPa 0,0 mm 5,7 km/h (1 Bft) N 360 0 min 0,000 mm 3,4 UV-I 401 W/m 15,0 C 8,0 km/h (2 Bft)
03.09.2016 13:45 21,9 C 22,0 C 62 % 1018,8 hPa 0,0 mm 6,0 km/h (2 Bft) N 5 0 min 0,000 mm 3,4 UV-I 401 W/m 14,3 C 8,0 km/h (2 Bft)
03.09.2016 13:46 21,9 C 21,9 C 64 % 1018,7 hPa 0,0 mm 6,6 km/h (2 Bft) N-NO 21 0 min 0,000 mm 3,8 UV-I 401 W/m 14,8 C 9,7 km/h (2 Bft)
03.09.2016 13:47 22,0 C 22,0 C 63 % 1018,7 hPa 0,0 mm 6,2 km/h (2 Bft) N 360 0 min 0,000 mm 3,6 UV-I 401 W/m 14,6 C 9,7 km/h (2 Bft)
03.09.2016 13:48 22,0 C 22,0 C 62 % 1018,7 hPa 0,0 mm 5,5 km/h (1 Bft) O 98 1 min 0,000 mm 3,5 UV-I 427 W/m 14,4 C 11,3 km/h (2 Bft)
03.09.2016 13:49 22,0 C 22,0 C 64 % 1018,6 hPa 0,0 mm 5,0 km/h (1 Bft) N-NW 342 0 min 0,000 mm 3,4 UV-I 410 W/m 14,9 C 9,7 km/h (2 Bft)
03.09.2016 13:50 22,1 C 22,1 C 63 % 1018,6 hPa 0,0 mm 4,8 km/h (1 Bft) N-NW 337 0 min 0,000 mm 3,4 UV-I 408 W/m 14,7 C 6,4 km/h (2 Bft)
03.09.2016 13:51 22,1 C 22,1 C 64 % 1018,6 hPa 0,0 mm 4,8 km/h (1 Bft) N-NW 331 0 min 0,000 mm 3,4 UV-I 392 W/m 15,0 C 8,0 km/h (2 Bft)
03.09.2016 13:52 22,1 C 22,1 C 65 % 1018,6 hPa 0,0 mm 4,5 km/h (1 Bft) N-NW 339 0 min 0,000 mm 2,5 UV-I 323 W/m 15,2 C 9,7 km/h (2 Bft)
03.09.2016 13:53 22,1 C 22,1 C 70 % 1018,6 hPa 0,0 mm 5,4 km/h (1 Bft) N 9 0 min 0,000 mm 2,0 UV-I 244 W/m 16,4 C 9,7 km/h (2 Bft)
03.09.2016 13:54 22,0 C 22,1 C 68 % 1018,7 hPa 0,0 mm 6,5 km/h (2 Bft) N-NW 348 0 min 0,000 mm 1,8 UV-I 202 W/m 15,8 C 12,9 km/h (3 Bft)
03.09.2016 13:55 21,9 C 22,0 C 66 % 1018,7 hPa 0,0 mm 8,9 km/h (2 Bft) N 355 0 min 0,000 mm 1,6 UV-I 181 W/m 15,3 C 12,9 km/h (3 Bft)
03.09.2016 13:56 21,8 C 21,9 C 67 % 1018,6 hPa 0,0 mm 5,4 km/h (1 Bft) NW 311 0 min 0,000 mm 1,5 UV-I 162 W/m 15,4 C 8,0 km/h (2 Bft)
03.09.2016 13:57 21,6 C 21,8 C 66 % 1018,6 hPa 0,0 mm 6,0 km/h (2 Bft) N-NO 32 0 min 0,000 mm 1,5 UV-I 162 W/m 15,0 C 11,3 km/h (2 Bft)
03.09.2016 13:58 21,5 C 21,6 C 67 % 1018,6 hPa 0,0 mm 6,8 km/h (2 Bft) NW 323 0 min 0,000 mm 1,5 UV-I 163 W/m 15,1 C 8,0 km/h (2 Bft)
03.09.2016 13:59 21,4 C 21,5 C 70 % 1018,7 hPa 0,0 mm 7,4 km/h (2 Bft) N-NO 20 0 min 0,000 mm 1,6 UV-I 167 W/m 15,7 C 12,9 km/h (3 Bft)
03.09.2016 14:00 21,3 C 21,4 C 68 % 1018,7 hPa 0,0 mm 6,1 km/h (2 Bft) NW 307 0 min 0,000 mm 1,5 UV-I 163 W/m 15,1 C 8,0 km/h (2 Bft)
03.09.2016 14:01 21,2 C 21,3 C 69 % 1018,7 hPa 0,0 mm 6,0 km/h (2 Bft) W-NW 300 0 min 0,356 mm 1,5 UV-I 160 W/m 15,3 C 11,3 km/h (2 Bft)
03.09.2016 14:02 21,1 C 21,2 C 70 % 1018,7 hPa 0,0 mm 5,0 km/h (1 Bft) NW 317 0 min 0,000 mm 1,5 UV-I 156 W/m 15,4 C 12,9 km/h (3 Bft)
03.09.2016 14:03 20,9 C 21,1 C 70 % 1018,7 hPa 0,0 mm 4,5 km/h (1 Bft) N-NO 20 0 min 0,000 mm 1,5 UV-I 158 W/m 15,2 C 9,7 km/h (2 Bft)
03.09.2016 14:04 20,9 C 20,9 C 69 % 1018,7 hPa 0,0 mm 7,9 km/h (2 Bft) N 10 0 min 0,000 mm 1,5 UV-I 162 W/m 15,0 C 14,5 km/h (3 Bft)
03.09.2016 14:05 20,8 C 20,9 C 69 % 1018,8 hPa 0,0 mm 8,7 km/h (2 Bft) N-NO 19 0 min 0,000 mm 1,6 UV-I 165 W/m 14,9 C 12,9 km/h (3 Bft)
03.09.2016 14:06 20,7 C 20,8 C 70 % 1018,8 hPa 0,0 mm 3,6 km/h (1 Bft) N 349 0 min 0,000 mm 1,6 UV-I 171 W/m 15,0 C 6,4 km/h (2 Bft)
03.09.2016 14:07 20,7 C 20,8 C 70 % 1018,7 hPa 0,0 mm 5,7 km/h (1 Bft) N-NO 23 0 min 0,000 mm 1,7 UV-I 179 W/m 15,0 C 6,4 km/h (2 Bft)
03.09.2016 14:08 20,7 C 20,7 C 71 % 1018,7 hPa 0,0 mm 6,7 km/h (2 Bft) N-NW 338 0 min 0,000 mm 1,8 UV-I 200 W/m 15,2 C 9,7 km/h (2 Bft)
03.09.2016 14:09 20,7 C 20,7 C 72 % 1018,7 hPa 0,0 mm 5,2 km/h (1 Bft) N 360 0 min 0,000 mm 2,0 UV-I 206 W/m 15,5 C 8,0 km/h (2 Bft)
03.09.2016 14:10 20,7 C 20,7 C 71 % 1018,8 hPa 0,0 mm 4,5 km/h (1 Bft) N-NO 13 0 min 0,000 mm 2,1 UV-I 214 W/m 15,2 C 6,4 km/h (2 Bft)
03.09.2016 14:11 20,7 C 20,7 C 71 % 1018,8 hPa 0,0 mm 4,3 km/h (1 Bft) N-NO 12 0 min 0,000 mm 2,1 UV-I 220 W/m 15,2 C 4,8 km/h (1 Bft)
03.09.2016 14:12 20,7 C 20,7 C 71 % 1018,7 hPa 0,0 mm 3,0 km/h (1 Bft) N-NO 17 0 min 0,000 mm 2,2 UV-I 225 W/m 15,2 C 6,4 km/h (2 Bft)
03.09.2016 14:13 20,7 C 20,7 C 73 % 1018,7 hPa 0,0 mm 2,3 km/h (1 Bft) W-NW 298 0 min 0,000 mm 2,2 UV-I 230 W/m 15,7 C 4,8 km/h (1 Bft)
03.09.2016 14:14 20,7 C 20,7 C 73 % 1018,7 hPa 0,0 mm 5,1 km/h (1 Bft) NO 50 0 min 0,000 mm 2,3 UV-I 239 W/m 15,7 C 6,4 km/h (2 Bft)
03.09.2016 14:15 20,7 C 20,7 C 72 % 1018,7 hPa 0,0 mm 3,6 km/h (1 Bft) N 350 0 min 0,000 mm 2,4 UV-I 244 W/m 15,5 C 6,4 km/h (2 Bft)
03.09.2016 14:16 20,7 C 20,7 C 73 % 1018,7 hPa 0,0 mm 5,6 km/h (1 Bft) N 5 0 min 0,000 mm 2,4 UV-I 246 W/m 15,7 C 8,0 km/h (2 Bft)
03.09.2016 14:17 20,7 C 20,8 C 72 % 1018,7 hPa 0,0 mm 4,6 km/h (1 Bft) NO 40 0 min 0,000 mm 2,4 UV-I 250 W/m 15,5 C 8,0 km/h (2 Bft)
03.09.2016 14:18 20,8 C 20,8 C 73 % 1018,7 hPa 0,0 mm 4,4 km/h (1 Bft) N-NO 24 0 min 0,000 mm 2,5 UV-I 253 W/m 15,8 C 6,4 km/h (2 Bft)
03.09.2016 14:19 20,7 C 20,7 C 73 % 1018,7 hPa 0,0 mm 6,4 km/h (2 Bft) N 360 0 min 0,000 mm 2,5 UV-I 258 W/m 15,7 C 8,0 km/h (2 Bft)
03.09.2016 14:20 20,7 C 20,7 C 71 % 1018,7 hPa 0,0 mm 4,8 km/h (1 Bft) N 360 0 min 0,000 mm 2,5 UV-I 265 W/m 15,2 C 8,0 km/h (2 Bft)
03.09.2016 14:21 20,8 C 20,8 C 71 % 1018,7 hPa 0,0 mm 4,8 km/h (1 Bft) N 360 0 min 0,000 mm 2,5 UV-I 264 W/m 15,3 C 6,4 km/h (2 Bft)
03.09.2016 14:22 20,8 C 20,8 C 72 % 1018,7 hPa 0,0 mm 3,2 km/h (1 Bft) N-NW 337 0 min 0,000 mm 2,5 UV-I 260 W/m 15,6 C 4,8 km/h (1 Bft)
03.09.2016 14:24 20,9 C 20,9 C 71 % 1018,7 hPa 0,0 mm 5,0 km/h (1 Bft) W-NW 298 0 min 0,000 mm 2,4 UV-I 253 W/m 15,4 C 6,4 km/h (2 Bft)
03.09.2016 14:25 20,9 C 21,0 C 70 % 1018,7 hPa 0,0 mm 4,8 km/h (1 Bft) W-NW 286 0 min 0,000 mm 2,4 UV-I 253 W/m 15,2 C 8,0 km/h (2 Bft)
03.09.2016 14:26 20,9 C 20,9 C 72 % 1018,6 hPa 0,0 mm 2,5 km/h (1 Bft) NW 313 0 min 0,000 mm 2,4 UV-I 255 W/m 15,7 C 4,8 km/h (1 Bft)
03.09.2016 14:27 20,8 C 20,9 C 72 % 1018,6 hPa 0,0 mm 3,6 km/h (1 Bft) NW 309 0 min 0,000 mm 2,5 UV-I 258 W/m 15,6 C 4,8 km/h (1 Bft)
03.09.2016 14:28 20,8 C 20,8 C 70 % 1018,6 hPa 0,0 mm 2,4 km/h (1 Bft) W 281 0 min 0,000 mm 2,5 UV-I 262 W/m 15,1 C 4,8 km/h (1 Bft)
03.09.2016 14:29 20,7 C 20,8 C 70 % 1018,6 hPa 0,0 mm 3,4 km/h (1 Bft) N-NO 17 0 min 0,000 mm 2,5 UV-I 265 W/m 15,0 C 6,4 km/h (2 Bft)
03.09.2016 14:30 20,7 C 20,7 C 72 % 1018,7 hPa 0,0 mm 2,8 km/h (1 Bft) NW 321 0 min 0,000 mm 2,6 UV-I 271 W/m 15,5 C 4,8 km/h (1 Bft)
03.09.2016 14:31 20,7 C 20,7 C 71 % 1018,7 hPa 0,0 mm 1,1 km/h (1 Bft) NW 321 0 min 0,000 mm 2,6 UV-I 274 W/m 15,2 C 3,2 km/h (1 Bft)
03.09.2016 14:32 20,7 C 20,7 C 72 % 1018,6 hPa 0,0 mm 0,9 km/h (0 Bft) NW 321 0 min 0,000 mm 2,7 UV-I 287 W/m 15,5 C 3,2 km/h (1 Bft)
03.09.2016 14:33 20,7 C 20,7 C 72 % 1018,6 hPa 0,0 mm 1,3 km/h (1 Bft) NW 322 0 min 0,000 mm 2,7 UV-I 285 W/m 15,5 C 3,2 km/h (1 Bft)
03.09.2016 14:34 20,7 C 20,7 C 71 % 1018,6 hPa 0,0 mm 2,8 km/h (1 Bft) N 355 0 min 0,000 mm 2,7 UV-I 287 W/m 15,2 C 4,8 km/h (1 Bft)
03.09.2016 14:35 20,7 C 20,7 C 71 % 1018,6 hPa 0,0 mm 1,3 km/h (1 Bft) N 355 0 min 0,000 mm 2,7 UV-I 288 W/m 15,2 C 3,2 km/h (1 Bft)
03.09.2016 14:36 20,7 C 20,7 C 74 % 1018,5 hPa 0,0 mm 1,6 km/h (1 Bft) NW 326 0 min 0,000 mm 2,8 UV-I 288 W/m 15,9 C 4,8 km/h (1 Bft)
03.09.2016 14:37 20,7 C 20,7 C 72 % 1018,6 hPa 0,0 mm 2,1 km/h (1 Bft) N-NW 331 0 min 0,000 mm 2,8 UV-I 290 W/m 15,5 C 3,2 km/h (1 Bft)
03.09.2016 14:38 20,7 C 20,7 C 73 % 1018,5 hPa 0,0 mm 5,0 km/h (1 Bft) NW 326 0 min 0,000 mm 2,8 UV-I 285 W/m 15,7 C 6,4 km/h (2 Bft)
03.09.2016 14:39 20,8 C 20,8 C 71 % 1018,5 hPa 0,0 mm 4,6 km/h (1 Bft) NW 326 0 min 0,000 mm 2,7 UV-I 281 W/m 15,3 C 6,4 km/h (2 Bft)
03.09.2016 14:40 20,8 C 20,8 C 70 % 1018,6 hPa 0,0 mm 1,7 km/h (1 Bft) NW 326 0 min 0,000 mm 2,7 UV-I 278 W/m 15,1 C 3,2 km/h (1 Bft)
03.09.2016 14:41 20,7 C 20,8 C 69 % 1018,5 hPa 0,0 mm 0,1 km/h (0 Bft) NW 326 0 min 0,000 mm 2,7 UV-I 274 W/m 14,8 C 1,6 km/h (1 Bft)
03.09.2016 14:42 20,7 C 20,7 C 70 % 1018,5 hPa 0,0 mm 0,0 km/h (0 Bft) NW 326 0 min 0,000 mm 2,7 UV-I 271 W/m 15,0 C 0,0 km/h (0 Bft)
03.09.2016 14:43 20,7 C 20,7 C 71 % 1018,5 hPa 0,0 mm 0,1 km/h (0 Bft) NW 326 0 min 0,000 mm 2,6 UV-I 267 W/m 15,2 C 1,6 km/h (1 Bft)
03.09.2016 14:44 20,7 C 20,7 C 73 % 1018,5 hPa 0,0 mm 0,0 km/h (0 Bft) NW 326 0 min 0,000 mm 2,6 UV-I 267 W/m 15,7 C 0,0 km/h (0 Bft)
03.09.2016 14:45 20,7 C 20,7 C 73 % 1018,5 hPa 0,0 mm 0,0 km/h (0 Bft) NW 326 0 min 0,000 mm 2,7 UV-I 269 W/m 15,7 C 0,0 km/h (0 Bft)
03.09.2016 14:46 20,6 C 20,7 C 70 % 1018,6 hPa 0,0 mm 0,0 km/h (0 Bft) NW 326 0 min 0,000 mm 2,7 UV-I 271 W/m 14,9 C 0,0 km/h (0 Bft)
03.09.2016 14:47 20,6 C 20,7 C 69 % 1018,5 hPa 0,0 mm 0,0 km/h (0 Bft) NW 326 0 min 0,000 mm 2,7 UV-I 274 W/m 14,7 C 0,0 km/h (0 Bft)
03.09.2016 14:48 20,7 C 20,7 C 69 % 1018,5 hPa 0,0 mm 0,0 km/h (0 Bft) NW 326 0 min 0,000 mm 2,8 UV-I 287 W/m 14,8 C 0,0 km/h (0 Bft)
03.09.2016 14:49 20,6 C 20,7 C 70 % 1018,5 hPa 0,0 mm 1,6 km/h (1 Bft) W-NW 284 0 min 0,000 mm 3,6 UV-I 313 W/m 14,9 C 3,2 km/h (1 Bft)
03.09.2016 14:50 20,7 C 20,7 C 71 % 1018,5 hPa 0,0 mm 2,3 km/h (1 Bft) NW 306 0 min 0,000 mm 3,0 UV-I 306 W/m 15,2 C 3,2 km/h (1 Bft)
03.09.2016 14:51 20,7 C 20,7 C 74 % 1018,5 hPa 0,0 mm 2,4 km/h (1 Bft) NW 306 0 min 0,000 mm 2,8 UV-I 292 W/m 15,9 C 3,2 km/h (1 Bft)
03.09.2016 14:52 20,7 C 20,7 C 74 % 1018,5 hPa 0,0 mm 0,7 km/h (0 Bft) NW 306 0 min 0,000 mm 2,8 UV-I 294 W/m 15,9 C 1,6 km/h (1 Bft)
03.09.2016 14:53 20,8 C 20,8 C 74 % 1018,5 hPa 0,0 mm 4,0 km/h (1 Bft) N 355 0 min 0,000 mm 3,1 UV-I 332 W/m 16,0 C 6,4 km/h (2 Bft)
03.09.2016 14:54 20,8 C 20,8 C 70 % 1018,5 hPa 0,0 mm 4,0 km/h (1 Bft) N-NO 31 1 min 0,000 mm 3,3 UV-I 411 W/m 15,1 C 4,8 km/h (1 Bft)
03.09.2016 14:55 20,8 C 20,8 C 70 % 1018,5 hPa 0,0 mm 4,2 km/h (1 Bft) O-NO 64 1 min 0,000 mm 3,7 UV-I 401 W/m 15,1 C 4,8 km/h (1 Bft)
03.09.2016 14:56 20,9 C 20,9 C 71 % 1018,5 hPa 0,0 mm 3,4 km/h (1 Bft) NO 51 1 min 0,000 mm 3,1 UV-I 383 W/m 15,4 C 4,8 km/h (1 Bft)
03.09.2016 14:57 20,9 C 20,9 C 69 % 1018,5 hPa 0,0 mm 0,3 km/h (0 Bft) NO 51 0 min 0,000 mm 2,9 UV-I 334 W/m 15,0 C 1,6 km/h (1 Bft)
03.09.2016 14:58 20,8 C 20,9 C 69 % 1018,5 hPa 0,0 mm 2,5 km/h (1 Bft) NO 51 0 min 0,000 mm 2,8 UV-I 308 W/m 14,9 C 3,2 km/h (1 Bft)
03.09.2016 14:59 20,8 C 20,8 C 72 % 1018,4 hPa 0,0 mm 4,0 km/h (1 Bft) N 355 0 min 0,000 mm 2,6 UV-I 288 W/m 15,6 C 4,8 km/h (1 Bft)
03.09.2016 15:00 20,8 C 20,8 C 70 % 1018,5 hPa 0,0 mm 2,5 km/h (1 Bft) N 355 0 min 0,000 mm 2,5 UV-I 274 W/m 15,1 C 4,8 km/h (1 Bft)
03.09.2016 15:01 20,8 C 20,8 C 72 % 1018,5 hPa 0,0 mm 2,9 km/h (1 Bft) N 360 0 min 0,178 mm 2,5 UV-I 267 W/m 15,6 C 3,2 km/h (1 Bft)
03.09.2016 15:02 20,9 C 20,9 C 71 % 1018,4 hPa 0,0 mm 2,5 km/h (1 Bft) N 360 0 min 0,000 mm 2,4 UV-I 269 W/m 15,4 C 3,2 km/h (1 Bft)
03.09.2016 15:03 20,8 C 20,9 C 71 % 1018,5 hPa 0,0 mm 2,0 km/h (1 Bft) N 360 0 min 0,000 mm 2,4 UV-I 269 W/m 15,3 C 3,2 km/h (1 Bft)
03.09.2016 15:04 20,8 C 20,8 C 72 % 1018,5 hPa 0,0 mm 1,8 km/h (1 Bft) N 360 0 min 0,000 mm 2,4 UV-I 271 W/m 15,6 C 3,2 km/h (1 Bft)
03.09.2016 15:05 20,8 C 20,9 C 72 % 1018,4 hPa 0,0 mm 0,8 km/h (0 Bft) N 360 0 min 0,000 mm 2,4 UV-I 276 W/m 15,6 C 1,6 km/h (1 Bft)
03.09.2016 15:06 20,8 C 20,9 C 72 % 1018,4 hPa 0,0 mm 1,5 km/h (1 Bft) N 360 0 min 0,000 mm 2,5 UV-I 285 W/m 15,6 C 3,2 km/h (1 Bft)
03.09.2016 15:07 20,8 C 20,8 C 72 % 1018,4 hPa 0,0 mm 1,7 km/h (1 Bft) N 355 0 min 0,000 mm 2,5 UV-I 278 W/m 15,6 C 3,2 km/h (1 Bft)
03.09.2016 15:08 20,9 C 20,9 C 72 % 1018,4 hPa 0,0 mm 2,7 km/h (1 Bft) N 360 0 min 0,000 mm 2,4 UV-I 279 W/m 15,7 C 4,8 km/h (1 Bft)
03.09.2016 15:09 20,9 C 20,9 C 72 % 1018,4 hPa 0,0 mm 5,0 km/h (1 Bft) N 360 0 min 0,000 mm 2,5 UV-I 285 W/m 15,7 C 6,4 km/h (2 Bft)
03.09.2016 15:10 20,9 C 20,9 C 70 % 1018,4 hPa 0,0 mm 4,2 km/h (1 Bft) N 5 0 min 0,000 mm 2,4 UV-I 281 W/m 15,2 C 4,8 km/h (1 Bft)
03.09.2016 15:11 21,0 C 21,0 C 72 % 1018,4 hPa 0,0 mm 3,9 km/h (1 Bft) N 360 0 min 0,000 mm 2,4 UV-I 271 W/m 15,8 C 4,8 km/h (1 Bft)
03.09.2016 15:12 20,9 C 21,0 C 71 % 1018,4 hPa 0,0 mm 5,8 km/h (2 Bft) N 5 0 min 0,000 mm 2,4 UV-I 264 W/m 15,4 C 6,4 km/h (2 Bft)
03.09.2016 15:13 20,9 C 20,9 C 71 % 1018,4 hPa 0,0 mm 5,4 km/h (1 Bft) NW 309 0 min 0,000 mm 2,3 UV-I 251 W/m 15,4 C 8,0 km/h (2 Bft)
03.09.2016 15:14 20,9 C 20,9 C 73 % 1018,4 hPa 0,0 mm 4,2 km/h (1 Bft) NW 304 0 min 0,000 mm 2,3 UV-I 248 W/m 15,9 C 6,4 km/h (2 Bft)
03.09.2016 15:15 20,9 C 20,9 C 74 % 1018,4 hPa 0,0 mm 4,2 km/h (1 Bft) NW 306 0 min 0,000 mm 2,3 UV-I 246 W/m 16,1 C 6,4 km/h (2 Bft)
03.09.2016 15:16 20,8 C 20,9 C 72 % 1018,4 hPa 0,0 mm 3,2 km/h (1 Bft) NW 319 0 min 0,000 mm 2,3 UV-I 243 W/m 15,6 C 6,4 km/h (2 Bft)
03.09.2016 15:17 20,8 C 20,8 C 72 % 1018,3 hPa 0,0 mm 2,6 km/h (1 Bft) N-NW 329 0 min 0,000 mm 2,3 UV-I 237 W/m 15,6 C 4,8 km/h (1 Bft)
03.09.2016 15:18 20,8 C 20,8 C 72 % 1018,3 hPa 0,0 mm 0,5 km/h (0 Bft) N-NW 329 0 min 0,000 mm 2,2 UV-I 227 W/m 15,6 C 1,6 km/h (1 Bft)
03.09.2016 15:19 20,7 C 20,8 C 71 % 1018,3 hPa 0,0 mm 2,2 km/h (1 Bft) N-NW 329 0 min 0,000 mm 2,2 UV-I 220 W/m 15,2 C 4,8 km/h (1 Bft)
03.09.2016 15:20 20,7 C 20,8 C 74 % 1018,4 hPa 0,0 mm 2,6 km/h (1 Bft) N-NW 329 0 min 0,000 mm 2,1 UV-I 211 W/m 15,9 C 4,8 km/h (1 Bft)
03.09.2016 15:21 20,7 C 20,8 C 72 % 1018,4 hPa 0,0 mm 1,4 km/h (1 Bft) N-NW 329 0 min 0,000 mm 2,1 UV-I 206 W/m 15,5 C 3,2 km/h (1 Bft)
03.09.2016 15:22 20,8 C 20,8 C 72 % 1018,4 hPa 0,0 mm 0,2 km/h (0 Bft) N-NW 329 0 min 0,000 mm 2,0 UV-I 202 W/m 15,6 C 1,6 km/h (1 Bft)
03.09.2016 15:23 20,7 C 20,8 C 72 % 1018,3 hPa 0,0 mm 0,0 km/h (0 Bft) N-NW 329 0 min 0,000 mm 2,0 UV-I 200 W/m 15,5 C 0,0 km/h (0 Bft)
03.09.2016 15:24 20,7 C 20,7 C 71 % 1018,3 hPa 0,0 mm 1,6 km/h (1 Bft) N-NW 344 0 min 0,000 mm 2,0 UV-I 204 W/m 15,2 C 4,8 km/h (1 Bft)
03.09.2016 15:25 20,7 C 20,7 C 72 % 1018,3 hPa 0,0 mm 2,6 km/h (1 Bft) N-NW 344 0 min 0,000 mm 2,0 UV-I 209 W/m 15,5 C 4,8 km/h (1 Bft)
03.09.2016 15:26 20,7 C 20,7 C 71 % 1018,3 hPa 0,0 mm 1,2 km/h (1 Bft) N-NW 344 0 min 0,000 mm 2,1 UV-I 213 W/m 15,2 C 1,6 km/h (1 Bft)
03.09.2016 15:27 20,7 C 20,7 C 72 % 1018,3 hPa 0,0 mm 0,9 km/h (0 Bft) N-NW 344 0 min 0,000 mm 2,1 UV-I 216 W/m 15,5 C 3,2 km/h (1 Bft)
03.09.2016 15:28 20,7 C 20,7 C 72 % 1018,3 hPa 0,0 mm 0,9 km/h (0 Bft) N-NW 344 0 min 0,000 mm 2,1 UV-I 220 W/m 15,5 C 1,6 km/h (1 Bft)
03.09.2016 15:29 20,7 C 20,7 C 72 % 1018,2 hPa 0,0 mm 1,9 km/h (1 Bft) N 5 0 min 0,000 mm 2,1 UV-I 220 W/m 15,5 C 3,2 km/h (1 Bft)
03.09.2016 15:30 20,7 C 20,7 C 73 % 1018,2 hPa 0,0 mm 0,8 km/h (0 Bft) N 5 0 min 0,000 mm 2,1 UV-I 216 W/m 15,7 C 3,2 km/h (1 Bft)
03.09.2016 15:31 20,6 C 20,7 C 74 % 1018,3 hPa 0,0 mm 1,0 km/h (0 Bft) N 360 0 min 0,000 mm 2,1 UV-I 216 W/m 15,8 C 3,2 km/h (1 Bft)
03.09.2016 15:32 20,6 C 20,6 C 73 % 1018,2 hPa 0,0 mm 1,9 km/h (1 Bft) N 360 0 min 0,000 mm 2,1 UV-I 216 W/m 15,6 C 3,2 km/h (1 Bft)
03.09.2016 15:33 20,6 C 20,6 C 73 % 1018,2 hPa 0,0 mm 0,9 km/h (0 Bft) N 360 0 min 0,000 mm 2,1 UV-I 218 W/m 15,6 C 3,2 km/h (1 Bft)
03.09.2016 15:34 20,6 C 20,6 C 72 % 1018,2 hPa 0,0 mm 2,1 km/h (1 Bft) N 360 0 min 0,000 mm 2,1 UV-I 218 W/m 15,4 C 3,2 km/h (1 Bft)
03.09.2016 15:35 20,6 C 20,6 C 74 % 1018,2 hPa 0,0 mm 2,0 km/h (1 Bft) N 360 0 min 0,000 mm 2,1 UV-I 220 W/m 15,8 C 3,2 km/h (1 Bft)
03.09.2016 15:36 20,6 C 20,6 C 72 % 1018,2 hPa 0,0 mm 1,2 km/h (1 Bft) N 360 0 min 0,000 mm 2,1 UV-I 221 W/m 15,4 C 3,2 km/h (1 Bft)
03.09.2016 15:37 20,6 C 20,6 C 73 % 1018,2 hPa 0,0 mm 2,1 km/h (1 Bft) N 360 0 min 0,000 mm 2,1 UV-I 221 W/m 15,6 C 3,2 km/h (1 Bft)
03.09.2016 15:38 20,7 C 20,7 C 73 % 1018,2 hPa 0,0 mm 1,2 km/h (1 Bft) N 360 0 min 0,000 mm 2,0 UV-I 220 W/m 15,7 C 3,2 km/h (1 Bft)
03.09.2016 15:39 20,6 C 20,7 C 73 % 1018,2 hPa 0,0 mm 0,0 km/h (0 Bft) N 360 0 min 0,000 mm 2,0 UV-I 218 W/m 15,6 C 0,0 km/h (0 Bft)
03.09.2016 15:40 20,6 C 20,7 C 72 % 1018,2 hPa 0,0 mm 0,0 km/h (0 Bft) N 360 0 min 0,000 mm 2,0 UV-I 214 W/m 15,4 C 0,0 km/h (0 Bft)
03.09.2016 15:41 20,7 C 20,7 C 74 % 1018,2 hPa 0,0 mm 0,0 km/h (0 Bft) N 360 0 min 0,000 mm 1,9 UV-I 213 W/m 15,9 C 0,0 km/h (0 Bft)
03.09.2016 15:42 20,7 C 20,7 C 74 % 1018,3 hPa 0,0 mm 0,0 km/h (0 Bft) N 360 0 min 0,000 mm 1,9 UV-I 209 W/m 15,9 C 0,0 km/h (0 Bft)
03.09.2016 15:43 20,7 C 20,7 C 74 % 1018,3 hPa 0,0 mm 0,0 km/h (0 Bft) N 360 0 min 0,000 mm 1,9 UV-I 204 W/m 15,9 C 0,0 km/h (0 Bft)
03.09.2016 15:44 20,8 C 20,8 C 72 % 1018,3 hPa 0,0 mm 0,0 km/h (0 Bft) N 360 0 min 0,000 mm 1,8 UV-I 202 W/m 15,6 C 0,0 km/h (0 Bft)
03.09.2016 15:45 20,8 C 20,8 C 72 % 1018,3 hPa 0,0 mm 0,0 km/h (0 Bft) N 360 0 min 0,000 mm 1,8 UV-I 200 W/m 15,6 C 0,0 km/h (0 Bft)
03.09.2016 15:46 20,8 C 20,8 C 70 % 1018,2 hPa 0,0 mm 0,0 km/h (0 Bft) N 360 0 min 0,000 mm 1,8 UV-I 199 W/m 15,1 C 0,0 km/h (0 Bft)
03.09.2016 15:47 20,8 C 20,8 C 70 % 1018,2 hPa 0,0 mm 2,9 km/h (1 Bft) N 5 0 min 0,000 mm 1,8 UV-I 195 W/m 15,1 C 4,8 km/h (1 Bft)
03.09.2016 15:48 20,7 C 20,8 C 70 % 1018,2 hPa 0,0 mm 3,2 km/h (1 Bft) N 5 0 min 0,000 mm 1,7 UV-I 190 W/m 15,0 C 4,8 km/h (1 Bft)
03.09.2016 15:49 20,7 C 20,7 C 70 % 1018,2 hPa 0,0 mm 3,0 km/h (1 Bft) N 5 0 min 0,000 mm 1,7 UV-I 186 W/m 15,0 C 6,4 km/h (2 Bft)
03.09.2016 15:50 20,7 C 20,7 C 71 % 1018,2 hPa 0,0 mm 2,7 km/h (1 Bft) N 5 0 min 0,000 mm 1,6 UV-I 183 W/m 15,2 C 3,2 km/h (1 Bft)
03.09.2016 15:51 20,7 C 20,7 C 71 % 1018,2 hPa 0,0 mm 3,0 km/h (1 Bft) N 5 0 min 0,000 mm 1,6 UV-I 178 W/m 15,2 C 4,8 km/h (1 Bft)
03.09.2016 15:52 20,7 C 20,7 C 73 % 1018,1 hPa 0,0 mm 3,7 km/h (1 Bft) N 9 0 min 0,000 mm 1,5 UV-I 172 W/m 15,7 C 4,8 km/h (1 Bft)
03.09.2016 15:53 20,7 C 20,7 C 71 % 1018,2 hPa 0,0 mm 2,8 km/h (1 Bft) N 5 0 min 0,000 mm 1,5 UV-I 167 W/m 15,2 C 4,8 km/h (1 Bft)
03.09.2016 15:54 20,7 C 20,7 C 71 % 1018,2 hPa 0,0 mm 2,6 km/h (1 Bft) N 5 0 min 0,000 mm 1,4 UV-I 162 W/m 15,2 C 3,2 km/h (1 Bft)
03.09.2016 15:55 20,7 C 20,7 C 71 % 1018,2 hPa 0,0 mm 1,8 km/h (1 Bft) N 5 0 min 0,000 mm 1,4 UV-I 160 W/m 15,2 C 3,2 km/h (1 Bft)
03.09.2016 15:56 20,7 C 20,7 C 71 % 1018,1 hPa 0,0 mm 1,5 km/h (1 Bft) N 5 0 min 0,000 mm 1,3 UV-I 158 W/m 15,2 C 3,2 km/h (1 Bft)
03.09.2016 15:57 20,7 C 20,7 C 72 % 1018,1 hPa 0,0 mm 1,1 km/h (1 Bft) N 5 0 min 0,000 mm 1,3 UV-I 156 W/m 15,5 C 1,6 km/h (1 Bft)
03.09.2016 15:58 20,7 C 20,7 C 74 % 1018,1 hPa 0,0 mm 1,9 km/h (1 Bft) N 5 0 min 0,000 mm 1,3 UV-I 151 W/m 15,9 C 3,2 km/h (1 Bft)
03.09.2016 15:59 20,7 C 20,7 C 75 % 1018,1 hPa 0,0 mm 1,5 km/h (1 Bft) N 5 0 min 0,000 mm 1,3 UV-I 148 W/m 16,1 C 3,2 km/h (1 Bft)
03.09.2016 16:00 20,7 C 20,7 C 73 % 1018,1 hPa 0,0 mm 1,1 km/h (1 Bft) N 5 0 min 0,127 mm 1,2 UV-I 142 W/m 15,7 C 3,2 km/h (1 Bft)
03.09.2016 16:01 20,7 C 20,7 C 72 % 1018,1 hPa 0,0 mm 1,2 km/h (1 Bft) N 5 0 min 0,000 mm 1,2 UV-I 141 W/m 15,5 C 1,6 km/h (1 Bft)
03.09.2016 16:02 20,6 C 20,7 C 73 % 1018,1 hPa 0,0 mm 1,9 km/h (1 Bft) N 5 0 min 0,000 mm 1,2 UV-I 139 W/m 15,6 C 3,2 km/h (1 Bft)
03.09.2016 16:03 20,6 C 20,6 C 77 % 1018,1 hPa 0,0 mm 2,0 km/h (1 Bft) N 5 0 min 0,000 mm 1,2 UV-I 137 W/m 16,4 C 3,2 km/h (1 Bft)
03.09.2016 16:04 20,6 C 20,6 C 73 % 1018,1 hPa 0,0 mm 1,7 km/h (1 Bft) N 5 0 min 0,000 mm 1,2 UV-I 135 W/m 15,6 C 3,2 km/h (1 Bft)
03.09.2016 16:05 20,6 C 20,6 C 76 % 1018,1 hPa 0,0 mm 1,0 km/h (0 Bft) N 5 0 min 0,000 mm 1,1 UV-I 134 W/m 16,2 C 1,6 km/h (1 Bft)
03.09.2016 16:06 20,4 C 20,6 C 74 % 1018,0 hPa 0,0 mm 1,9 km/h (1 Bft) N 5 0 min 0,000 mm 1,1 UV-I 134 W/m 15,6 C 3,2 km/h (1 Bft)
03.09.2016 16:07 20,4 C 20,4 C 75 % 1018,0 hPa 0,0 mm 0,5 km/h (0 Bft) N 5 0 min 0,000 mm 1,1 UV-I 134 W/m 15,8 C 1,6 km/h (1 Bft)
03.09.2016 16:08 20,5 C 20,5 C 74 % 1018,0 hPa 0,0 mm 1,8 km/h (1 Bft) N 5 0 min 0,000 mm 1,1 UV-I 135 W/m 15,7 C 3,2 km/h (1 Bft)
03.09.2016 16:09 20,5 C 20,6 C 77 % 1018,0 hPa 0,0 mm 0,4 km/h (0 Bft) N 5 0 min 0,000 mm 1,2 UV-I 137 W/m 16,3 C 1,6 km/h (1 Bft)
03.09.2016 16:10 20,5 C 20,5 C 75 % 1018,0 hPa 0,0 mm 0,2 km/h (0 Bft) N 5 0 min 0,000 mm 1,2 UV-I 139 W/m 15,9 C 1,6 km/h (1 Bft)
03.09.2016 16:11 20,5 C 20,5 C 78 % 1018,0 hPa 0,0 mm 1,1 km/h (1 Bft) N 5 0 min 0,000 mm 1,2 UV-I 146 W/m 16,5 C 3,2 km/h (1 Bft)
03.09.2016 16:12 20,5 C 20,5 C 75 % 1018,0 hPa 0,0 mm 1,1 km/h (1 Bft) N 5 0 min 0,000 mm 1,2 UV-I 149 W/m 15,9 C 3,2 km/h (1 Bft)
03.09.2016 16:13 20,5 C 20,6 C 73 % 1018,0 hPa 0,0 mm 0,7 km/h (0 Bft) N 5 0 min 0,000 mm 1,3 UV-I 153 W/m 15,5 C 1,6 km/h (1 Bft)
03.09.2016 16:14 20,6 C 20,6 C 73 % 1018,0 hPa 0,0 mm 1,2 km/h (1 Bft) N 5 0 min 0,000 mm 1,3 UV-I 155 W/m 15,6 C 1,6 km/h (1 Bft)
03.09.2016 16:15 20,6 C 20,6 C 72 % 1018,0 hPa 0,0 mm 0,7 km/h (0 Bft) N 5 0 min 0,000 mm 1,3 UV-I 156 W/m 15,4 C 3,2 km/h (1 Bft)
03.09.2016 16:16 20,6 C 20,6 C 72 % 1018,0 hPa 0,0 mm 2,2 km/h (1 Bft) N 5 0 min 0,000 mm 1,3 UV-I 158 W/m 15,4 C 3,2 km/h (1 Bft)
03.09.2016 16:17 20,6 C 20,6 C 72 % 1018,0 hPa 0,0 mm 1,8 km/h (1 Bft) N 5 0 min 0,000 mm 1,3 UV-I 160 W/m 15,4 C 3,2 km/h (1 Bft)
03.09.2016 16:18 20,6 C 20,7 C 73 % 1018,0 hPa 0,0 mm 1,5 km/h (1 Bft) N 5 0 min 0,000 mm 1,3 UV-I 160 W/m 15,6 C 3,2 km/h (1 Bft)
03.09.2016 16:19 20,7 C 20,7 C 73 % 1018,0 hPa 0,0 mm 1,6 km/h (1 Bft) N 5 0 min 0,000 mm 1,3 UV-I 160 W/m 15,7 C 3,2 km/h (1 Bft)
03.09.2016 16:20 20,6 C 20,7 C 76 % 1017,9 hPa 0,0 mm 1,2 km/h (1 Bft) N 5 0 min 0,000 mm 1,3 UV-I 160 W/m 16,2 C 3,2 km/h (1 Bft)
03.09.2016 16:21 20,5 C 20,6 C 76 % 1017,9 hPa 0,0 mm 1,0 km/h (0 Bft) N 5 0 min 0,000 mm 1,3 UV-I 158 W/m 16,1 C 1,6 km/h (1 Bft)
03.09.2016 16:22 20,4 C 20,5 C 77 % 1017,9 hPa 0,0 mm 0,0 km/h (0 Bft) N 5 0 min 0,000 mm 1,3 UV-I 156 W/m 16,2 C 0,0 km/h (0 Bft)
03.09.2016 16:23 20,4 C 20,4 C 76 % 1017,9 hPa 0,0 mm 0,2 km/h (0 Bft) N 5 0 min 0,000 mm 1,3 UV-I 149 W/m 16,0 C 1,6 km/h (1 Bft)
03.09.2016 16:24 20,4 C 20,4 C 76 % 1017,9 hPa 0,0 mm 0,5 km/h (0 Bft) N 5 0 min 0,000 mm 1,2 UV-I 146 W/m 16,0 C 1,6 km/h (1 Bft)
03.09.2016 16:25 20,4 C 20,4 C 77 % 1017,9 hPa 0,0 mm 0,1 km/h (0 Bft) N 5 0 min 0,000 mm 1,2 UV-I 142 W/m 16,2 C 1,6 km/h (1 Bft)
03.09.2016 16:26 20,3 C 20,4 C 80 % 1017,9 hPa 0,0 mm 1,7 km/h (1 Bft) N 5 0 min 0,000 mm 1,2 UV-I 139 W/m 16,7 C 3,2 km/h (1 Bft)
03.09.2016 16:27 20,3 C 20,3 C 77 % 1017,9 hPa 0,0 mm 2,5 km/h (1 Bft) N 5 0 min 0,000 mm 1,2 UV-I 137 W/m 16,1 C 3,2 km/h (1 Bft)
03.09.2016 16:28 20,3 C 20,3 C 76 % 1017,9 hPa 0,0 mm 2,7 km/h (1 Bft) N 5 0 min 0,000 mm 1,1 UV-I 135 W/m 15,9 C 4,8 km/h (1 Bft)
03.09.2016 16:29 20,3 C 20,3 C 78 % 1017,9 hPa 0,0 mm 3,1 km/h (1 Bft) N 5 0 min 0,000 mm 1,1 UV-I 134 W/m 16,3 C 3,2 km/h (1 Bft)
03.09.2016 16:30 20,2 C 20,3 C 79 % 1017,9 hPa 0,0 mm 0,7 km/h (0 Bft) N 5 0 min 0,000 mm 1,1 UV-I 135 W/m 16,4 C 1,6 km/h (1 Bft)
03.09.2016 16:31 20,1 C 20,2 C 80 % 1017,8 hPa 0,0 mm 0,5 km/h (0 Bft) N 5 0 min 0,000 mm 1,1 UV-I 137 W/m 16,5 C 1,6 km/h (1 Bft)
03.09.2016 16:32 20,1 C 20,1 C 80 % 1017,8 hPa 0,0 mm 0,3 km/h (0 Bft) N 5 0 min 0,000 mm 1,2 UV-I 141 W/m 16,5 C 1,6 km/h (1 Bft)
03.09.2016 16:33 20,0 C 20,1 C 78 % 1017,8 hPa 0,0 mm 0,1 km/h (0 Bft) N 5 0 min 0,000 mm 1,2 UV-I 146 W/m 16,0 C 1,6 km/h (1 Bft)
03.09.2016 16:34 20,1 C 20,1 C 78 % 1017,8 hPa 0,0 mm 0,1 km/h (0 Bft) N 5 0 min 0,000 mm 1,2 UV-I 155 W/m 16,1 C 1,6 km/h (1 Bft)
03.09.2016 16:35 20,1 C 20,1 C 79 % 1017,8 hPa 0,0 mm 1,1 km/h (1 Bft) N 5 0 min 0,000 mm 1,3 UV-I 156 W/m 16,3 C 3,2 km/h (1 Bft)
03.09.2016 16:36 20,2 C 20,2 C 77 % 1017,8 hPa 0,0 mm 0,6 km/h (0 Bft) N 5 0 min 0,000 mm 1,2 UV-I 156 W/m 16,0 C 1,6 km/h (1 Bft)
03.09.2016 16:37 20,3 C 20,3 C 77 % 1017,8 hPa 0,0 mm 1,0 km/h (0 Bft) N 5 0 min 0,000 mm 1,2 UV-I 155 W/m 16,1 C 1,6 km/h (1 Bft)
03.09.2016 16:38 20,3 C 20,3 C 74 % 1017,8 hPa 0,0 mm 0,3 km/h (0 Bft) N 5 0 min 0,000 mm 1,2 UV-I 155 W/m 15,5 C 1,6 km/h (1 Bft)
03.09.2016 16:39 20,3 C 20,3 C 73 % 1017,8 hPa 0,0 mm 0,9 km/h (0 Bft) N 5 0 min 0,000 mm 1,2 UV-I 156 W/m 15,3 C 3,2 km/h (1 Bft)
03.09.2016 16:40 20,4 C 20,4 C 73 % 1017,8 hPa 0,0 mm 1,7 km/h (1 Bft) N 5 0 min 0,000 mm 1,3 UV-I 160 W/m 15,4 C 3,2 km/h (1 Bft)
03.09.2016 16:41 20,4 C 20,4 C 74 % 1017,8 hPa 0,0 mm 1,6 km/h (1 Bft) N 5 0 min 0,000 mm 1,3 UV-I 160 W/m 15,6 C 3,2 km/h (1 Bft)
03.09.2016 16:42 20,4 C 20,4 C 75 % 1017,8 hPa 0,0 mm 1,5 km/h (1 Bft) N 5 0 min 0,000 mm 1,2 UV-I 162 W/m 15,8 C 1,6 km/h (1 Bft)
03.09.2016 16:43 20,4 C 20,5 C 73 % 1017,8 hPa 0,0 mm 1,1 km/h (1 Bft) N 5 0 min 0,000 mm 1,3 UV-I 162 W/m 15,4 C 1,6 km/h (1 Bft)
03.09.2016 16:44 20,5 C 20,5 C 73 % 1017,8 hPa 0,0 mm 0,7 km/h (0 Bft) N 5 0 min 0,000 mm 1,3 UV-I 163 W/m 15,5 C 1,6 km/h (1 Bft)
03.09.2016 16:45 20,5 C 20,5 C 72 % 1017,8 hPa 0,0 mm 0,0 km/h (0 Bft) N 5 0 min 0,000 mm 1,3 UV-I 163 W/m 15,3 C 0,0 km/h (0 Bft)
03.09.2016 16:46 20,6 C 20,6 C 72 % 1017,8 hPa 0,0 mm 0,0 km/h (0 Bft) N 5 0 min 0,000 mm 1,3 UV-I 163 W/m 15,4 C 0,0 km/h (0 Bft)
03.09.2016 16:47 20,6 C 20,6 C 72 % 1017,8 hPa 0,0 mm 0,2 km/h (0 Bft) N 5 0 min 0,000 mm 1,3 UV-I 162 W/m 15,4 C 1,6 km/h (1 Bft)
03.09.2016 16:48 20,6 C 20,6 C 78 % 1017,8 hPa 0,0 mm 0,6 km/h (0 Bft) N 5 0 min 0,000 mm 1,3 UV-I 158 W/m 16,6 C 1,6 km/h (1 Bft)
03.09.2016 16:49 20,4 C 20,6 C 76 % 1017,7 hPa 0,0 mm 0,1 km/h (0 Bft) N 5 0 min 0,000 mm 1,2 UV-I 155 W/m 16,0 C 1,6 km/h (1 Bft)
03.09.2016 16:50 20,4 C 20,4 C 80 % 1017,8 hPa 0,0 mm 0,0 km/h (0 Bft) N 5 0 min 0,000 mm 1,2 UV-I 149 W/m 16,8 C 0,0 km/h (0 Bft)
03.09.2016 16:51 20,3 C 20,4 C 77 % 1017,8 hPa 0,0 mm 2,1 km/h (1 Bft) N 5 0 min 0,000 mm 1,2 UV-I 146 W/m 16,1 C 3,2 km/h (1 Bft)
03.09.2016 16:52 20,3 C 20,3 C 78 % 1017,8 hPa 0,0 mm 0,9 km/h (0 Bft) N 5 0 min 0,000 mm 1,2 UV-I 137 W/m 16,3 C 1,6 km/h (1 Bft)
03.09.2016 16:53 20,2 C 20,3 C 76 % 1017,7 hPa 0,0 mm 0,2 km/h (0 Bft) N 5 0 min 0,000 mm 1,1 UV-I 134 W/m 15,8 C 1,6 km/h (1 Bft)
03.09.2016 16:54 20,3 C 20,3 C 76 % 1017,7 hPa 0,0 mm 0,1 km/h (0 Bft) N 5 0 min 0,000 mm 1,1 UV-I 130 W/m 15,9 C 1,6 km/h (1 Bft)
03.09.2016 16:55 20,3 C 20,3 C 77 % 1017,8 hPa 0,0 mm 0,4 km/h (0 Bft) N 5 0 min 0,000 mm 1,1 UV-I 127 W/m 16,1 C 1,6 km/h (1 Bft)
03.09.2016 16:56 20,4 C 20,4 C 75 % 1017,8 hPa 0,0 mm 0,6 km/h (0 Bft) N 5 0 min 0,000 mm 1,1 UV-I 123 W/m 15,8 C 1,6 km/h (1 Bft)
03.09.2016 16:57 20,4 C 20,4 C 77 % 1017,8 hPa 0,0 mm 0,8 km/h (0 Bft) N 5 0 min 0,000 mm 1,1 UV-I 123 W/m 16,2 C 1,6 km/h (1 Bft)
03.09.2016 16:58 20,4 C 20,4 C 80 % 1017,8 hPa 0,0 mm 1,0 km/h (0 Bft) N 5 0 min 0,000 mm 1,0 UV-I 111 W/m 16,8 C 1,6 km/h (1 Bft)
03.09.2016 16:59 20,3 C 20,4 C 78 % 1017,7 hPa 0,0 mm 0,1 km/h (0 Bft) N 5 0 min 0,000 mm 1,0 UV-I 107 W/m 16,3 C 1,6 km/h (1 Bft)
03.09.2016 17:00 20,3 C 20,3 C 77 % 1017,7 hPa 0,0 mm 0,2 km/h (0 Bft) N 5 0 min 0,000 mm 1,0 UV-I 104 W/m 16,1 C 1,6 km/h (1 Bft)
03.09.2016 17:01 20,2 C 20,3 C 78 % 1017,7 hPa 0,0 mm 0,0 km/h (0 Bft) N 5 0 min 0,101 mm 0,9 UV-I 100 W/m 16,2 C 0,0 km/h (0 Bft)
03.09.2016 17:02 20,1 C 20,2 C 78 % 1017,7 hPa 0,0 mm 0,0 km/h (0 Bft) N 5 0 min 0,000 mm 0,9 UV-I 98 W/m 16,1 C 0,0 km/h (0 Bft)
03.09.2016 17:03 20,0 C 20,1 C 82 % 1017,7 hPa 0,0 mm 0,0 km/h (0 Bft) N 5 0 min 0,000 mm 0,9 UV-I 97 W/m 16,8 C 0,0 km/h (0 Bft)
03.09.2016 17:04 19,9 C 20,0 C 82 % 1017,7 hPa 0,0 mm 0,0 km/h (0 Bft) N 5 0 min 0,000 mm 0,9 UV-I 93 W/m 16,7 C 0,0 km/h (0 Bft)
03.09.2016 17:05 19,8 C 19,9 C 83 % 1017,7 hPa 0,0 mm 0,0 km/h (0 Bft) N 5 0 min 0,000 mm 0,8 UV-I 91 W/m 16,8 C 0,0 km/h (0 Bft)
03.09.2016 17:06 19,8 C 19,8 C 79 % 1017,7 hPa 0,0 mm 0,0 km/h (0 Bft) N 5 0 min 0,000 mm 0,8 UV-I 90 W/m 16,0 C 0,0 km/h (0 Bft)
03.09.2016 17:07 19,8 C 19,8 C 81 % 1017,7 hPa 0,0 mm 0,4 km/h (0 Bft) N 5 0 min 0,000 mm 0,8 UV-I 88 W/m 16,4 C 1,6 km/h (1 Bft)
03.09.2016 17:08 19,7 C 19,8 C 78 % 1017,7 hPa 0,0 mm 1,3 km/h (1 Bft) N 5 0 min 0,000 mm 0,8 UV-I 88 W/m 15,8 C 1,6 km/h (1 Bft)
03.09.2016 17:09 19,7 C 19,8 C 78 % 1017,6 hPa 0,0 mm 0,9 km/h (0 Bft) N 5 0 min 0,000 mm 0,8 UV-I 86 W/m 15,8 C 1,6 km/h (1 Bft)
03.09.2016 17:10 19,8 C 19,8 C 78 % 1017,6 hPa 0,0 mm 0,4 km/h (0 Bft) N 5 0 min 0,000 mm 0,7 UV-I 84 W/m 15,8 C 1,6 km/h (1 Bft)
03.09.2016 17:11 19,7 C 19,8 C 78 % 1017,6 hPa 0,0 mm 0,1 km/h (0 Bft) N 5 0 min 0,000 mm 0,7 UV-I 83 W/m 15,8 C 1,6 km/h (1 Bft)
03.09.2016 17:12 19,8 C 19,8 C 78 % 1017,6 hPa 0,0 mm 0,3 km/h (0 Bft) N 5 0 min 0,000 mm 0,7 UV-I 83 W/m 15,8 C 1,6 km/h (1 Bft)
03.09.2016 17:13 19,7 C 19,8 C 78 % 1017,7 hPa 0,0 mm 0,0 km/h (0 Bft) N 5 0 min 0,000 mm 0,7 UV-I 83 W/m 15,8 C 0,0 km/h (0 Bft)
03.09.2016 17:14 19,7 C 19,7 C 79 % 1017,6 hPa 0,0 mm 0,3 km/h (0 Bft) N 5 0 min 0,000 mm 0,7 UV-I 83 W/m 16,0 C 1,6 km/h (1 Bft)
03.09.2016 17:15 19,7 C 19,7 C 79 % 1017,6 hPa 0,0 mm 0,0 km/h (0 Bft) N 5 0 min 0,000 mm 0,7 UV-I 83 W/m 16,0 C 0,0 km/h (0 Bft)
03.09.2016 17:16 19,7 C 19,7 C 78 % 1017,6 hPa 0,0 mm 0,0 km/h (0 Bft) N 5 0 min 0,000 mm 0,7 UV-I 83 W/m 15,8 C 0,0 km/h (0 Bft)
03.09.2016 17:17 19,7 C 19,7 C 81 % 1017,6 hPa 0,0 mm 0,0 km/h (0 Bft) N 5 0 min 0,000 mm 0,7 UV-I 83 W/m 16,3 C 0,0 km/h (0 Bft)
03.09.2016 17:18 19,6 C 19,7 C 83 % 1017,6 hPa 0,0 mm 0,5 km/h (0 Bft) N 5 0 min 0,000 mm 0,6 UV-I 84 W/m 16,6 C 1,6 km/h (1 Bft)
03.09.2016 17:19 19,6 C 19,6 C 79 % 1017,7 hPa 0,0 mm 1,6 km/h (1 Bft) N 5 0 min 0,000 mm 0,6 UV-I 84 W/m 15,9 C 3,2 km/h (1 Bft)
03.09.2016 17:20 19,5 C 19,6 C 79 % 1017,6 hPa 0,0 mm 1,8 km/h (1 Bft) N 5 0 min 0,000 mm 0,7 UV-I 86 W/m 15,8 C 3,2 km/h (1 Bft)
03.09.2016 17:21 19,5 C 19,6 C 79 % 1017,6 hPa 0,0 mm 2,3 km/h (1 Bft) NO 56 0 min 0,000 mm 0,7 UV-I 90 W/m 15,8 C 3,2 km/h (1 Bft)
03.09.2016 17:22 19,6 C 19,6 C 78 % 1017,6 hPa 0,0 mm 1,9 km/h (1 Bft) NO 56 0 min 0,000 mm 0,7 UV-I 91 W/m 15,7 C 3,2 km/h (1 Bft)
03.09.2016 17:23 19,6 C 19,6 C 80 % 1017,6 hPa 0,0 mm 0,5 km/h (0 Bft) NO 56 0 min 0,000 mm 0,7 UV-I 95 W/m 16,1 C 1,6 km/h (1 Bft)
03.09.2016 17:24 19,6 C 19,6 C 79 % 1017,6 hPa 0,0 mm 0,1 km/h (0 Bft) NO 56 0 min 0,000 mm 0,7 UV-I 98 W/m 15,9 C 1,6 km/h (1 Bft)
03.09.2016 17:25 19,7 C 19,7 C 76 % 1017,7 hPa 0,0 mm 0,1 km/h (0 Bft) NO 56 0 min 0,000 mm 0,7 UV-I 104 W/m 15,3 C 1,6 km/h (1 Bft)
03.09.2016 17:26 19,7 C 19,7 C 77 % 1017,7 hPa 0,0 mm 0,0 km/h (0 Bft) NO 56 0 min 0,000 mm 0,8 UV-I 111 W/m 15,5 C 0,0 km/h (0 Bft)
03.09.2016 17:27 19,8 C 19,8 C 77 % 1017,6 hPa 0,0 mm 0,1 km/h (0 Bft) NO 56 0 min 0,000 mm 0,8 UV-I 120 W/m 15,6 C 1,6 km/h (1 Bft)
03.09.2016 17:28 19,8 C 19,8 C 78 % 1017,6 hPa 0,0 mm 0,0 km/h (0 Bft) NO 56 0 min 0,000 mm 0,8 UV-I 127 W/m 15,8 C 0,0 km/h (0 Bft)
03.09.2016 17:29 19,8 C 19,9 C 80 % 1017,6 hPa 0,0 mm 0,0 km/h (0 Bft) NO 56 0 min 0,000 mm 0,9 UV-I 137 W/m 16,2 C 0,0 km/h (0 Bft)
03.09.2016 17:30 19,9 C 19,9 C 78 % 1017,6 hPa 0,0 mm 0,1 km/h (0 Bft) NO 56 0 min 0,000 mm 1,0 UV-I 142 W/m 15,9 C 1,6 km/h (1 Bft)
03.09.2016 17:31 19,9 C 19,9 C 77 % 1017,7 hPa 0,0 mm 0,5 km/h (0 Bft) NO 56 0 min 0,000 mm 1,0 UV-I 142 W/m 15,7 C 1,6 km/h (1 Bft)
03.09.2016 17:32 20,1 C 20,1 C 78 % 1017,7 hPa 0,0 mm 1,3 km/h (1 Bft) NO 55 0 min 0,000 mm 1,0 UV-I 148 W/m 16,1 C 3,2 km/h (1 Bft)
03.09.2016 17:33 20,1 C 20,1 C 80 % 1017,7 hPa 0,0 mm 0,3 km/h (0 Bft) NO 55 0 min 0,000 mm 1,1 UV-I 151 W/m 16,5 C 1,6 km/h (1 Bft)
03.09.2016 17:34 20,1 C 20,1 C 77 % 1017,7 hPa 0,0 mm 1,5 km/h (1 Bft) NO 55 0 min 0,000 mm 1,1 UV-I 156 W/m 15,9 C 3,2 km/h (1 Bft)
03.09.2016 17:35 20,2 C 20,2 C 75 % 1017,7 hPa 0,0 mm 1,6 km/h (1 Bft) NO 55 0 min 0,000 mm 1,1 UV-I 160 W/m 15,6 C 3,2 km/h (1 Bft)
03.09.2016 17:36 20,2 C 20,2 C 76 % 1017,6 hPa 0,0 mm 0,1 km/h (0 Bft) NO 55 0 min 0,000 mm 1,1 UV-I 155 W/m 15,8 C 1,6 km/h (1 Bft)
03.09.2016 17:37 20,3 C 20,3 C 79 % 1017,6 hPa 0,0 mm 0,9 km/h (0 Bft) NO 55 0 min 0,000 mm 1,1 UV-I 151 W/m 16,5 C 1,6 km/h (1 Bft)
03.09.2016 17:38 20,3 C 20,3 C 75 % 1017,7 hPa 0,0 mm 0,8 km/h (0 Bft) NO 55 0 min 0,000 mm 1,1 UV-I 146 W/m 15,7 C 3,2 km/h (1 Bft)
03.09.2016 17:39 20,2 C 20,3 C 79 % 1017,7 hPa 0,0 mm 1,7 km/h (1 Bft) NO 55 0 min 0,000 mm 1,1 UV-I 134 W/m 16,4 C 3,2 km/h (1 Bft)
03.09.2016 17:40 20,2 C 20,2 C 79 % 1017,6 hPa 0,0 mm 1,7 km/h (1 Bft) NO 56 0 min 0,000 mm 1,1 UV-I 130 W/m 16,4 C 3,2 km/h (1 Bft)
03.09.2016 17:41 20,1 C 20,2 C 78 % 1017,7 hPa 0,0 mm 2,4 km/h (1 Bft) NO 56 0 min 0,000 mm 1,0 UV-I 130 W/m 16,1 C 3,2 km/h (1 Bft)
03.09.2016 17:42 20,0 C 20,1 C 79 % 1017,7 hPa 0,0 mm 1,5 km/h (1 Bft) NO 56 0 min 0,000 mm 1,0 UV-I 127 W/m 16,2 C 3,2 km/h (1 Bft)
03.09.2016 17:43 19,9 C 20,0 C 76 % 1017,6 hPa 0,0 mm 2,5 km/h (1 Bft) NO 56 0 min 0,000 mm 1,0 UV-I 121 W/m 15,5 C 3,2 km/h (1 Bft)
03.09.2016 17:44 19,9 C 20,0 C 75 % 1017,6 hPa 0,0 mm 1,0 km/h (0 Bft) NO 56 0 min 0,000 mm 1,0 UV-I 116 W/m 15,3 C 3,2 km/h (1 Bft)
03.09.2016 17:45 20,1 C 20,1 C 75 % 1017,6 hPa 0,0 mm 0,2 km/h (0 Bft) NO 56 0 min 0,000 mm 1,0 UV-I 111 W/m 15,5 C 1,6 km/h (1 Bft)
03.09.2016 17:46 20,1 C 20,1 C 81 % 1017,6 hPa 0,0 mm 0,6 km/h (0 Bft) NO 56 0 min 0,000 mm 0,9 UV-I 107 W/m 16,7 C 1,6 km/h (1 Bft)
03.09.2016 17:47 20,1 C 20,1 C 79 % 1017,6 hPa 0,0 mm 0,5 km/h (0 Bft) NO 56 0 min 0,000 mm 0,9 UV-I 104 W/m 16,3 C 1,6 km/h (1 Bft)
03.09.2016 17:48 20,1 C 20,1 C 80 % 1017,6 hPa 0,0 mm 0,0 km/h (0 Bft) NO 56 0 min 0,000 mm 0,9 UV-I 98 W/m 16,5 C 0,0 km/h (0 Bft)
03.09.2016 17:49 20,0 C 20,1 C 79 % 1017,6 hPa 0,0 mm 0,1 km/h (0 Bft) NO 56 0 min 0,000 mm 0,9 UV-I 95 W/m 16,2 C 1,6 km/h (1 Bft)
03.09.2016 17:50 20,0 C 20,0 C 79 % 1017,6 hPa 0,0 mm 0,1 km/h (0 Bft) NO 56 0 min 0,000 mm 0,9 UV-I 91 W/m 16,2 C 1,6 km/h (1 Bft)
03.09.2016 17:51 19,9 C 20,0 C 79 % 1017,6 hPa 0,0 mm 0,3 km/h (0 Bft) NO 56 0 min 0,000 mm 0,9 UV-I 86 W/m 16,1 C 1,6 km/h (1 Bft)
03.09.2016 17:52 19,9 C 19,9 C 79 % 1017,5 hPa 0,0 mm 0,3 km/h (0 Bft) NO 56 0 min 0,000 mm 0,8 UV-I 86 W/m 16,1 C 1,6 km/h (1 Bft)
03.09.2016 17:53 19,8 C 19,9 C 78 % 1017,5 hPa 0,0 mm 0,3 km/h (0 Bft) NO 56 0 min 0,000 mm 0,8 UV-I 86 W/m 15,8 C 1,6 km/h (1 Bft)
03.09.2016 17:54 19,8 C 19,8 C 80 % 1017,6 hPa 0,0 mm 0,4 km/h (0 Bft) NO 56 0 min 0,000 mm 0,8 UV-I 86 W/m 16,2 C 1,6 km/h (1 Bft)
03.09.2016 17:55 19,8 C 19,8 C 80 % 1017,6 hPa 0,0 mm 1,0 km/h (0 Bft) NO 56 0 min 0,000 mm 0,8 UV-I 88 W/m 16,2 C 1,6 km/h (1 Bft)
03.09.2016 17:56 19,7 C 19,8 C 80 % 1017,5 hPa 0,0 mm 1,6 km/h (1 Bft) NO 56 0 min 0,000 mm 0,8 UV-I 90 W/m 16,1 C 3,2 km/h (1 Bft)
03.09.2016 17:57 19,7 C 19,7 C 79 % 1017,6 hPa 0,0 mm 1,1 km/h (1 Bft) NO 56 0 min 0,000 mm 0,8 UV-I 91 W/m 16,0 C 1,6 km/h (1 Bft)
03.09.2016 17:58 19,7 C 19,7 C 80 % 1017,5 hPa 0,0 mm 0,7 km/h (0 Bft) NO 56 0 min 0,000 mm 0,8 UV-I 91 W/m 16,1 C 1,6 km/h (1 Bft)
03.09.2016 17:59 19,6 C 19,7 C 81 % 1017,6 hPa 0,0 mm 1,1 km/h (1 Bft) NO 56 0 min 0,000 mm 0,8 UV-I 91 W/m 16,2 C 3,2 km/h (1 Bft)
03.09.2016 18:00 19,6 C 19,6 C 80 % 1017,5 hPa 0,0 mm 1,6 km/h (1 Bft) NO 56 0 min 0,000 mm 0,8 UV-I 93 W/m 16,1 C 1,6 km/h (1 Bft)
03.09.2016 18:01 19,5 C 19,6 C 82 % 1017,6 hPa 0,0 mm 1,5 km/h (1 Bft) NO 56 0 min 0,076 mm 0,8 UV-I 93 W/m 16,3 C 3,2 km/h (1 Bft)
03.09.2016 18:02 19,5 C 19,5 C 80 % 1017,6 hPa 0,0 mm 2,0 km/h (1 Bft) NO 56 0 min 0,000 mm 0,8 UV-I 93 W/m 16,0 C 3,2 km/h (1 Bft)
03.09.2016 18:03 19,5 C 19,5 C 79 % 1017,6 hPa 0,0 mm 2,1 km/h (1 Bft) NO 56 0 min 0,000 mm 0,8 UV-I 95 W/m 15,8 C 3,2 km/h (1 Bft)
03.09.2016 18:04 19,5 C 19,5 C 79 % 1017,5 hPa 0,0 mm 1,9 km/h (1 Bft) NO 56 0 min 0,000 mm 0,8 UV-I 95 W/m 15,8 C 3,2 km/h (1 Bft)
03.09.2016 18:05 19,4 C 19,5 C 80 % 1017,5 hPa 0,0 mm 1,7 km/h (1 Bft) NO 56 0 min 0,000 mm 0,7 UV-I 95 W/m 15,9 C 3,2 km/h (1 Bft)
03.09.2016 18:06 19,4 C 19,4 C 80 % 1017,5 hPa 0,0 mm 2,0 km/h (1 Bft) NO 56 0 min 0,000 mm 0,7 UV-I 97 W/m 15,9 C 3,2 km/h (1 Bft)
03.09.2016 18:07 19,4 C 19,4 C 80 % 1017,5 hPa 0,0 mm 1,3 km/h (1 Bft) NO 56 0 min 0,000 mm 0,7 UV-I 97 W/m 15,9 C 1,6 km/h (1 Bft)
03.09.2016 18:08 19,4 C 19,4 C 81 % 1017,5 hPa 0,0 mm 0,5 km/h (0 Bft) NO 56 0 min 0,000 mm 0,7 UV-I 97 W/m 16,1 C 1,6 km/h (1 Bft)
03.09.2016 18:09 19,4 C 19,4 C 81 % 1017,5 hPa 0,0 mm 0,2 km/h (0 Bft) NO 56 0 min 0,000 mm 0,7 UV-I 95 W/m 16,1 C 1,6 km/h (1 Bft)
03.09.2016 18:10 19,4 C 19,4 C 81 % 1017,5 hPa 0,0 mm 0,3 km/h (0 Bft) NO 56 0 min 0,000 mm 0,7 UV-I 95 W/m 16,1 C 1,6 km/h (1 Bft)
03.09.2016 18:11 19,4 C 19,5 C 82 % 1017,4 hPa 0,0 mm 0,1 km/h (0 Bft) NO 56 0 min 0,000 mm 0,7 UV-I 93 W/m 16,2 C 1,6 km/h (1 Bft)
03.09.2016 18:12 19,5 C 19,5 C 82 % 1017,4 hPa 0,0 mm 0,7 km/h (0 Bft) NO 56 0 min 0,000 mm 0,7 UV-I 91 W/m 16,3 C 1,6 km/h (1 Bft)
03.09.2016 18:13 19,4 C 19,5 C 81 % 1017,4 hPa 0,0 mm 0,9 km/h (0 Bft) NO 56 0 min 0,000 mm 0,7 UV-I 91 W/m 16,1 C 1,6 km/h (1 Bft)
03.09.2016 18:14 19,5 C 19,5 C 80 % 1017,4 hPa 0,0 mm 0,0 km/h (0 Bft) NO 56 0 min 0,000 mm 0,7 UV-I 86 W/m 16,0 C 0,0 km/h (0 Bft)
03.09.2016 18:15 19,5 C 19,5 C 80 % 1017,4 hPa 0,0 mm 0,1 km/h (0 Bft) NO 56 0 min 0,000 mm 0,6 UV-I 84 W/m 16,0 C 1,6 km/h (1 Bft)
03.09.2016 18:16 19,5 C 19,5 C 80 % 1017,4 hPa 0,0 mm 0,1 km/h (0 Bft) NO 56 0 min 0,000 mm 0,6 UV-I 83 W/m 16,0 C 1,6 km/h (1 Bft)
03.09.2016 18:17 19,5 C 19,6 C 80 % 1017,4 hPa 0,0 mm 0,3 km/h (0 Bft) NO 56 0 min 0,000 mm 0,6 UV-I 81 W/m 16,0 C 1,6 km/h (1 Bft)
03.09.2016 18:18 19,6 C 19,6 C 82 % 1017,4 hPa 0,0 mm 0,1 km/h (0 Bft) NO 56 0 min 0,000 mm 0,6 UV-I 77 W/m 16,4 C 1,6 km/h (1 Bft)
03.09.2016 18:19 19,5 C 19,6 C 82 % 1017,4 hPa 0,0 mm 0,0 km/h (0 Bft) NO 56 0 min 0,000 mm 0,6 UV-I 76 W/m 16,3 C 0,0 km/h (0 Bft)
03.09.2016 18:20 19,5 C 19,6 C 82 % 1017,4 hPa 0,0 mm 0,0 km/h (0 Bft) NO 56 0 min 0,000 mm 0,6 UV-I 72 W/m 16,3 C 0,0 km/h (0 Bft)
03.09.2016 18:21 19,5 C 19,5 C 82 % 1017,4 hPa 0,0 mm 0,0 km/h (0 Bft) NO 56 0 min 0,000 mm 0,5 UV-I 69 W/m 16,3 C 0,0 km/h (0 Bft)
03.09.2016 18:22 19,5 C 19,6 C 82 % 1017,4 hPa 0,0 mm 0,0 km/h (0 Bft) NO 56 0 min 0,000 mm 0,5 UV-I 67 W/m 16,3 C 0,0 km/h (0 Bft)
03.09.2016 18:23 19,5 C 19,6 C 83 % 1017,4 hPa 0,0 mm 0,0 km/h (0 Bft) NO 56 0 min 0,000 mm 0,5 UV-I 67 W/m 16,5 C 0,0 km/h (0 Bft)
03.09.2016 18:24 19,5 C 19,5 C 81 % 1017,4 hPa 0,0 mm 0,0 km/h (0 Bft) NO 56 0 min 0,000 mm 0,5 UV-I 65 W/m 16,1 C 0,0 km/h (0 Bft)
03.09.2016 18:25 19,4 C 19,5 C 81 % 1017,4 hPa 0,0 mm 0,0 km/h (0 Bft) NO 56 0 min 0,000 mm 0,5 UV-I 63 W/m 16,1 C 0,0 km/h (0 Bft)
03.09.2016 18:26 19,4 C 19,5 C 81 % 1017,4 hPa 0,0 mm 0,0 km/h (0 Bft) NO 56 0 min 0,000 mm 0,5 UV-I 62 W/m 16,1 C 0,0 km/h (0 Bft)
03.09.2016 18:27 19,4 C 19,4 C 81 % 1017,4 hPa 0,0 mm 0,9 km/h (0 Bft) NO 56 0 min 0,000 mm 0,5 UV-I 62 W/m 16,1 C 1,6 km/h (1 Bft)
03.09.2016 18:28 19,4 C 19,4 C 81 % 1017,3 hPa 0,0 mm 1,4 km/h (1 Bft) NO 56 0 min 0,000 mm 0,5 UV-I 60 W/m 16,1 C 1,6 km/h (1 Bft)
03.09.2016 18:29 19,3 C 19,4 C 82 % 1017,3 hPa 0,0 mm 1,7 km/h (1 Bft) NO 56 0 min 0,000 mm 0,5 UV-I 60 W/m 16,1 C 3,2 km/h (1 Bft)
03.09.2016 18:30 19,3 C 19,3 C 83 % 1017,3 hPa 0,0 mm 1,2 km/h (1 Bft) NO 56 0 min 0,000 mm 0,5 UV-I 60 W/m 16,3 C 1,6 km/h (1 Bft)
03.09.2016 18:31 19,3 C 19,3 C 83 % 1017,3 hPa 0,0 mm 1,6 km/h (1 Bft) NO 56 0 min 0,000 mm 0,5 UV-I 60 W/m 16,3 C 3,2 km/h (1 Bft)
03.09.2016 18:32 19,3 C 19,3 C 83 % 1017,3 hPa 0,0 mm 0,2 km/h (0 Bft) NO 56 0 min 0,000 mm 0,5 UV-I 60 W/m 16,3 C 1,6 km/h (1 Bft)
03.09.2016 18:33 19,3 C 19,3 C 84 % 1017,4 hPa 0,0 mm 0,0 km/h (0 Bft) NO 56 0 min 0,000 mm 0,0 UV-I 60 W/m 16,5 C 0,0 km/h (0 Bft)
03.09.2016 18:34 19,3 C 19,3 C 84 % 1017,3 hPa 0,0 mm 0,0 km/h (0 Bft) NO 56 0 min 0,000 mm 0,0 UV-I 58 W/m 16,5 C 0,0 km/h (0 Bft)
03.09.2016 18:35 19,3 C 19,3 C 85 % 1017,4 hPa 0,0 mm 0,0 km/h (0 Bft) NO 56 0 min 0,000 mm 0,0 UV-I 58 W/m 16,7 C 0,0 km/h (0 Bft)
03.09.2016 18:36 19,3 C 19,3 C 85 % 1017,3 hPa 0,0 mm 0,0 km/h (0 Bft) NO 56 0 min 0,000 mm 0,0 UV-I 56 W/m 16,7 C 0,0 km/h (0 Bft)
03.09.2016 18:37 19,3 C 19,3 C 85 % 1017,3 hPa 0,0 mm 0,1 km/h (0 Bft) NO 56 0 min 0,000 mm 0,0 UV-I 54 W/m 16,7 C 1,6 km/h (1 Bft)
03.09.2016 18:38 19,3 C 19,3 C 86 % 1017,3 hPa 0,0 mm 0,3 km/h (0 Bft) NO 56 0 min 0,000 mm 0,0 UV-I 51 W/m 16,9 C 1,6 km/h (1 Bft)
03.09.2016 18:39 19,3 C 19,3 C 86 % 1017,4 hPa 0,0 mm 0,1 km/h (0 Bft) NO 56 0 min 0,000 mm 0,0 UV-I 49 W/m 16,9 C 1,6 km/h (1 Bft)
03.09.2016 18:40 19,3 C 19,3 C 85 % 1017,3 hPa 0,0 mm 0,7 km/h (0 Bft) NO 56 0 min 0,000 mm 0,0 UV-I 49 W/m 16,7 C 1,6 km/h (1 Bft)
03.09.2016 18:41 19,2 C 19,3 C 86 % 1017,3 hPa 0,0 mm 0,0 km/h (0 Bft) NO 56 0 min 0,000 mm 0,0 UV-I 47 W/m 16,8 C 0,0 km/h (0 Bft)
03.09.2016 18:42 19,2 C 19,2 C 85 % 1017,3 hPa 0,0 mm 0,2 km/h (0 Bft) NO 56 0 min 0,000 mm 0,0 UV-I 44 W/m 16,6 C 1,6 km/h (1 Bft)
03.09.2016 18:43 19,2 C 19,2 C 85 % 1017,3 hPa 0,0 mm 0,0 km/h (0 Bft) NO 56 0 min 0,000 mm 0,0 UV-I 42 W/m 16,6 C 0,0 km/h (0 Bft)
03.09.2016 18:44 19,1 C 19,2 C 85 % 1017,3 hPa 0,0 mm 0,0 km/h (0 Bft) NO 56 0 min 0,000 mm 0,0 UV-I 39 W/m 16,5 C 0,0 km/h (0 Bft)
03.09.2016 18:45 19,1 C 19,1 C 86 % 1017,3 hPa 0,0 mm 0,0 km/h (0 Bft) NO 56 0 min 0,000 mm 0,0 UV-I 35 W/m 16,7 C 0,0 km/h (0 Bft)
03.09.2016 18:46 19,1 C 19,1 C 86 % 1017,3 hPa 0,0 mm 0,0 km/h (0 Bft) NO 56 0 min 0,000 mm 0,0 UV-I 33 W/m 16,7 C 0,0 km/h (0 Bft)
03.09.2016 18:47 19,1 C 19,1 C 87 % 1017,4 hPa 0,0 mm 0,0 km/h (0 Bft) NO 56 0 min 0,000 mm 0,0 UV-I 32 W/m 16,9 C 0,0 km/h (0 Bft)
03.09.2016 18:48 19,0 C 19,1 C 86 % 1017,3 hPa 0,0 mm 0,4 km/h (0 Bft) NO 56 0 min 0,000 mm 0,0 UV-I 32 W/m 16,6 C 1,6 km/h (1 Bft)
03.09.2016 18:49 18,9 C 19,0 C 86 % 1017,3 hPa 0,0 mm 1,1 km/h (1 Bft) NO 56 0 min 0,000 mm 0,0 UV-I 28 W/m 16,5 C 1,6 km/h (1 Bft)
03.09.2016 18:50 18,9 C 18,9 C 86 % 1017,3 hPa 0,0 mm 0,9 km/h (0 Bft) NO 56 0 min 0,000 mm 0,0 UV-I 26 W/m 16,5 C 1,6 km/h (1 Bft)
03.09.2016 18:51 18,8 C 18,9 C 86 % 1017,3 hPa 0,0 mm 0,5 km/h (0 Bft) NO 56 0 min 0,000 mm 0,0 UV-I 26 W/m 16,4 C 1,6 km/h (1 Bft)
03.09.2016 18:52 18,8 C 18,8 C 85 % 1017,3 hPa 0,0 mm 0,1 km/h (0 Bft) NO 56 0 min 0,000 mm 0,0 UV-I 25 W/m 16,2 C 1,6 km/h (1 Bft)
03.09.2016 18:53 18,8 C 18,8 C 86 % 1017,3 hPa 0,0 mm 0,7 km/h (0 Bft) NO 56 0 min 0,000 mm 0,0 UV-I 25 W/m 16,4 C 1,6 km/h (1 Bft)
03.09.2016 18:54 18,8 C 18,8 C 86 % 1017,3 hPa 0,0 mm 1,5 km/h (1 Bft) NO 56 0 min 0,000 mm 0,0 UV-I 23 W/m 16,4 C 1,6 km/h (1 Bft)
03.09.2016 18:55 18,7 C 18,8 C 86 % 1017,3 hPa 0,0 mm 0,4 km/h (0 Bft) NO 56 0 min 0,000 mm 0,0 UV-I 23 W/m 16,3 C 1,6 km/h (1 Bft)
03.09.2016 18:56 18,7 C 18,7 C 87 % 1017,3 hPa 0,0 mm 0,0 km/h (0 Bft) NO 56 0 min 0,000 mm 0,0 UV-I 21 W/m 16,5 C 0,0 km/h (0 Bft)
03.09.2016 18:57 18,6 C 18,7 C 87 % 1017,3 hPa 0,0 mm 0,0 km/h (0 Bft) NO 56 0 min 0,000 mm 0,0 UV-I 21 W/m 16,4 C 0,0 km/h (0 Bft)
03.09.2016 18:58 18,6 C 18,7 C 87 % 1017,3 hPa 0,0 mm 0,0 km/h (0 Bft) NO 56 0 min 0,000 mm 0,0 UV-I 21 W/m 16,4 C 0,0 km/h (0 Bft)
03.09.2016 18:59 18,6 C 18,6 C 86 % 1017,3 hPa 0,0 mm 0,1 km/h (0 Bft) NO 56 0 min 0,000 mm 0,0 UV-I 21 W/m 16,2 C 1,6 km/h (1 Bft)
03.09.2016 19:00 18,5 C 18,6 C 86 % 1017,3 hPa 0,0 mm 0,0 km/h (0 Bft) NO 56 0 min 0,026 mm 0,0 UV-I 19 W/m 16,1 C 0,0 km/h (0 Bft)
03.09.2016 19:01 18,5 C 18,6 C 87 % 1017,3 hPa 0,0 mm 0,0 km/h (0 Bft) NO 56 0 min 0,000 mm 0,0 UV-I 19 W/m 16,3 C 0,0 km/h (0 Bft)
03.09.2016 19:02 18,5 C 18,5 C 86 % 1017,3 hPa 0,0 mm 0,0 km/h (0 Bft) NO 56 0 min 0,000 mm 0,0 UV-I 19 W/m 16,1 C 0,0 km/h (0 Bft)
03.09.2016 19:03 18,5 C 18,5 C 86 % 1017,3 hPa 0,0 mm 0,0 km/h (0 Bft) NO 56 0 min 0,000 mm 0,0 UV-I 18 W/m 16,1 C 0,0 km/h (0 Bft)
03.09.2016 19:04 18,5 C 18,5 C 86 % 1017,3 hPa 0,0 mm 0,0 km/h (0 Bft) NO 56 0 min 0,000 mm 0,0 UV-I 18 W/m 16,1 C 0,0 km/h (0 Bft)
03.09.2016 19:05 18,5 C 18,5 C 86 % 1017,3 hPa 0,0 mm 0,0 km/h (0 Bft) NO 56 0 min 0,000 mm 0,0 UV-I 18 W/m 16,1 C 0,0 km/h (0 Bft)
03.09.2016 19:06 18,5 C 18,5 C 86 % 1017,3 hPa 0,0 mm 0,0 km/h (0 Bft) NO 56 0 min 0,000 mm 0,0 UV-I 18 W/m 16,1 C 0,0 km/h (0 Bft)
03.09.2016 19:07 18,4 C 18,5 C 87 % 1017,3 hPa 0,0 mm 0,0 km/h (0 Bft) NO 56 0 min 0,000 mm 0,0 UV-I 16 W/m 16,2 C 0,0 km/h (0 Bft)
03.09.2016 19:08 18,4 C 18,5 C 87 % 1017,3 hPa 0,0 mm 0,0 km/h (0 Bft) NO 56 0 min 0,000 mm 0,0 UV-I 16 W/m 16,2 C 0,0 km/h (0 Bft)
03.09.2016 19:09 18,4 C 18,4 C 87 % 1017,3 hPa 0,0 mm 0,0 km/h (0 Bft) NO 56 0 min 0,000 mm 0,0 UV-I 16 W/m 16,2 C 0,0 km/h (0 Bft)
03.09.2016 19:10 18,4 C 18,4 C 87 % 1017,3 hPa 0,0 mm 0,0 km/h (0 Bft) NO 56 0 min 0,000 mm 0,0 UV-I 16 W/m 16,2 C 0,0 km/h (0 Bft)
03.09.2016 19:11 18,4 C 18,4 C 87 % 1017,2 hPa 0,0 mm 0,0 km/h (0 Bft) NO 56 0 min 0,000 mm 0,0 UV-I 16 W/m 16,2 C 0,0 km/h (0 Bft)
03.09.2016 19:12 18,3 C 18,4 C 87 % 1017,2 hPa 0,0 mm 0,0 km/h (0 Bft) NO 56 0 min 0,000 mm 0,0 UV-I 16 W/m 16,1 C 0,0 km/h (0 Bft)
03.09.2016 19:13 18,3 C 18,3 C 87 % 1017,2 hPa 0,0 mm 0,0 km/h (0 Bft) NO 56 0 min 0,000 mm 0,0 UV-I 14 W/m 16,1 C 0,0 km/h (0 Bft)
03.09.2016 19:14 18,3 C 18,3 C 87 % 1017,3 hPa 0,0 mm 0,0 km/h (0 Bft) NO 56 0 min 0,000 mm 0,0 UV-I 14 W/m 16,1 C 0,0 km/h (0 Bft)
03.09.2016 19:15 18,2 C 18,3 C 87 % 1017,3 hPa 0,0 mm 0,0 km/h (0 Bft) NO 56 0 min 0,000 mm 0,0 UV-I 14 W/m 16,0 C 0,0 km/h (0 Bft)
03.09.2016 19:16 18,2 C 18,2 C 87 % 1017,3 hPa 0,0 mm 0,0 km/h (0 Bft) NO 56 0 min 0,000 mm 0,0 UV-I 14 W/m 16,0 C 0,0 km/h (0 Bft)
03.09.2016 19:17 18,2 C 18,2 C 87 % 1017,3 hPa 0,0 mm 0,0 km/h (0 Bft) NO 56 0 min 0,000 mm 0,0 UV-I 14 W/m 16,0 C 0,0 km/h (0 Bft)
03.09.2016 19:18 18,2 C 18,2 C 87 % 1017,3 hPa 0,0 mm 0,0 km/h (0 Bft) NO 56 0 min 0,000 mm 0,0 UV-I 14 W/m 16,0 C 0,0 km/h (0 Bft)
03.09.2016 19:19 18,2 C 18,2 C 87 % 1017,2 hPa 0,0 mm 0,0 km/h (0 Bft) NO 56 0 min 0,000 mm 0,0 UV-I 14 W/m 16,0 C 0,0 km/h (0 Bft)
03.09.2016 19:20 18,1 C 18,2 C 88 % 1017,2 hPa 0,0 mm 1,3 km/h (1 Bft) NO 56 0 min 0,000 mm 0,0 UV-I 12 W/m 16,1 C 3,2 km/h (1 Bft)
03.09.2016 19:21 18,1 C 18,1 C 88 % 1017,2 hPa 0,0 mm 1,3 km/h (1 Bft) NO 56 0 min 0,000 mm 0,0 UV-I 12 W/m 16,1 C 1,6 km/h (1 Bft)
03.09.2016 19:22 18,1 C 18,1 C 88 % 1017,3 hPa 0,0 mm 1,2 km/h (1 Bft) NO 56 0 min 0,000 mm 0,0 UV-I 12 W/m 16,1 C 3,2 km/h (1 Bft)
03.09.2016 19:23 18,1 C 18,1 C 88 % 1017,3 hPa 0,0 mm 0,2 km/h (0 Bft) NO 56 0 min 0,000 mm 0,0 UV-I 12 W/m 16,1 C 1,6 km/h (1 Bft)
03.09.2016 19:24 18,1 C 18,1 C 88 % 1017,3 hPa 0,0 mm 0,1 km/h (0 Bft) NO 56 0 min 0,000 mm 0,0 UV-I 12 W/m 16,1 C 1,6 km/h (1 Bft)
03.09.2016 19:25 18,1 C 18,1 C 88 % 1017,3 hPa 0,0 mm 0,7 km/h (0 Bft) NO 56 0 min 0,000 mm 0,0 UV-I 12 W/m 16,1 C 1,6 km/h (1 Bft)
03.09.2016 19:26 18,1 C 18,1 C 88 % 1017,3 hPa 0,0 mm 0,0 km/h (0 Bft) NO 56 0 min 0,000 mm 0,0 UV-I 11 W/m 16,1 C 0,0 km/h (0 Bft)
03.09.2016 19:27 18,1 C 18,1 C 88 % 1017,3 hPa 0,0 mm 0,7 km/h (0 Bft) NO 56 0 min 0,000 mm 0,0 UV-I 11 W/m 16,1 C 1,6 km/h (1 Bft)
03.09.2016 19:28 18,1 C 18,1 C 88 % 1017,2 hPa 0,0 mm 1,5 km/h (1 Bft) NO 56 0 min 0,000 mm 0,0 UV-I 11 W/m 16,1 C 1,6 km/h (1 Bft)
03.09.2016 19:29 18,1 C 18,1 C 88 % 1017,3 hPa 0,0 mm 1,3 km/h (1 Bft) NO 56 0 min 0,000 mm 0,0 UV-I 11 W/m 16,1 C 1,6 km/h (1 Bft)
03.09.2016 19:30 18,0 C 18,1 C 88 % 1017,3 hPa 0,0 mm 1,1 km/h (1 Bft) NO 56 0 min 0,000 mm 0,0 UV-I 9 W/m 16,0 C 1,6 km/h (1 Bft)
03.09.2016 19:31 18,0 C 18,0 C 88 % 1017,3 hPa 0,0 mm 0,2 km/h (0 Bft) NO 56 0 min 0,000 mm 0,0 UV-I 9 W/m 16,0 C 1,6 km/h (1 Bft)
03.09.2016 19:32 17,9 C 18,0 C 88 % 1017,4 hPa 0,0 mm 1,3 km/h (1 Bft) NO 56 0 min 0,000 mm 0,0 UV-I 9 W/m 15,9 C 3,2 km/h (1 Bft)
03.09.2016 19:33 17,9 C 17,9 C 88 % 1017,3 hPa 0,0 mm 0,5 km/h (0 Bft) NO 56 0 min 0,000 mm 0,0 UV-I 7 W/m 15,9 C 3,2 km/h (1 Bft)
03.09.2016 19:34 17,8 C 17,9 C 88 % 1017,3 hPa 0,0 mm 0,0 km/h (0 Bft) NO 56 0 min 0,000 mm 0,0 UV-I 7 W/m 15,8 C 0,0 km/h (0 Bft)
03.09.2016 19:35 17,8 C 17,9 C 88 % 1017,3 hPa 0,0 mm 0,0 km/h (0 Bft) NO 56 0 min 0,000 mm 0,0 UV-I 7 W/m 15,8 C 0,0 km/h (0 Bft)
03.09.2016 19:36 17,9 C 17,9 C 87 % 1017,4 hPa 0,0 mm 0,0 km/h (0 Bft) NO 56 0 min 0,000 mm 0,0 UV-I 5 W/m 15,7 C 0,0 km/h (0 Bft)
03.09.2016 19:37 17,9 C 17,9 C 88 % 1017,3 hPa 0,0 mm 0,0 km/h (0 Bft) NO 56 0 min 0,000 mm 0,0 UV-I 5 W/m 15,9 C 0,0 km/h (0 Bft)
03.09.2016 19:38 17,9 C 17,9 C 88 % 1017,3 hPa 0,0 mm 0,0 km/h (0 Bft) O-NO 57 0 min 0,000 mm 0,0 UV-I 5 W/m 15,9 C 0,0 km/h (0 Bft)
03.09.2016 19:39 17,9 C 17,9 C 87 % 1017,3 hPa 0,0 mm 0,0 km/h (0 Bft) O-NO 57 0 min 0,000 mm 0,0 UV-I 5 W/m 15,7 C 0,0 km/h (0 Bft)
03.09.2016 19:40 17,9 C 17,9 C 87 % 1017,3 hPa 0,0 mm 0,0 km/h (0 Bft) O-NO 57 0 min 0,000 mm 0,0 UV-I 5 W/m 15,7 C 0,0 km/h (0 Bft)
03.09.2016 19:41 17,9 C 17,9 C 87 % 1017,3 hPa 0,0 mm 0,0 km/h (0 Bft) O-NO 57 0 min 0,000 mm 0,0 UV-I 5 W/m 15,7 C 0,0 km/h (0 Bft)
03.09.2016 19:42 17,8 C 17,9 C 88 % 1017,3 hPa 0,0 mm 0,0 km/h (0 Bft) O-NO 57 0 min 0,000 mm 0,0 UV-I 5 W/m 15,8 C 0,0 km/h (0 Bft)
03.09.2016 19:43 17,8 C 17,8 C 88 % 1017,3 hPa 0,0 mm 0,0 km/h (0 Bft) O 84 0 min 0,000 mm 0,0 UV-I 0 W/m 15,8 C 0,0 km/h (0 Bft)
03.09.2016 19:44 17,8 C 17,8 C 87 % 1017,3 hPa 0,0 mm 0,0 km/h (0 Bft) O 84 0 min 0,000 mm 0,0 UV-I 0 W/m 15,6 C 0,0 km/h (0 Bft)
03.09.2016 19:45 17,9 C 17,9 C 87 % 1017,3 hPa 0,0 mm 0,0 km/h (0 Bft) O 84 0 min 0,000 mm 0,0 UV-I 0 W/m 15,7 C 0,0 km/h (0 Bft)
03.09.2016 19:46 17,9 C 17,9 C 87 % 1017,3 hPa 0,0 mm 0,0 km/h (0 Bft) O 84 0 min 0,000 mm 0,0 UV-I 0 W/m 15,7 C 0,0 km/h (0 Bft)
03.09.2016 19:47 17,8 C 17,9 C 88 % 1017,3 hPa 0,0 mm 0,0 km/h (0 Bft) O 84 0 min 0,000 mm 0,0 UV-I 0 W/m 15,8 C 0,0 km/h (0 Bft)
03.09.2016 19:48 17,8 C 17,8 C 88 % 1017,3 hPa 0,0 mm 0,0 km/h (0 Bft) O 84 0 min 0,000 mm 0,0 UV-I 0 W/m 15,8 C 0,0 km/h (0 Bft)
03.09.2016 19:49 17,8 C 17,8 C 88 % 1017,3 hPa 0,0 mm 0,0 km/h (0 Bft) O 84 0 min 0,000 mm 0,0 UV-I 0 W/m 15,8 C 0,0 km/h (0 Bft)
03.09.2016 19:50 17,7 C 17,8 C 88 % 1017,4 hPa 0,0 mm 0,0 km/h (0 Bft) O 84 0 min 0,000 mm 0,0 UV-I 0 W/m 15,7 C 0,0 km/h (0 Bft)
03.09.2016 19:51 17,7 C 17,7 C 88 % 1017,3 hPa 0,0 mm 0,0 km/h (0 Bft) O 84 0 min 0,000 mm 0,0 UV-I 0 W/m 15,7 C 0,0 km/h (0 Bft)
03.09.2016 19:52 17,7 C 17,7 C 88 % 1017,4 hPa 0,0 mm 0,0 km/h (0 Bft) O 84 0 min 0,000 mm 0,0 UV-I 0 W/m 15,7 C 0,0 km/h (0 Bft)
03.09.2016 19:53 17,7 C 17,7 C 88 % 1017,3 hPa 0,0 mm 0,0 km/h (0 Bft) O 84 0 min 0,000 mm 0,0 UV-I 0 W/m 15,7 C 0,0 km/h (0 Bft)
03.09.2016 19:54 17,7 C 17,7 C 88 % 1017,4 hPa 0,0 mm 0,0 km/h (0 Bft) O 84 0 min 0,000 mm 0,0 UV-I 7 W/m 15,7 C 0,0 km/h (0 Bft)
03.09.2016 19:55 17,7 C 17,7 C 88 % 1017,4 hPa 0,0 mm 0,0 km/h (0 Bft) O 84 0 min 0,000 mm 0,0 UV-I 7 W/m 15,7 C 0,0 km/h (0 Bft)
03.09.2016 19:56 17,7 C 17,7 C 88 % 1017,4 hPa 0,0 mm 0,0 km/h (0 Bft) O 84 0 min 0,000 mm 0,0 UV-I 7 W/m 15,7 C 0,0 km/h (0 Bft)
03.09.2016 19:57 17,7 C 17,7 C 88 % 1017,3 hPa 0,0 mm 0,0 km/h (0 Bft) O 84 0 min 0,000 mm 0,0 UV-I 5 W/m 15,7 C 0,0 km/h (0 Bft)
03.09.2016 19:58 17,7 C 17,7 C 88 % 1017,4 hPa 0,0 mm 0,0 km/h (0 Bft) O 84 0 min 0,000 mm 0,0 UV-I 0 W/m 15,7 C 0,0 km/h (0 Bft)
03.09.2016 19:59 17,7 C 17,7 C 88 % 1017,4 hPa 0,0 mm 0,0 km/h (0 Bft) O 84 0 min 0,000 mm 0,0 UV-I 0 W/m 15,7 C 0,0 km/h (0 Bft)
03.09.2016 20:00 17,7 C 17,7 C 88 % 1017,4 hPa 0,0 mm 0,0 km/h (0 Bft) O 84 0 min 0,000 mm 0,0 UV-I 0 W/m 15,7 C 0,0 km/h (0 Bft)
03.09.2016 20:01 17,7 C 17,7 C 88 % 1017,4 hPa 0,0 mm 0,0 km/h (0 Bft) O 84 0 min 0,000 mm 0,0 UV-I 0 W/m 15,7 C 0,0 km/h (0 Bft)
03.09.2016 20:02 17,7 C 17,7 C 88 % 1017,4 hPa 0,0 mm 0,0 km/h (0 Bft) O 84 0 min 0,000 mm 0,0 UV-I 0 W/m 15,7 C 0,0 km/h (0 Bft)
03.09.2016 20:03 17,7 C 17,7 C 88 % 1017,5 hPa 0,0 mm 0,0 km/h (0 Bft) O 84 0 min 0,000 mm 0,0 UV-I 0 W/m 15,7 C 0,0 km/h (0 Bft)
03.09.2016 20:04 17,6 C 17,7 C 88 % 1017,4 hPa 0,0 mm 0,0 km/h (0 Bft) O 84 0 min 0,000 mm 0,0 UV-I 0 W/m 15,6 C 0,0 km/h (0 Bft)
03.09.2016 20:05 17,6 C 17,6 C 88 % 1017,5 hPa 0,0 mm 0,0 km/h (0 Bft) O 84 0 min 0,000 mm 0,0 UV-I 0 W/m 15,6 C 0,0 km/h (0 Bft)
03.09.2016 20:06 17,6 C 17,6 C 88 % 1017,5 hPa 0,0 mm 0,0 km/h (0 Bft) O 84 0 min 0,000 mm 0,0 UV-I 0 W/m 15,6 C 0,0 km/h (0 Bft)
03.09.2016 20:07 17,6 C 17,6 C 88 % 1017,5 hPa 0,0 mm 0,0 km/h (0 Bft) O 84 0 min 0,000 mm 0,0 UV-I 0 W/m 15,6 C 0,0 km/h (0 Bft)
03.09.2016 20:08 17,6 C 17,6 C 88 % 1017,5 hPa 0,0 mm 0,5 km/h (0 Bft) O 84 0 min 0,000 mm 0,0 UV-I 0 W/m 15,6 C 3,2 km/h (1 Bft)
03.09.2016 20:09 17,6 C 17,6 C 88 % 1017,5 hPa 0,0 mm 2,6 km/h (1 Bft) O 84 0 min 0,000 mm 0,0 UV-I 0 W/m 15,6 C 3,2 km/h (1 Bft)
03.09.2016 20:10 17,6 C 17,6 C 88 % 1017,5 hPa 0,0 mm 3,0 km/h (1 Bft) O 84 0 min 0,000 mm 0,0 UV-I 0 W/m 15,6 C 4,8 km/h (1 Bft)
03.09.2016 20:11 17,6 C 17,6 C 88 % 1017,5 hPa 0,0 mm 2,9 km/h (1 Bft) O 84 0 min 0,000 mm 0,0 UV-I 0 W/m 15,6 C 4,8 km/h (1 Bft)
03.09.2016 20:12 17,6 C 17,6 C 88 % 1017,5 hPa 0,0 mm 2,2 km/h (1 Bft) O 84 0 min 0,000 mm 0,0 UV-I 0 W/m 15,6 C 3,2 km/h (1 Bft)
03.09.2016 20:13 17,7 C 17,7 C 88 % 1017,5 hPa 0,0 mm 1,9 km/h (1 Bft) O 84 0 min 0,000 mm 0,0 UV-I 0 W/m 15,7 C 3,2 km/h (1 Bft)
03.09.2016 20:14 17,7 C 17,7 C 87 % 1017,5 hPa 0,0 mm 2,4 km/h (1 Bft) O 84 0 min 0,000 mm 0,0 UV-I 0 W/m 15,5 C 3,2 km/h (1 Bft)
03.09.2016 20:15 17,6 C 17,7 C 87 % 1017,5 hPa 0,0 mm 2,3 km/h (1 Bft) O 84 0 min 0,000 mm 0,0 UV-I 0 W/m 15,4 C 3,2 km/h (1 Bft)
03.09.2016 20:16 17,6 C 17,6 C 87 % 1017,5 hPa 0,0 mm 2,0 km/h (1 Bft) O 84 0 min 0,000 mm 0,0 UV-I 0 W/m 15,4 C 3,2 km/h (1 Bft)
03.09.2016 20:17 17,6 C 17,6 C 86 % 1017,5 hPa 0,0 mm 2,3 km/h (1 Bft) O 84 0 min 0,000 mm 0,0 UV-I 0 W/m 15,2 C 3,2 km/h (1 Bft)
03.09.2016 20:18 17,6 C 17,6 C 86 % 1017,5 hPa 0,0 mm 2,0 km/h (1 Bft) O 84 0 min 0,000 mm 0,0 UV-I 0 W/m 15,2 C 3,2 km/h (1 Bft)
03.09.2016 20:19 17,6 C 17,6 C 86 % 1017,5 hPa 0,0 mm 1,9 km/h (1 Bft) O 84 0 min 0,000 mm 0,0 UV-I 0 W/m 15,2 C 3,2 km/h (1 Bft)
03.09.2016 20:20 17,6 C 17,6 C 86 % 1017,4 hPa 0,0 mm 1,5 km/h (1 Bft) O 84 0 min 0,000 mm 0,0 UV-I 0 W/m 15,2 C 3,2 km/h (1 Bft)
03.09.2016 20:21 17,6 C 17,7 C 87 % 1017,4 hPa 0,0 mm 1,0 km/h (0 Bft) O 84 0 min 0,000 mm 0,0 UV-I 0 W/m 15,4 C 1,6 km/h (1 Bft)
03.09.2016 20:22 17,6 C 17,6 C 87 % 1017,4 hPa 0,0 mm 0,7 km/h (0 Bft) O 84 0 min 0,000 mm 0,0 UV-I 0 W/m 15,4 C 1,6 km/h (1 Bft)
03.09.2016 20:23 17,6 C 17,6 C 87 % 1017,5 hPa 0,0 mm 0,7 km/h (0 Bft) O 84 0 min 0,000 mm 0,0 UV-I 0 W/m 15,4 C 1,6 km/h (1 Bft)
03.09.2016 20:24 17,6 C 17,6 C 88 % 1017,4 hPa 0,0 mm 0,2 km/h (0 Bft) O 84 0 min 0,000 mm 0,0 UV-I 0 W/m 15,6 C 1,6 km/h (1 Bft)
03.09.2016 20:25 17,6 C 17,6 C 88 % 1017,4 hPa 0,0 mm 0,0 km/h (0 Bft) O 84 0 min 0,000 mm 0,0 UV-I 0 W/m 15,6 C 0,0 km/h (0 Bft)
03.09.2016 20:26 17,5 C 17,6 C 88 % 1017,5 hPa 0,0 mm 0,7 km/h (0 Bft) O 84 0 min 0,000 mm 0,0 UV-I 0 W/m 15,5 C 1,6 km/h (1 Bft)
03.09.2016 20:27 17,4 C 17,5 C 88 % 1017,5 hPa 0,0 mm 0,7 km/h (0 Bft) O 84 0 min 0,000 mm 0,0 UV-I 0 W/m 15,4 C 1,6 km/h (1 Bft)
03.09.2016 20:28 17,4 C 17,4 C 88 % 1017,4 hPa 0,0 mm 1,1 km/h (1 Bft) O 84 0 min 0,000 mm 0,0 UV-I 0 W/m 15,4 C 1,6 km/h (1 Bft)
03.09.2016 20:29 17,4 C 17,4 C 88 % 1017,4 hPa 0,0 mm 0,1 km/h (0 Bft) O 84 0 min 0,000 mm 0,0 UV-I 0 W/m 15,4 C 1,6 km/h (1 Bft)
03.09.2016 20:30 17,4 C 17,4 C 88 % 1017,5 hPa 0,0 mm 0,2 km/h (0 Bft) O 84 0 min 0,000 mm 0,0 UV-I 0 W/m 15,4 C 1,6 km/h (1 Bft)
03.09.2016 20:31 17,4 C 17,4 C 88 % 1017,5 hPa 0,0 mm 0,0 km/h (0 Bft) O 84 0 min 0,000 mm 0,0 UV-I 0 W/m 15,4 C 0,0 km/h (0 Bft)
03.09.2016 20:32 17,3 C 17,4 C 89 % 1017,5 hPa 0,0 mm 0,0 km/h (0 Bft) O 84 0 min 0,000 mm 0,0 UV-I 0 W/m 15,5 C 0,0 km/h (0 Bft)
03.09.2016 20:33 17,3 C 17,3 C 89 % 1017,4 hPa 0,0 mm 0,0 km/h (0 Bft) O 84 0 min 0,000 mm 0,0 UV-I 0 W/m 15,5 C 0,0 km/h (0 Bft)
03.09.2016 20:34 17,3 C 17,3 C 89 % 1017,4 hPa 0,0 mm 0,0 km/h (0 Bft) O 84 0 min 0,000 mm 0,0 UV-I 0 W/m 15,5 C 0,0 km/h (0 Bft)
03.09.2016 20:35 17,3 C 17,3 C 89 % 1017,4 hPa 0,0 mm 0,1 km/h (0 Bft) O 84 0 min 0,000 mm 0,0 UV-I 0 W/m 15,5 C 1,6 km/h (1 Bft)
03.09.2016 20:36 17,3 C 17,3 C 89 % 1017,4 hPa 0,0 mm 0,2 km/h (0 Bft) O 84 0 min 0,000 mm 0,0 UV-I 0 W/m 15,5 C 1,6 km/h (1 Bft)
03.09.2016 20:37 17,3 C 17,3 C 89 % 1017,5 hPa 0,0 mm 0,6 km/h (0 Bft) O 84 0 min 0,000 mm 0,0 UV-I 0 W/m 15,5 C 1,6 km/h (1 Bft)
03.09.2016 20:38 17,3 C 17,3 C 89 % 1017,5 hPa 0,0 mm 0,2 km/h (0 Bft) O 84 0 min 0,000 mm 0,0 UV-I 0 W/m 15,5 C 1,6 km/h (1 Bft)
03.09.2016 20:39 17,3 C 17,3 C 89 % 1017,4 hPa 0,0 mm 0,0 km/h (0 Bft) O 84 0 min 0,000 mm 0,0 UV-I 0 W/m 15,5 C 0,0 km/h (0 Bft)
03.09.2016 20:40 17,2 C 17,3 C 88 % 1017,5 hPa 0,0 mm 0,0 km/h (0 Bft) O 84 0 min 0,000 mm 0,0 UV-I 0 W/m 15,2 C 0,0 km/h (0 Bft)
03.09.2016 20:41 17,1 C 17,2 C 88 % 1017,4 hPa 0,0 mm 0,0 km/h (0 Bft) O 84 0 min 0,000 mm 0,0 UV-I 0 W/m 15,1 C 0,0 km/h (0 Bft)
03.09.2016 20:42 17,1 C 17,1 C 89 % 1017,4 hPa 0,0 mm 0,8 km/h (0 Bft) O 84 0 min 0,000 mm 0,0 UV-I 0 W/m 15,3 C 1,6 km/h (1 Bft)
03.09.2016 20:43 17,0 C 17,1 C 89 % 1017,5 hPa 0,0 mm 0,2 km/h (0 Bft) O 84 0 min 0,000 mm 0,0 UV-I 0 W/m 15,2 C 1,6 km/h (1 Bft)
03.09.2016 20:44 16,9 C 17,0 C 89 % 1017,5 hPa 0,0 mm 0,8 km/h (0 Bft) O 84 0 min 0,000 mm 0,0 UV-I 0 W/m 15,1 C 1,6 km/h (1 Bft)
03.09.2016 20:45 16,8 C 16,9 C 89 % 1017,5 hPa 0,0 mm 0,0 km/h (0 Bft) O 84 0 min 0,000 mm 0,0 UV-I 0 W/m 15,0 C 0,0 km/h (0 Bft)
03.09.2016 20:46 16,8 C 16,8 C 89 % 1017,5 hPa 0,0 mm 0,0 km/h (0 Bft) O 84 0 min 0,000 mm 0,0 UV-I 0 W/m 15,0 C 0,0 km/h (0 Bft)
03.09.2016 20:47 16,7 C 16,8 C 89 % 1017,4 hPa 0,0 mm 0,0 km/h (0 Bft) O 84 0 min 0,000 mm 0,0 UV-I 0 W/m 14,9 C 0,0 km/h (0 Bft)
03.09.2016 20:48 16,7 C 16,7 C 89 % 1017,5 hPa 0,0 mm 0,0 km/h (0 Bft) O 84 0 min 0,000 mm 0,0 UV-I 0 W/m 14,9 C 0,0 km/h (0 Bft)
03.09.2016 20:49 16,6 C 16,7 C 89 % 1017,5 hPa 0,0 mm 0,1 km/h (0 Bft) O 84 0 min 0,000 mm 0,0 UV-I 0 W/m 14,8 C 1,6 km/h (1 Bft)
03.09.2016 20:50 16,6 C 16,6 C 90 % 1017,5 hPa 0,0 mm 0,1 km/h (0 Bft) O 84 0 min 0,000 mm 0,0 UV-I 0 W/m 15,0 C 1,6 km/h (1 Bft)
03.09.2016 20:51 16,5 C 16,6 C 89 % 1017,5 hPa 0,0 mm 0,0 km/h (0 Bft) O 84 0 min 0,000 mm 0,0 UV-I 0 W/m 14,7 C 0,0 km/h (0 Bft)
03.09.2016 20:52 16,4 C 16,5 C 90 % 1017,5 hPa 0,0 mm 0,1 km/h (0 Bft) O 84 0 min 0,000 mm 0,0 UV-I 0 W/m 14,8 C 1,6 km/h (1 Bft)
03.09.2016 20:53 16,4 C 16,4 C 90 % 1017,5 hPa 0,0 mm 0,0 km/h (0 Bft) O 84 0 min 0,000 mm 0,0 UV-I 0 W/m 14,8 C 0,0 km/h (0 Bft)
03.09.2016 20:54 16,4 C 16,4 C 90 % 1017,5 hPa 0,0 mm 0,0 km/h (0 Bft) O 84 0 min 0,000 mm 0,0 UV-I 0 W/m 14,8 C 0,0 km/h (0 Bft)
03.09.2016 20:55 16,4 C 16,4 C 90 % 1017,5 hPa 0,0 mm 0,0 km/h (0 Bft) O 84 0 min 0,000 mm 0,0 UV-I 0 W/m 14,8 C 0,0 km/h (0 Bft)
03.09.2016 20:56 16,3 C 16,4 C 90 % 1017,5 hPa 0,0 mm 0,0 km/h (0 Bft) O 84 0 min 0,000 mm 0,0 UV-I 0 W/m 14,7 C 0,0 km/h (0 Bft)
03.09.2016 20:57 16,3 C 16,4 C 90 % 1017,6 hPa 0,0 mm 0,0 km/h (0 Bft) O 84 0 min 0,000 mm 0,0 UV-I 0 W/m 14,7 C 0,0 km/h (0 Bft)
03.09.2016 20:58 16,3 C 16,4 C 90 % 1017,5 hPa 0,0 mm 0,0 km/h (0 Bft) O 84 0 min 0,000 mm 0,0 UV-I 0 W/m 14,7 C 0,0 km/h (0 Bft)
03.09.2016 20:59 16,3 C 16,3 C 90 % 1017,5 hPa 0,0 mm 0,0 km/h (0 Bft) O 84 0 min 0,000 mm 0,0 UV-I 0 W/m 14,7 C 0,0 km/h (0 Bft)
03.09.2016 21:00 16,3 C 16,3 C 90 % 1017,5 hPa 0,0 mm 0,0 km/h (0 Bft) O 84 0 min 0,000 mm 0,0 UV-I 0 W/m 14,7 C 0,0 km/h (0 Bft)
03.09.2016 21:01 16,3 C 16,3 C 90 % 1017,5 hPa 0,0 mm 0,0 km/h (0 Bft) O 84 0 min 0,000 mm 0,0 UV-I 0 W/m 14,7 C 0,0 km/h (0 Bft)
03.09.2016 21:02 16,3 C 16,3 C 90 % 1017,5 hPa 0,0 mm 0,0 km/h (0 Bft) O 84 0 min 0,000 mm 0,0 UV-I 0 W/m 14,7 C 0,0 km/h (0 Bft)
03.09.2016 21:03 16,3 C 16,3 C 90 % 1017,6 hPa 0,0 mm 0,0 km/h (0 Bft) O 84 0 min 0,000 mm 0,0 UV-I 0 W/m 14,7 C 0,0 km/h (0 Bft)
03.09.2016 21:04 16,3 C 16,3 C 90 % 1017,5 hPa 0,0 mm 0,0 km/h (0 Bft) O 84 0 min 0,000 mm 0,0 UV-I 0 W/m 14,7 C 0,0 km/h (0 Bft)
03.09.2016 21:05 16,3 C 16,3 C 90 % 1017,5 hPa 0,0 mm 0,0 km/h (0 Bft) O 84 0 min 0,000 mm 0,0 UV-I 0 W/m 14,7 C 0,0 km/h (0 Bft)
03.09.2016 21:06 16,3 C 16,3 C 90 % 1017,5 hPa 0,0 mm 0,0 km/h (0 Bft) O 84 0 min 0,000 mm 0,0 UV-I 0 W/m 14,7 C 0,0 km/h (0 Bft)
03.09.2016 21:07 16,3 C 16,3 C 90 % 1017,6 hPa 0,0 mm 0,0 km/h (0 Bft) O 84 0 min 0,000 mm 0,0 UV-I 0 W/m 14,7 C 0,0 km/h (0 Bft)
03.09.2016 21:08 16,2 C 16,3 C 90 % 1017,6 hPa 0,0 mm 0,0 km/h (0 Bft) O 84 0 min 0,000 mm 0,0 UV-I 0 W/m 14,6 C 0,0 km/h (0 Bft)
03.09.2016 21:09 16,2 C 16,2 C 90 % 1017,6 hPa 0,0 mm 0,0 km/h (0 Bft) O 84 0 min 0,000 mm 0,0 UV-I 0 W/m 14,6 C 0,0 km/h (0 Bft)
03.09.2016 21:10 16,2 C 16,2 C 90 % 1017,6 hPa 0,0 mm 0,0 km/h (0 Bft) O 84 0 min 0,000 mm 0,0 UV-I 0 W/m 14,6 C 0,0 km/h (0 Bft)
03.09.2016 21:11 16,3 C 16,3 C 90 % 1017,6 hPa 0,0 mm 0,0 km/h (0 Bft) O 84 0 min 0,000 mm 0,0 UV-I 0 W/m 14,7 C 0,0 km/h (0 Bft)
03.09.2016 21:12 16,3 C 16,3 C 90 % 1017,6 hPa 0,0 mm 0,0 km/h (0 Bft) O 84 0 min 0,000 mm 0,0 UV-I 0 W/m 14,7 C 0,0 km/h (0 Bft)
03.09.2016 21:13 16,3 C 16,3 C 90 % 1017,6 hPa 0,0 mm 0,0 km/h (0 Bft) O 84 0 min 0,000 mm 0,0 UV-I 0 W/m 14,7 C 0,0 km/h (0 Bft)
03.09.2016 21:14 16,3 C 16,3 C 90 % 1017,6 hPa 0,0 mm 0,0 km/h (0 Bft) O 84 0 min 0,000 mm 0,0 UV-I 0 W/m 14,7 C 0,0 km/h (0 Bft)
03.09.2016 21:15 16,2 C 16,3 C 90 % 1017,6 hPa 0,0 mm 0,0 km/h (0 Bft) O 84 0 min 0,000 mm 0,0 UV-I 0 W/m 14,6 C 0,0 km/h (0 Bft)
03.09.2016 21:16 16,2 C 16,2 C 90 % 1017,6 hPa 0,0 mm 0,0 km/h (0 Bft) O 84 0 min 0,000 mm 0,0 UV-I 0 W/m 14,6 C 0,0 km/h (0 Bft)
03.09.2016 21:17 16,2 C 16,2 C 90 % 1017,6 hPa 0,0 mm 0,0 km/h (0 Bft) O 84 0 min 0,000 mm 0,0 UV-I 0 W/m 14,6 C 0,0 km/h (0 Bft)
03.09.2016 21:18 16,2 C 16,2 C 90 % 1017,6 hPa 0,0 mm 0,0 km/h (0 Bft) O 84 0 min 0,000 mm 0,0 UV-I 0 W/m 14,6 C 0,0 km/h (0 Bft)
03.09.2016 21:19 16,2 C 16,2 C 90 % 1017,7 hPa 0,0 mm 0,0 km/h (0 Bft) O 84 0 min 0,000 mm 0,0 UV-I 0 W/m 14,6 C 0,0 km/h (0 Bft)
03.09.2016 21:20 16,3 C 16,3 C 90 % 1017,7 hPa 0,0 mm 0,0 km/h (0 Bft) O 84 0 min 0,000 mm 0,0 UV-I 0 W/m 14,7 C 0,0 km/h (0 Bft)
03.09.2016 21:21 16,3 C 16,3 C 90 % 1017,7 hPa 0,0 mm 0,0 km/h (0 Bft) O 84 0 min 0,000 mm 0,0 UV-I 0 W/m 14,7 C 0,0 km/h (0 Bft)
03.09.2016 21:22 16,3 C 16,3 C 90 % 1017,7 hPa 0,0 mm 0,0 km/h (0 Bft) O 84 0 min 0,000 mm 0,0 UV-I 0 W/m 14,7 C 0,0 km/h (0 Bft)
03.09.2016 21:23 16,3 C 16,3 C 90 % 1017,7 hPa 0,0 mm 0,0 km/h (0 Bft) O 84 0 min 0,000 mm 0,0 UV-I 0 W/m 14,7 C 0,0 km/h (0 Bft)
03.09.2016 21:24 16,3 C 16,3 C 90 % 1017,7 hPa 0,0 mm 0,0 km/h (0 Bft) O 84 0 min 0,000 mm 0,0 UV-I 0 W/m 14,7 C 0,0 km/h (0 Bft)
03.09.2016 21:25 16,3 C 16,3 C 90 % 1017,7 hPa 0,0 mm 0,0 km/h (0 Bft) O 84 0 min 0,000 mm 0,0 UV-I 0 W/m 14,7 C 0,0 km/h (0 Bft)
03.09.2016 21:26 16,3 C 16,3 C 90 % 1017,7 hPa 0,0 mm 0,0 km/h (0 Bft) O 84 0 min 0,000 mm 0,0 UV-I 0 W/m 14,7 C 0,0 km/h (0 Bft)
03.09.2016 21:27 16,3 C 16,3 C 90 % 1017,7 hPa 0,0 mm 0,0 km/h (0 Bft) O 84 0 min 0,000 mm 0,0 UV-I 0 W/m 14,7 C 0,0 km/h (0 Bft)
03.09.2016 21:28 16,3 C 16,3 C 90 % 1017,7 hPa 0,0 mm 0,0 km/h (0 Bft) O 84 0 min 0,000 mm 0,0 UV-I 0 W/m 14,7 C 0,0 km/h (0 Bft)
03.09.2016 21:29 16,4 C 16,4 C 90 % 1017,7 hPa 0,0 mm 0,0 km/h (0 Bft) O 84 0 min 0,000 mm 0,0 UV-I 0 W/m 14,8 C 0,0 km/h (0 Bft)
03.09.2016 21:30 16,4 C 16,4 C 90 % 1017,7 hPa 0,0 mm 0,0 km/h (0 Bft) O 84 0 min 0,000 mm 0,0 UV-I 0 W/m 14,8 C 0,0 km/h (0 Bft)
03.09.2016 21:31 16,4 C 16,4 C 89 % 1017,7 hPa 0,0 mm 0,0 km/h (0 Bft) O 84 0 min 0,000 mm 0,0 UV-I 0 W/m 14,6 C 0,0 km/h (0 Bft)
03.09.2016 21:32 16,4 C 16,4 C 89 % 1017,7 hPa 0,0 mm 0,0 km/h (0 Bft) O 84 0 min 0,000 mm 0,0 UV-I 0 W/m 14,6 C 0,0 km/h (0 Bft)
03.09.2016 21:33 16,4 C 16,4 C 89 % 1017,7 hPa 0,0 mm 0,0 km/h (0 Bft) O 84 0 min 0,000 mm 0,0 UV-I 0 W/m 14,6 C 0,0 km/h (0 Bft)
03.09.2016 21:34 16,4 C 16,5 C 89 % 1017,7 hPa 0,0 mm 0,0 km/h (0 Bft) O 84 0 min 0,000 mm 0,0 UV-I 0 W/m 14,6 C 0,0 km/h (0 Bft)
03.09.2016 21:35 16,4 C 16,4 C 89 % 1017,6 hPa 0,0 mm 0,0 km/h (0 Bft) O 84 0 min 0,000 mm 0,0 UV-I 0 W/m 14,6 C 0,0 km/h (0 Bft)
03.09.2016 21:36 16,3 C 16,4 C 89 % 1017,6 hPa 0,0 mm 0,0 km/h (0 Bft) O 84 0 min 0,000 mm 0,0 UV-I 0 W/m 14,5 C 0,0 km/h (0 Bft)
03.09.2016 21:37 16,3 C 16,3 C 89 % 1017,7 hPa 0,0 mm 0,0 km/h (0 Bft) O 84 0 min 0,000 mm 0,0 UV-I 0 W/m 14,5 C 0,0 km/h (0 Bft)
03.09.2016 21:38 16,3 C 16,3 C 90 % 1017,7 hPa 0,0 mm 0,0 km/h (0 Bft) O 84 0 min 0,000 mm 0,0 UV-I 0 W/m 14,7 C 0,0 km/h (0 Bft)
03.09.2016 21:39 16,3 C 16,3 C 89 % 1017,7 hPa 0,0 mm 0,0 km/h (0 Bft) O 84 0 min 0,000 mm 0,0 UV-I 0 W/m 14,5 C 0,0 km/h (0 Bft)
03.09.2016 21:40 16,3 C 16,3 C 89 % 1017,7 hPa 0,0 mm 0,0 km/h (0 Bft) O 84 0 min 0,000 mm 0,0 UV-I 0 W/m 14,5 C 0,0 km/h (0 Bft)
03.09.2016 21:41 16,3 C 16,3 C 89 % 1017,7 hPa 0,0 mm 0,0 km/h (0 Bft) O 84 0 min 0,000 mm 0,0 UV-I 0 W/m 14,5 C 0,0 km/h (0 Bft)
03.09.2016 21:42 16,2 C 16,3 C 89 % 1017,7 hPa 0,0 mm 0,0 km/h (0 Bft) O 84 0 min 0,000 mm 0,0 UV-I 0 W/m 14,4 C 0,0 km/h (0 Bft)
03.09.2016 21:43 16,2 C 16,2 C 89 % 1017,7 hPa 0,0 mm 0,0 km/h (0 Bft) O 84 0 min 0,000 mm 0,0 UV-I 0 W/m 14,4 C 0,0 km/h (0 Bft)
03.09.2016 21:44 16,2 C 16,2 C 89 % 1017,7 hPa 0,0 mm 0,0 km/h (0 Bft) O 84 0 min 0,000 mm 0,0 UV-I 0 W/m 14,4 C 0,0 km/h (0 Bft)
03.09.2016 21:45 16,2 C 16,2 C 89 % 1017,7 hPa 0,0 mm 0,0 km/h (0 Bft) O 84 0 min 0,000 mm 0,0 UV-I 0 W/m 14,4 C 0,0 km/h (0 Bft)
03.09.2016 21:46 16,2 C 16,2 C 89 % 1017,7 hPa 0,0 mm 0,0 km/h (0 Bft) O 84 0 min 0,000 mm 0,0 UV-I 0 W/m 14,4 C 0,0 km/h (0 Bft)
03.09.2016 21:47 16,2 C 16,2 C 90 % 1017,7 hPa 0,0 mm 0,0 km/h (0 Bft) O 84 0 min 0,000 mm 0,0 UV-I 0 W/m 14,6 C 0,0 km/h (0 Bft)
03.09.2016 21:48 16,2 C 16,2 C 89 % 1017,8 hPa 0,0 mm 0,0 km/h (0 Bft) O 84 0 min 0,000 mm 0,0 UV-I 0 W/m 14,4 C 0,0 km/h (0 Bft)
03.09.2016 21:49 16,2 C 16,2 C 89 % 1017,7 hPa 0,0 mm 0,5 km/h (0 Bft) O 84 0 min 0,000 mm 0,0 UV-I 0 W/m 14,4 C 1,6 km/h (1 Bft)
03.09.2016 21:50 16,2 C 16,2 C 89 % 1017,7 hPa 0,0 mm 0,1 km/h (0 Bft) O 84 0 min 0,000 mm 0,0 UV-I 0 W/m 14,4 C 1,6 km/h (1 Bft)
03.09.2016 21:51 16,1 C 16,2 C 89 % 1017,7 hPa 0,0 mm 0,2 km/h (0 Bft) O 84 0 min 0,000 mm 0,0 UV-I 0 W/m 14,3 C 1,6 km/h (1 Bft)
03.09.2016 21:52 16,1 C 16,1 C 89 % 1017,7 hPa 0,0 mm 0,0 km/h (0 Bft) O 84 0 min 0,000 mm 0,0 UV-I 0 W/m 14,3 C 0,0 km/h (0 Bft)
03.09.2016 21:53 16,0 C 16,1 C 89 % 1017,7 hPa 0,0 mm 0,0 km/h (0 Bft) O 84 0 min 0,000 mm 0,0 UV-I 0 W/m 14,2 C 0,0 km/h (0 Bft)
03.09.2016 21:54 16,0 C 16,0 C 89 % 1017,7 hPa 0,0 mm 0,0 km/h (0 Bft) O 84 0 min 0,000 mm 0,0 UV-I 0 W/m 14,2 C 0,0 km/h (0 Bft)
03.09.2016 21:55 15,9 C 16,0 C 89 % 1017,7 hPa 0,0 mm 0,1 km/h (0 Bft) O 84 0 min 0,000 mm 0,0 UV-I 0 W/m 14,1 C 1,6 km/h (1 Bft)
03.09.2016 21:56 15,9 C 15,9 C 89 % 1017,7 hPa 0,0 mm 0,0 km/h (0 Bft) O 84 0 min 0,000 mm 0,0 UV-I 0 W/m 14,1 C 0,0 km/h (0 Bft)
03.09.2016 21:57 15,9 C 15,9 C 89 % 1017,7 hPa 0,0 mm 0,0 km/h (0 Bft) O 84 0 min 0,000 mm 0,0 UV-I 0 W/m 14,1 C 0,0 km/h (0 Bft)
03.09.2016 21:58 15,9 C 16,0 C 89 % 1017,7 hPa 0,0 mm 0,0 km/h (0 Bft) O 84 0 min 0,000 mm 0,0 UV-I 0 W/m 14,1 C 0,0 km/h (0 Bft)
03.09.2016 21:59 15,9 C 15,9 C 88 % 1017,6 hPa 0,0 mm 0,0 km/h (0 Bft) O 84 0 min 0,000 mm 0,0 UV-I 0 W/m 13,9 C 0,0 km/h (0 Bft)
03.09.2016 22:00 15,9 C 15,9 C 89 % 1017,6 hPa 0,0 mm 0,1 km/h (0 Bft) O 84 0 min 0,000 mm 0,0 UV-I 0 W/m 14,1 C 1,6 km/h (1 Bft)
03.09.2016 22:01 15,8 C 15,9 C 89 % 1017,6 hPa 0,0 mm 0,0 km/h (0 Bft) O 84 0 min 0,000 mm 0,0 UV-I 0 W/m 14,0 C 0,0 km/h (0 Bft)
03.09.2016 22:02 15,8 C 15,8 C 90 % 1017,6 hPa 0,0 mm 0,0 km/h (0 Bft) O 84 0 min 0,000 mm 0,0 UV-I 0 W/m 14,2 C 0,0 km/h (0 Bft)
03.09.2016 22:03 15,8 C 15,8 C 90 % 1017,6 hPa 0,0 mm 0,0 km/h (0 Bft) O 84 0 min 0,000 mm 0,0 UV-I 0 W/m 14,2 C 0,0 km/h (0 Bft)
03.09.2016 22:04 15,8 C 15,8 C 89 % 1017,6 hPa 0,0 mm 0,0 km/h (0 Bft) O 84 0 min 0,000 mm 0,0 UV-I 0 W/m 14,0 C 0,0 km/h (0 Bft)
03.09.2016 22:05 15,7 C 15,8 C 89 % 1017,6 hPa 0,0 mm 0,0 km/h (0 Bft) O 84 0 min 0,000 mm 0,0 UV-I 0 W/m 13,9 C 0,0 km/h (0 Bft)
03.09.2016 22:06 15,7 C 15,7 C 89 % 1017,6 hPa 0,0 mm 0,2 km/h (0 Bft) O 84 0 min 0,000 mm 0,0 UV-I 0 W/m 13,9 C 1,6 km/h (1 Bft)
03.09.2016 22:07 15,6 C 15,7 C 89 % 1017,7 hPa 0,0 mm 0,7 km/h (0 Bft) O 84 0 min 0,000 mm 0,0 UV-I 0 W/m 13,8 C 1,6 km/h (1 Bft)
03.09.2016 22:08 15,6 C 15,7 C 89 % 1017,6 hPa 0,0 mm 0,9 km/h (0 Bft) O 84 0 min 0,000 mm 0,0 UV-I 0 W/m 13,8 C 1,6 km/h (1 Bft)
03.09.2016 22:09 15,7 C 15,7 C 89 % 1017,7 hPa 0,0 mm 0,5 km/h (0 Bft) O 84 0 min 0,000 mm 0,0 UV-I 0 W/m 13,9 C 1,6 km/h (1 Bft)
03.09.2016 22:10 15,7 C 15,7 C 89 % 1017,6 hPa 0,0 mm 0,1 km/h (0 Bft) O 84 0 min 0,000 mm 0,0 UV-I 0 W/m 13,9 C 1,6 km/h (1 Bft)
03.09.2016 22:11 15,7 C 15,7 C 89 % 1017,6 hPa 0,0 mm 0,0 km/h (0 Bft) O 84 0 min 0,000 mm 0,0 UV-I 0 W/m 13,9 C 0,0 km/h (0 Bft)
03.09.2016 22:12 15,7 C 15,7 C 88 % 1017,6 hPa 0,0 mm 0,0 km/h (0 Bft) O 84 0 min 0,000 mm 0,0 UV-I 0 W/m 13,7 C 0,0 km/h (0 Bft)
03.09.2016 22:13 15,7 C 15,7 C 88 % 1017,7 hPa 0,0 mm 0,0 km/h (0 Bft) O 84 0 min 0,000 mm 0,0 UV-I 0 W/m 13,7 C 0,0 km/h (0 Bft)
03.09.2016 22:14 15,6 C 15,7 C 88 % 1017,7 hPa 0,0 mm 0,0 km/h (0 Bft) O 84 0 min 0,000 mm 0,0 UV-I 0 W/m 13,6 C 0,0 km/h (0 Bft)
03.09.2016 22:15 15,6 C 15,7 C 89 % 1017,6 hPa 0,0 mm 0,5 km/h (0 Bft) O 84 0 min 0,000 mm 0,0 UV-I 0 W/m 13,8 C 1,6 km/h (1 Bft)
03.09.2016 22:16 15,7 C 15,7 C 89 % 1017,6 hPa 0,0 mm 0,1 km/h (0 Bft) O 84 0 min 0,000 mm 0,0 UV-I 0 W/m 13,9 C 1,6 km/h (1 Bft)
03.09.2016 22:17 15,7 C 15,7 C 89 % 1017,6 hPa 0,0 mm 0,0 km/h (0 Bft) O 84 0 min 0,000 mm 0,0 UV-I 0 W/m 13,9 C 0,0 km/h (0 Bft)
03.09.2016 22:18 15,7 C 15,7 C 88 % 1017,6 hPa 0,0 mm 0,0 km/h (0 Bft) O 84 0 min 0,000 mm 0,0 UV-I 0 W/m 13,7 C 0,0 km/h (0 Bft)
03.09.2016 22:19 15,6 C 15,7 C 88 % 1017,6 hPa 0,0 mm 0,0 km/h (0 Bft) O 84 0 min 0,000 mm 0,0 UV-I 0 W/m 13,6 C 0,0 km/h (0 Bft)
03.09.2016 22:20 15,6 C 15,6 C 88 % 1017,6 hPa 0,0 mm 0,0 km/h (0 Bft) O 84 0 min 0,000 mm 0,0 UV-I 0 W/m 13,6 C 0,0 km/h (0 Bft)
03.09.2016 22:21 15,6 C 15,6 C 88 % 1017,6 hPa 0,0 mm 0,1 km/h (0 Bft) O 84 0 min 0,000 mm 0,0 UV-I 0 W/m 13,6 C 1,6 km/h (1 Bft)
03.09.2016 22:22 15,6 C 15,6 C 88 % 1017,6 hPa 0,0 mm 0,1 km/h (0 Bft) O 84 0 min 0,000 mm 0,0 UV-I 0 W/m 13,6 C 1,6 km/h (1 Bft)
03.09.2016 22:23 15,6 C 15,6 C 88 % 1017,6 hPa 0,0 mm 0,4 km/h (0 Bft) O 84 0 min 0,000 mm 0,0 UV-I 0 W/m 13,6 C 1,6 km/h (1 Bft)
03.09.2016 22:24 15,6 C 15,6 C 89 % 1017,6 hPa 0,0 mm 0,1 km/h (0 Bft) O 84 0 min 0,000 mm 0,0 UV-I 0 W/m 13,8 C 1,6 km/h (1 Bft)
03.09.2016 22:25 15,6 C 15,6 C 89 % 1017,6 hPa 0,0 mm 0,5 km/h (0 Bft) O 84 0 min 0,000 mm 0,0 UV-I 0 W/m 13,8 C 1,6 km/h (1 Bft)
03.09.2016 22:26 15,6 C 15,6 C 88 % 1017,6 hPa 0,0 mm 0,1 km/h (0 Bft) O 84 0 min 0,000 mm 0,0 UV-I 0 W/m 13,6 C 1,6 km/h (1 Bft)
03.09.2016 22:27 15,6 C 15,6 C 89 % 1017,6 hPa 0,0 mm 0,0 km/h (0 Bft) O 84 0 min 0,000 mm 0,0 UV-I 0 W/m 13,8 C 0,0 km/h (0 Bft)
03.09.2016 22:28 15,5 C 15,6 C 89 % 1017,6 hPa 0,0 mm 0,0 km/h (0 Bft) O 84 0 min 0,000 mm 0,0 UV-I 0 W/m 13,7 C 0,0 km/h (0 Bft)
03.09.2016 22:29 15,6 C 15,6 C 89 % 1017,6 hPa 0,0 mm 0,1 km/h (0 Bft) O 84 0 min 0,000 mm 0,0 UV-I 0 W/m 13,8 C 1,6 km/h (1 Bft)
03.09.2016 22:30 15,5 C 15,6 C 89 % 1017,6 hPa 0,0 mm 0,0 km/h (0 Bft) O 84 0 min 0,000 mm 0,0 UV-I 0 W/m 13,7 C 0,0 km/h (0 Bft)
03.09.2016 22:31 15,5 C 15,6 C 89 % 1017,6 hPa 0,0 mm 0,0 km/h (0 Bft) O 84 0 min 0,000 mm 0,0 UV-I 0 W/m 13,7 C 0,0 km/h (0 Bft)
03.09.2016 22:32 15,5 C 15,6 C 89 % 1017,6 hPa 0,0 mm 0,0 km/h (0 Bft) O 84 0 min 0,000 mm 0,0 UV-I 0 W/m 13,7 C 0,0 km/h (0 Bft)
03.09.2016 22:33 15,5 C 15,6 C 89 % 1017,6 hPa 0,0 mm 0,0 km/h (0 Bft) O 84 0 min 0,000 mm 0,0 UV-I 0 W/m 13,7 C 0,0 km/h (0 Bft)
03.09.2016 22:34 15,4 C 15,5 C 89 % 1017,6 hPa 0,0 mm 0,0 km/h (0 Bft) O 84 0 min 0,000 mm 0,0 UV-I 0 W/m 13,6 C 0,0 km/h (0 Bft)
03.09.2016 22:35 15,4 C 15,4 C 89 % 1017,6 hPa 0,0 mm 0,0 km/h (0 Bft) O 84 0 min 0,000 mm 0,0 UV-I 0 W/m 13,6 C 0,0 km/h (0 Bft)
03.09.2016 22:36 15,4 C 15,4 C 89 % 1017,6 hPa 0,0 mm 0,0 km/h (0 Bft) O 84 0 min 0,000 mm 0,0 UV-I 0 W/m 13,6 C 0,0 km/h (0 Bft)
03.09.2016 22:37 15,4 C 15,4 C 89 % 1017,7 hPa 0,0 mm 0,0 km/h (0 Bft) O 84 0 min 0,000 mm 0,0 UV-I 0 W/m 13,6 C 0,0 km/h (0 Bft)
03.09.2016 22:38 15,5 C 15,5 C 89 % 1017,6 hPa 0,0 mm 0,7 km/h (0 Bft) O 84 0 min 0,000 mm 0,0 UV-I 0 W/m 13,7 C 1,6 km/h (1 Bft)
03.09.2016 22:39 15,6 C 15,6 C 89 % 1017,7 hPa 0,0 mm 0,7 km/h (0 Bft) O 84 0 min 0,000 mm 0,0 UV-I 0 W/m 13,8 C 1,6 km/h (1 Bft)
03.09.2016 22:40 15,6 C 15,6 C 89 % 1017,7 hPa 0,0 mm 0,1 km/h (0 Bft) O 84 0 min 0,000 mm 0,0 UV-I 0 W/m 13,8 C 1,6 km/h (1 Bft)
03.09.2016 22:41 15,6 C 15,6 C 89 % 1017,6 hPa 0,0 mm 0,9 km/h (0 Bft) O 84 0 min 0,000 mm 0,0 UV-I 0 W/m 13,8 C 1,6 km/h (1 Bft)
03.09.2016 22:42 15,6 C 15,6 C 89 % 1017,6 hPa 0,0 mm 0,9 km/h (0 Bft) O 84 0 min 0,000 mm 0,0 UV-I 0 W/m 13,8 C 1,6 km/h (1 Bft)
03.09.2016 22:43 15,6 C 15,6 C 89 % 1017,7 hPa 0,0 mm 0,7 km/h (0 Bft) O 84 0 min 0,000 mm 0,0 UV-I 0 W/m 13,8 C 1,6 km/h (1 Bft)
03.09.2016 22:44 15,6 C 15,6 C 89 % 1017,7 hPa 0,0 mm 0,0 km/h (0 Bft) O 84 0 min 0,000 mm 0,0 UV-I 0 W/m 13,8 C 0,0 km/h (0 Bft)
03.09.2016 22:45 15,6 C 15,6 C 89 % 1017,6 hPa 0,0 mm 0,0 km/h (0 Bft) O 84 0 min 0,000 mm 0,0 UV-I 0 W/m 13,8 C 0,0 km/h (0 Bft)
03.09.2016 22:46 15,6 C 15,6 C 89 % 1017,6 hPa 0,0 mm 0,0 km/h (0 Bft) O 84 0 min 0,000 mm 0,0 UV-I 0 W/m 13,8 C 0,0 km/h (0 Bft)
03.09.2016 22:47 15,6 C 15,6 C 89 % 1017,7 hPa 0,0 mm 0,3 km/h (0 Bft) O 84 0 min 0,000 mm 0,0 UV-I 0 W/m 13,8 C 1,6 km/h (1 Bft)
03.09.2016 22:48 15,6 C 15,6 C 89 % 1017,7 hPa 0,0 mm 0,0 km/h (0 Bft) O 84 0 min 0,000 mm 0,0 UV-I 0 W/m 13,8 C 0,0 km/h (0 Bft)
03.09.2016 22:49 15,6 C 15,6 C 88 % 1017,7 hPa 0,0 mm 0,0 km/h (0 Bft) O 84 0 min 0,000 mm 0,0 UV-I 0 W/m 13,6 C 0,0 km/h (0 Bft)
03.09.2016 22:50 15,5 C 15,6 C 89 % 1017,7 hPa 0,0 mm 2,0 km/h (1 Bft) N 5 0 min 0,000 mm 0,0 UV-I 0 W/m 13,7 C 3,2 km/h (1 Bft)
03.09.2016 22:51 15,5 C 15,5 C 89 % 1017,6 hPa 0,0 mm 0,7 km/h (0 Bft) N 5 0 min 0,000 mm 0,0 UV-I 0 W/m 13,7 C 1,6 km/h (1 Bft)
03.09.2016 22:52 15,4 C 15,5 C 89 % 1017,7 hPa 0,0 mm 0,1 km/h (0 Bft) N 5 0 min 0,000 mm 0,0 UV-I 0 W/m 13,6 C 1,6 km/h (1 Bft)
03.09.2016 22:53 15,4 C 15,4 C 90 % 1017,7 hPa 0,0 mm 0,0 km/h (0 Bft) N 5 0 min 0,000 mm 0,0 UV-I 0 W/m 13,8 C 0,0 km/h (0 Bft)
03.09.2016 22:54 15,4 C 15,4 C 89 % 1017,7 hPa 0,0 mm 0,1 km/h (0 Bft) N 5 0 min 0,000 mm 0,0 UV-I 0 W/m 13,6 C 1,6 km/h (1 Bft)
03.09.2016 22:55 15,3 C 15,4 C 89 % 1017,7 hPa 0,0 mm 0,3 km/h (0 Bft) N 5 0 min 0,000 mm 0,0 UV-I 0 W/m 13,5 C 1,6 km/h (1 Bft)
03.09.2016 22:56 15,3 C 15,3 C 89 % 1017,7 hPa 0,0 mm 0,0 km/h (0 Bft) N 5 0 min 0,000 mm 0,0 UV-I 0 W/m 13,5 C 0,0 km/h (0 Bft)
03.09.2016 22:57 15,3 C 15,3 C 90 % 1017,7 hPa 0,0 mm 0,0 km/h (0 Bft) N 5 0 min 0,000 mm 0,0 UV-I 0 W/m 13,7 C 0,0 km/h (0 Bft)
03.09.2016 22:58 15,3 C 15,3 C 90 % 1017,7 hPa 0,0 mm 0,0 km/h (0 Bft) N 5 0 min 0,000 mm 0,0 UV-I 0 W/m 13,7 C 0,0 km/h (0 Bft)
03.09.2016 22:59 15,3 C 15,3 C 90 % 1017,7 hPa 0,0 mm 0,0 km/h (0 Bft) N 5 0 min 0,000 mm 0,0 UV-I 0 W/m 13,7 C 0,0 km/h (0 Bft)
03.09.2016 23:00 15,3 C 15,3 C 90 % 1017,7 hPa 0,0 mm 0,0 km/h (0 Bft) N 5 0 min 0,000 mm 0,0 UV-I 0 W/m 13,7 C 0,0 km/h (0 Bft)
03.09.2016 23:01 15,2 C 15,3 C 89 % 1017,6 hPa 0,0 mm 0,0 km/h (0 Bft) N 5 0 min 0,000 mm 0,0 UV-I 0 W/m 13,4 C 0,0 km/h (0 Bft)
03.09.2016 23:02 15,2 C 15,2 C 89 % 1017,7 hPa 0,0 mm 0,0 km/h (0 Bft) N 5 0 min 0,000 mm 0,0 UV-I 0 W/m 13,4 C 0,0 km/h (0 Bft)
03.09.2016 23:03 15,2 C 15,2 C 89 % 1017,7 hPa 0,0 mm 0,0 km/h (0 Bft) N 5 0 min 0,000 mm 0,0 UV-I 0 W/m 13,4 C 0,0 km/h (0 Bft)
03.09.2016 23:04 15,2 C 15,2 C 89 % 1017,7 hPa 0,0 mm 0,0 km/h (0 Bft) N 5 0 min 0,000 mm 0,0 UV-I 0 W/m 13,4 C 0,0 km/h (0 Bft)
03.09.2016 23:05 15,2 C 15,2 C 89 % 1017,7 hPa 0,0 mm 0,0 km/h (0 Bft) N 5 0 min 0,000 mm 0,0 UV-I 0 W/m 13,4 C 0,0 km/h (0 Bft)
03.09.2016 23:06 15,1 C 15,2 C 89 % 1017,7 hPa 0,0 mm 0,0 km/h (0 Bft) N 5 0 min 0,000 mm 0,0 UV-I 0 W/m 13,3 C 0,0 km/h (0 Bft)
03.09.2016 23:07 15,2 C 15,2 C 89 % 1017,7 hPa 0,0 mm 0,0 km/h (0 Bft) N 5 0 min 0,000 mm 0,0 UV-I 0 W/m 13,4 C 0,0 km/h (0 Bft)
03.09.2016 23:08 15,2 C 15,2 C 90 % 1017,7 hPa 0,0 mm 0,0 km/h (0 Bft) N 5 0 min 0,000 mm 0,0 UV-I 0 W/m 13,6 C 0,0 km/h (0 Bft)
03.09.2016 23:09 15,2 C 15,2 C 89 % 1017,7 hPa 0,0 mm 0,0 km/h (0 Bft) N 5 0 min 0,000 mm 0,0 UV-I 0 W/m 13,4 C 0,0 km/h (0 Bft)
03.09.2016 23:10 15,1 C 15,2 C 89 % 1017,7 hPa 0,0 mm 0,0 km/h (0 Bft) N 5 0 min 0,000 mm 0,0 UV-I 0 W/m 13,3 C 0,0 km/h (0 Bft)
03.09.2016 23:11 15,1 C 15,1 C 89 % 1017,7 hPa 0,0 mm 0,0 km/h (0 Bft) N 5 0 min 0,000 mm 0,0 UV-I 0 W/m 13,3 C 0,0 km/h (0 Bft)
03.09.2016 23:12 15,1 C 15,1 C 89 % 1017,7 hPa 0,0 mm 0,0 km/h (0 Bft) N 5 0 min 0,000 mm 0,0 UV-I 0 W/m 13,3 C 0,0 km/h (0 Bft)
03.09.2016 23:13 15,1 C 15,1 C 89 % 1017,7 hPa 0,0 mm 2,5 km/h (1 Bft) S 183 0 min 0,000 mm 0,0 UV-I 0 W/m 13,3 C 4,8 km/h (1 Bft)
03.09.2016 23:14 15,1 C 15,1 C 89 % 1017,7 hPa 0,0 mm 2,3 km/h (1 Bft) S 183 0 min 0,000 mm 0,0 UV-I 0 W/m 13,3 C 3,2 km/h (1 Bft)
03.09.2016 23:15 15,1 C 15,1 C 90 % 1017,7 hPa 0,0 mm 0,7 km/h (0 Bft) S 183 0 min 0,000 mm 0,0 UV-I 0 W/m 13,5 C 1,6 km/h (1 Bft)
03.09.2016 23:16 15,2 C 15,2 C 89 % 1017,7 hPa 0,0 mm 0,2 km/h (0 Bft) S 183 0 min 0,000 mm 0,0 UV-I 0 W/m 13,4 C 1,6 km/h (1 Bft)
03.09.2016 23:17 15,2 C 15,2 C 89 % 1017,7 hPa 0,0 mm 0,0 km/h (0 Bft) S 183 0 min 0,000 mm 0,0 UV-I 0 W/m 13,4 C 0,0 km/h (0 Bft)
03.09.2016 23:18 15,2 C 15,2 C 89 % 1017,7 hPa 0,0 mm 0,9 km/h (0 Bft) S 183 0 min 0,000 mm 0,0 UV-I 0 W/m 13,4 C 1,6 km/h (1 Bft)
03.09.2016 23:19 15,2 C 15,2 C 88 % 1017,7 hPa 0,0 mm 0,0 km/h (0 Bft) S 183 0 min 0,000 mm 0,0 UV-I 0 W/m 13,2 C 0,0 km/h (0 Bft)
03.09.2016 23:20 15,2 C 15,2 C 89 % 1017,7 hPa 0,0 mm 0,0 km/h (0 Bft) S 183 0 min 0,000 mm 0,0 UV-I 0 W/m 13,4 C 0,0 km/h (0 Bft)
03.09.2016 23:21 15,1 C 15,2 C 90 % 1017,7 hPa 0,0 mm 0,0 km/h (0 Bft) S 183 0 min 0,000 mm 0,0 UV-I 0 W/m 13,5 C 0,0 km/h (0 Bft)
03.09.2016 23:22 15,0 C 15,1 C 90 % 1017,7 hPa 0,0 mm 0,0 km/h (0 Bft) S 183 0 min 0,000 mm 0,0 UV-I 0 W/m 13,4 C 0,0 km/h (0 Bft)
03.09.2016 23:23 14,9 C 15,0 C 89 % 1017,7 hPa 0,0 mm 0,5 km/h (0 Bft) S 183 0 min 0,000 mm 0,0 UV-I 0 W/m 13,1 C 1,6 km/h (1 Bft)
03.09.2016 23:24 14,9 C 14,9 C 89 % 1017,7 hPa 0,0 mm 0,0 km/h (0 Bft) S 183 0 min 0,000 mm 0,0 UV-I 0 W/m 13,1 C 0,0 km/h (0 Bft)
03.09.2016 23:25 14,8 C 14,9 C 89 % 1017,7 hPa 0,0 mm 0,0 km/h (0 Bft) S 183 0 min 0,000 mm 0,0 UV-I 0 W/m 13,0 C 0,0 km/h (0 Bft)
03.09.2016 23:26 14,8 C 14,8 C 90 % 1017,7 hPa 0,0 mm 0,0 km/h (0 Bft) S 183 0 min 0,000 mm 0,0 UV-I 0 W/m 13,2 C 0,0 km/h (0 Bft)
03.09.2016 23:27 14,7 C 14,8 C 90 % 1017,7 hPa 0,0 mm 0,0 km/h (0 Bft) S 183 0 min 0,000 mm 0,0 UV-I 0 W/m 13,1 C 0,0 km/h (0 Bft)
03.09.2016 23:28 14,7 C 14,8 C 90 % 1017,7 hPa 0,0 mm 0,0 km/h (0 Bft) S 183 0 min 0,000 mm 0,0 UV-I 0 W/m 13,1 C 0,0 km/h (0 Bft)
03.09.2016 23:29 14,7 C 14,7 C 91 % 1017,7 hPa 0,0 mm 0,0 km/h (0 Bft) S 183 0 min 0,000 mm 0,0 UV-I 0 W/m 13,2 C 0,0 km/h (0 Bft)
03.09.2016 23:30 14,7 C 14,7 C 91 % 1017,7 hPa 0,0 mm 0,0 km/h (0 Bft) S 183 0 min 0,000 mm 0,0 UV-I 0 W/m 13,2 C 0,0 km/h (0 Bft)
03.09.2016 23:31 14,6 C 14,7 C 91 % 1017,7 hPa 0,0 mm 0,0 km/h (0 Bft) S 183 0 min 0,000 mm 0,0 UV-I 0 W/m 13,1 C 0,0 km/h (0 Bft)
03.09.2016 23:32 14,7 C 14,7 C 91 % 1017,7 hPa 0,0 mm 0,5 km/h (0 Bft) S 183 0 min 0,000 mm 0,0 UV-I 0 W/m 13,2 C 1,6 km/h (1 Bft)
03.09.2016 23:33 14,7 C 14,7 C 91 % 1017,6 hPa 0,0 mm 0,0 km/h (0 Bft) S 183 0 min 0,000 mm 0,0 UV-I 0 W/m 13,2 C 0,0 km/h (0 Bft)
03.09.2016 23:34 14,7 C 14,7 C 91 % 1017,6 hPa 0,0 mm 0,4 km/h (0 Bft) S 183 0 min 0,000 mm 0,0 UV-I 0 W/m 13,2 C 1,6 km/h (1 Bft)
03.09.2016 23:35 14,7 C 14,7 C 91 % 1017,6 hPa 0,0 mm 0,0 km/h (0 Bft) S 183 0 min 0,000 mm 0,0 UV-I 0 W/m 13,2 C 0,0 km/h (0 Bft)
03.09.2016 23:36 14,6 C 14,7 C 90 % 1017,6 hPa 0,0 mm 0,0 km/h (0 Bft) S 183 0 min 0,000 mm 0,0 UV-I 0 W/m 13,0 C 0,0 km/h (0 Bft)
03.09.2016 23:37 14,6 C 14,6 C 90 % 1017,6 hPa 0,0 mm 0,0 km/h (0 Bft) S 183 0 min 0,000 mm 0,0 UV-I 0 W/m 13,0 C 0,0 km/h (0 Bft)
03.09.2016 23:38 14,6 C 14,6 C 90 % 1017,6 hPa 0,0 mm 0,0 km/h (0 Bft) S 183 0 min 0,000 mm 0,0 UV-I 0 W/m 13,0 C 0,0 km/h (0 Bft)
03.09.2016 23:39 14,6 C 14,6 C 90 % 1017,6 hPa 0,0 mm 0,0 km/h (0 Bft) S 183 0 min 0,000 mm 0,0 UV-I 0 W/m 13,0 C 0,0 km/h (0 Bft)
03.09.2016 23:40 14,6 C 14,6 C 91 % 1017,6 hPa 0,0 mm 0,0 km/h (0 Bft) S 183 0 min 0,000 mm 0,0 UV-I 0 W/m 13,1 C 0,0 km/h (0 Bft)
03.09.2016 23:41 14,6 C 14,6 C 91 % 1017,7 hPa 0,0 mm 0,6 km/h (0 Bft) S 183 0 min 0,000 mm 0,0 UV-I 0 W/m 13,1 C 1,6 km/h (1 Bft)
03.09.2016 23:42 14,6 C 14,6 C 91 % 1017,6 hPa 0,0 mm 0,7 km/h (0 Bft) S 183 0 min 0,000 mm 0,0 UV-I 0 W/m 13,1 C 1,6 km/h (1 Bft)
03.09.2016 23:43 14,6 C 14,6 C 91 % 1017,6 hPa 0,0 mm 0,3 km/h (0 Bft) S 183 0 min 0,000 mm 0,0 UV-I 0 W/m 13,1 C 1,6 km/h (1 Bft)
03.09.2016 23:44 14,6 C 14,6 C 91 % 1017,7 hPa 0,0 mm 0,2 km/h (0 Bft) S 183 0 min 0,000 mm 0,0 UV-I 0 W/m 13,1 C 1,6 km/h (1 Bft)
03.09.2016 23:45 14,6 C 14,6 C 91 % 1017,7 hPa 0,0 mm 0,3 km/h (0 Bft) S 183 0 min 0,000 mm 0,0 UV-I 0 W/m 13,1 C 1,6 km/h (1 Bft)
03.09.2016 23:46 14,6 C 14,6 C 91 % 1017,6 hPa 0,0 mm 0,0 km/h (0 Bft) S 183 0 min 0,000 mm 0,0 UV-I 0 W/m 13,1 C 0,0 km/h (0 Bft)
03.09.2016 23:47 14,6 C 14,6 C 91 % 1017,6 hPa 0,0 mm 0,0 km/h (0 Bft) S 183 0 min 0,000 mm 0,0 UV-I 0 W/m 13,1 C 0,0 km/h (0 Bft)
03.09.2016 23:48 14,6 C 14,6 C 91 % 1017,7 hPa 0,0 mm 0,0 km/h (0 Bft) S 183 0 min 0,000 mm 0,0 UV-I 0 W/m 13,1 C 0,0 km/h (0 Bft)
03.09.2016 23:49 14,6 C 14,6 C 91 % 1017,6 hPa 0,0 mm 0,0 km/h (0 Bft) S 183 0 min 0,000 mm 0,0 UV-I 0 W/m 13,1 C 0,0 km/h (0 Bft)
03.09.2016 23:50 14,6 C 14,6 C 91 % 1017,6 hPa 0,0 mm 0,0 km/h (0 Bft) S 183 0 min 0,000 mm 0,0 UV-I 0 W/m 13,1 C 0,0 km/h (0 Bft)
03.09.2016 23:51 14,6 C 14,6 C 91 % 1017,7 hPa 0,0 mm 0,0 km/h (0 Bft) S 183 0 min 0,000 mm 0,0 UV-I 0 W/m 13,1 C 0,0 km/h (0 Bft)
03.09.2016 23:52 14,6 C 14,6 C 91 % 1017,6 hPa 0,0 mm 0,0 km/h (0 Bft) S 183 0 min 0,000 mm 0,0 UV-I 0 W/m 13,1 C 0,0 km/h (0 Bft)
03.09.2016 23:53 14,6 C 14,6 C 91 % 1017,6 hPa 0,0 mm 0,0 km/h (0 Bft) S 183 0 min 0,000 mm 0,0 UV-I 0 W/m 13,1 C 0,0 km/h (0 Bft)
03.09.2016 23:54 14,6 C 14,6 C 91 % 1017,6 hPa 0,0 mm 0,0 km/h (0 Bft) S 183 0 min 0,000 mm 0,0 UV-I 0 W/m 13,1 C 0,0 km/h (0 Bft)
03.09.2016 23:55 14,6 C 14,6 C 91 % 1017,6 hPa 0,0 mm 0,0 km/h (0 Bft) S 183 0 min 0,000 mm 0,0 UV-I 0 W/m 13,1 C 0,0 km/h (0 Bft)
03.09.2016 23:56 14,6 C 14,6 C 91 % 1017,6 hPa 0,0 mm 0,0 km/h (0 Bft) S 183 0 min 0,000 mm 0,0 UV-I 0 W/m 13,1 C 0,0 km/h (0 Bft)
03.09.2016 23:57 14,6 C 14,7 C 91 % 1017,6 hPa 0,0 mm 0,0 km/h (0 Bft) S 183 0 min 0,000 mm 0,0 UV-I 0 W/m 13,1 C 0,0 km/h (0 Bft)
03.09.2016 23:58 14,7 C 14,7 C 91 % 1017,6 hPa 0,0 mm 0,0 km/h (0 Bft) S 183 0 min 0,000 mm 0,0 UV-I 0 W/m 13,2 C 0,0 km/h (0 Bft)
03.09.2016 23:59 14,7 C 14,7 C 91 % 1017,6 hPa 0,0 mm 0,4 km/h (0 Bft) S 183 0 min 0,000 mm 0,0 UV-I 0 W/m 13,2 C 1,6 km/h (1 Bft)
_ Min-Zeit 03:57 03:57 10:53 19:28 - 23:58 - - - - - - 06:05 23:58
Minimum _ 12,4 C 12,4 C 61 % 1017,2 hPa - 0,0 km/h (0 Bft) - - - - - - 10,8 C 0,0 km/h (0 Bft)
_ Max-Zeit 13:25 13:26 03:03 11:17 23:59 13:29 - - 14:56 14:01 13:15 13:10 18:39 13:25
Maximum _ 22,6 C 22,6 C 95 % 1019,6 hPa 0,0 mm 13,3 km/h
N-NW (3 Bft)
- - 1 min 0,356 mm 6,2 UV-I 837 W/m 16,9 C 17,7 km/h
N-NW (3 Bft)
Durchschnitt _ 16,9 C 16,9 C 83 % 1018,5 hPa #0,0 mm 1,3 km/h (1 Bft) N - #4:29 h #2,083 mm 2,4 UV-I 139 W/m 13,9 C 2,3 km/h (1 Bft)